GFSSGP_prec_cloud_003.txt.gz
Cloud_Cover
99 54 99 100 100 100 100 100 100 100 100 100 100 100 100 100 100 100 57 95 98 99 97 89 43 86 6 5 5 5 4 0 0 5 0 3 5 4 0 0 0 0 2 4 5 5 5 3 0
100 33 93 100 100 100 100 100 100 100 100 100 100 100 100 100 100 100 100 100 100 100 100 100 76 37 13 99 6 5 5 5 52 5 5 5 5 4 0 0 0 4 5 46 88 5 5 0 0
58 92 66 100 100 100 100 100 100 100 100 100 100 100 100 100 100 100 100 94 100 100 100 100 68 54 56 6 6 16 65 18 58 40 61 38 5 5 1 4 5 98 6 67 71 10 0 0 0
5 6 90 100 100 100 100 100 100 100 100 100 100 100 100 98 100 100 100 57 100 70 100 92 100 100 100 98 41 94 12 31 44 100 80 6 5 5 5 15 100 25 100 99 4 0 0 0 0
5 9 100 100 100 100 100 100 100 100 100 100 100 100 100 96 90 78 88 93 100 100 78 100 100 93 47 99 100 95 38 69 97 13 6 5 5 27 100 100 97 100 100 14 1 0 0 0 0
73 18 72 100 100 100 100 100 100 100 100 100 100 100 100 98 100 100 96 80 82 57 93 95 99 100 100 100 100 100 100 61 11 39 82 60 98 100 100 100 100 100 5 13 3 0 0 0 0
4 63 91 100 100 100 100 100 100 100 100 100 100 100 100 100 100 100 100 100 100 100 100 100 100 100 100 100 100 100 96 85 100 100 98 100 100 100 100 98 100 100 5 5 0 0 0 0 0
1 5 100 78 100 100 100 100 100 100 100 100 100 100 100 100 100 100 100 100 100 100 100 100 98 100 100 100 99 90 80 95 98 89 94 100 100 100 42 100 85 5 0 0 0 0 0 0 0
32 9 68 100 100 100 100 100 100 100 100 100 100 100 100 100 100 100 100 100 100 100 100 100 100 100 100 93 98 100 99 100 100 100 100 100 100 100 100 98 81 4 4 5 2 2 0 0 0
96 13 94 73 100 100 100 100 100 100 100 100 100 100 100 100 100 100 100 100 100 100 100 100 100 100 100 100 100 100 100 100 96 100 100 100 100 100 42 5 5 13 4 4 5 5 0 0 0
33 99 100 100 100 100 100 100 100 100 100 100 100 100 100 100 100 100 100 100 100 100 100 100 100 100 100 100 100 100 100 100 100 100 100 95 97 87 97 98 100 7 13 5 5 5 5 0 1
92 100 100 100 100 100 100 100 100 100 100 100 100 100 100 100 100 100 100 100 100 100 100 100 100 100 100 100 100 100 100 100 100 100 88 75 6 4 0 3 6 10 5 5 5 5 5 2 0
96 99 100 100 100 84 100 100 100 100 100 100 100 100 100 100 100 100 100 100 100 100 100 100 100 100 100 100 100 100 100 100 98 48 33 64 82 35 84 71 3 45 7 10 8 4 5 1 0
100 100 94 90 38 100 100 100 100 100 100 100 100 100 100 100 100 100 100 100 86 96 100 100 100 100 100 100 81 23 16 30 11 63 99 100 100 98 100 100 20 60 98 72 17 0 5 4 0
92 91 87 100 94 86 4 6 100 100 100 100 100 100 100 100 100 100 100 100 100 100 100 100 100 93 31 8 87 77 5 5 38 24 5 5 36 86 99 79 69 4 4 0 0 5 5 4 5
31 6 18 87 100 100 86 68 86 93 100 93 95 100 100 100 100 100 100 100 100 34 24 45 74 100 81 100 100 100 100 71 5 3 5 5 5 5 5 5 3 5 5 5 5 5 5 2 0
100 12 5 5 5 47 64 79 93 92 65 56 32 2 16 61 66 5 34 98 24 14 92 100 99 98 100 100 100 100 100 94 58 35 50 10 28 24 5 13 53 8 5 5 5 5 0 2 0
2 1 3 5 4 5 5 5 5 5 5 1 0 0 0 0 0 2 51 76 100 70 95 62 80 100 100 100 100 100 93 36 45 88 84 95 64 6 78 80 6 6 5 4 2 1 0 0 0
5 3 3 5 23 5 5 5 5 1 0 0 0 0 5 5 7 53 29 91 21 5 5 8 5 89 55 35 36 28 31 80 79 99 91 63 100 100 49 5 5 5 4 0 0 0 0 0 0
5 2 2 0 5 3 3 0 1 8 15 42 51 20 29 36 90 99 99 100 89 5 2 5 27 38 88 14 5 5 41 63 94 91 100 92 28 5 5 5 29 13 0 0 0 5 4 2 4
5 3 4 4 18 62 83 73 15 80 94 27 4 4 5 23 36 82 93 60 5 30 20 30 3 2 7 1 36 49 27 68 85 69 5 5 5 5 2 0 0 2 0 4 5 5 5 5 5
76 18 5 55 42 16 52 76 42 2 0 0 0 21 92 73 78 5 5 5 88 93 8 1 0 0 1 5 5 14 89 100 37 5 3 0 0 0 0 5 4 5 6 39 32 7 5 5 4
6 5 0 0 0 0 0 0 0 0 0 0 29 100 22 96 59 96 100 100 64 19 5 1 0 2 3 6 93 100 94 14 2 0 1 5 3 4 5 43 46 96 99 45 93 14 0 0 5
0 0 0 0 0 0 0 0 0 0 11 98 97 89 40 99 36 52 100 91 100 83 40 0 1 5 18 20 5 3 0 2 3 5 10 29 96 79 72 99 86 75 62 53 39 21 0 0 1
0 0 0 0 2 0 0 2 0 1 11 49 94 25 31 21 81 100 100 5 22 3 5 5 88 49 5 4 3 10 37 80 98 100 84 99 64 70 95 53 8 4 3 4 3 5 24 92 8
0 0 0 0 2 0 0 0 0 0 4 5 5 4 20 94 94 85 12 0 0 3 5 2 5 5 59 9 5 5 6 31 42 88 63 81 87 10 5 5 5 38 77 99 100 100 77 36 79
0 0 0 0 0 0 0 0 0 0 0 0 2 5 5 4 0 0 0 2 0 5 5 0 4 5 5 5 5 5 8 50 91 94 25 0 0 3 7 98 95 100 100 96 100 98 100 38 25
0 0 0 0 0 0 0 0 0 0 2 5 5 4 1 3 3 5 5 5 5 5 5 5 7 40 5 4 4 5 5 5 5 4 0 1 4 100 93 13 82 100 87 100 100 100 99 26 100
0 0 0 0 2 2 4 0 0 3 2 3 5 5 5 51 71 37 36 63 40 91 96 89 81 60 5 5 9 16 8 2 3 3 1 0 6 99 79 82 72 93 100 100 100 100 100 100 100
0 0 0 0 0 10 5 1 0 0 0 3 5 5 22 24 95 92 89 100 100 100 100 100 76 60 25 5 2 0 5 4 3 0 0 1 97 98 76 100 82 100 100 89 100 100 100 100 98

GFSSGP_prec_cloud_006.txt.gz
Cloud_Cover
0 6 7 80 0 91 99 100 100 100 100 100 100 100 100 100 100 100 100 100 99 86 97 99 100 100 100 6 5 5 5 2 7 42 5 0 0 0 5 5 5 0 0 0 0 0 2 5 1
5 7 5 5 0 16 42 100 100 100 100 100 100 100 100 100 100 100 100 100 100 100 100 100 90 40 95 14 5 5 62 64 22 44 5 4 1 5 5 5 0 0 0 1 5 5 5 0 0
4 23 51 4 0 1 84 100 100 100 100 100 100 100 100 100 100 100 100 100 100 100 100 100 100 100 28 56 56 87 26 66 40 100 5 5 52 15 4 2 0 0 4 6 10 58 59 0 0
5 5 21 5 61 3 90 100 100 100 100 100 100 100 100 100 100 100 100 100 100 100 100 83 98 100 65 16 6 5 46 81 32 50 24 100 100 1 4 0 4 5 6 16 56 54 5 0 0
5 0 22 5 68 0 46 100 100 100 100 100 100 100 100 100 100 100 100 100 100 100 100 51 30 65 33 5 56 74 71 39 92 96 99 79 25 5 5 5 5 5 8 70 95 5 0 0 0
5 5 17 92 7 5 15 100 100 100 100 100 100 100 100 100 100 100 99 100 97 94 91 49 88 14 40 46 100 100 57 42 97 56 31 56 4 12 5 5 16 20 89 28 9 4 4 0 0
5 21 82 22 61 95 98 100 100 100 100 100 100 100 100 100 100 100 100 100 100 98 93 98 87 100 100 100 100 100 97 80 100 97 5 5 22 88 92 70 100 100 38 3 4 0 0 0 0
32 4 5 49 80 100 100 100 100 100 100 100 100 100 100 100 100 100 100 100 100 100 100 100 100 100 100 100 100 100 100 100 90 93 62 100 100 100 100 100 100 24 6 6 64 0 0 0 0
5 5 6 67 100 100 100 100 100 100 100 100 100 100 100 100 100 100 100 100 100 100 100 100 100 100 93 100 100 100 100 86 100 100 100 100 100 100 100 98 53 5 5 4 5 1 3 0 0
75 81 89 100 99 100 100 100 100 100 100 100 100 100 100 100 100 100 100 100 100 100 100 100 100 100 100 100 99 80 63 98 100 100 100 100 100 100 100 32 15 3 5 0 0 0 4 0 0
34 92 99 84 100 98 100 100 100 100 100 100 100 100 100 100 100 100 100 100 100 100 100 100 100 100 100 98 100 100 92 100 100 100 100 100 100 100 6 0 5 2 4 1 5 0 0 4 3
99 99 100 100 100 100 100 100 100 100 100 100 100 100 100 100 100 100 100 100 100 100 100 100 100 100 100 100 100 100 100 100 100 100 100 100 14 7 5 1 24 61 5 5 35 5 0 0 0
100 98 100 100 100 100 100 100 100 100 100 100 100 100 100 100 100 100 100 100 100 100 100 100 100 100 100 100 100 100 100 100 100 92 22 0 2 5 4 5 5 5 0 1 0 0 0 0 0
100 98 100 100 100 100 100 100 100 100 100 100 100 100 100 100 100 100 100 100 100 100 100 100 100 100 100 100 100 100 100 100 100 95 100 5 5 5 5 5 5 1 1 5 5 5 0 0 0
100 94 99 89 92 96 100 100 100 100 100 100 100 100 100 100 100 100 100 100 95 100 100 100 100 92 99 96 98 99 100 100 100 100 51 100 25 84 94 88 27 5 5 5 5 5 5 1 0
90 84 100 98 100 100 88 86 95 98 96 98 100 100 100 100 100 100 100 99 96 97 100 100 81 77 98 100 100 100 100 100 100 97 100 100 96 100 100 71 5 30 20 5 5 5 5 5 0
56 82 82 92 72 16 5 5 20 22 24 48 50 45 16 5 43 50 39 11 100 100 100 100 95 79 72 100 100 100 100 100 100 100 100 71 82 96 56 39 66 100 39 5 5 5 4 0 0
51 24 8 23 43 22 7 18 8 5 6 14 83 90 78 39 31 17 35 68 100 86 100 95 82 100 100 100 100 100 100 100 100 100 100 100 28 48 97 99 44 5 5 5 5 1 0 0 0
5 5 61 5 2 5 20 44 38 24 19 5 5 5 5 5 3 4 4 40 66 15 87 100 100 100 95 80 88 100 98 100 92 69 24 5 15 5 23 38 26 5 4 0 0 0 0 0 0
0 0 2 5 5 4 3 5 5 5 25 50 16 8 18 13 53 48 48 12 5 4 8 70 48 2 20 39 20 57 50 20 5 5 5 27 28 68 84 7 2 0 0 0 1 2 5 5 0
4 2 3 3 4 2 0 4 16 53 88 32 41 96 86 65 17 6 47 52 5 5 5 5 5 4 0 5 1 4 0 1 5 5 5 5 19 7 2 0 0 3 5 5 5 5 5 15 5
1 3 5 3 4 20 59 14 7 8 11 12 16 16 6 5 6 92 76 12 60 5 5 23 89 89 22 5 5 0 0 1 0 0 0 0 0 0 0 3 5 5 23 28 29 5 1 0 13
0 4 52 55 61 41 5 4 0 0 0 0 0 0 5 5 48 54 100 89 94 98 98 46 12 5 5 0 0 0 0 0 0 0 0 0 4 5 5 5 5 5 5 4 8 5 5 1 4
4 4 3 1 0 0 0 0 0 0 0 3 5 5 5 5 1 5 34 46 100 97 100 15 3 5 4 1 0 0 2 1 1 3 1 5 5 5 1 5 5 25 16 5 32 87 16 0 2
0 0 0 0 2 0 0 0 0 0 0 2 5 5 5 0 0 14 100 78 35 6 5 4 4 2 0 0 5 5 5 4 5 5 5 5 2 4 44 68 12 5 5 32 46 85 100 89 40
0 0 0 0 5 0 0 0 0 0 0 0 4 1 0 4 63 68 25 0 5 4 0 5 5 5 6 5 5 0 0 2 3 1 4 6 55 37 5 2 5 5 5 13 79 100 100 86 32
0 0 0 0 0 0 0 0 0 0 0 0 0 0 5 33 4 0 5 5 1 5 5 5 6 49 8 5 5 5 5 5 5 5 24 16 5 5 5 4 5 80 5 96 96 83 62 74 93
0 0 0 0 0 0 0 0 0 0 0 0 0 0 2 0 3 5 5 4 5 5 5 5 31 71 38 82 87 70 41 5 5 5 5 5 4 0 5 22 84 68 96 99 96 17 100 81 14
0 0 0 0 1 2 1 0 0 0 0 0 0 0 5 5 5 9 5 7 18 10 40 87 93 82 100 100 33 5 1 0 5 5 5 4 0 0 16 88 72 32 27 6 4 5 5 5 18
0 0 0 0 0 14 5 1 0 0 0 0 0 0 4 5 53 6 5 74 82 100 100 61 80 100 100 72 5 0 4 5 5 5 5 2 4 5 86 28 79 5 4 5 5 3 19 5 5

GFSSGP_prec_cloud_009.txt.gz
Cloud_Cover
0 0 0 1 0 0 0 3 30 80 100 100 100 100 100 100 100 100 100 100 100 100 100 82 71 100 100 48 100 100 85 36 14 5 6 5 37 5 5 32 1 2 1 0 0 0 0 0 1
0 0 5 5 1 1 0 5 5 69 98 100 100 100 100 100 100 100 100 100 100 100 100 100 100 100 100 100 100 44 7 9 18 21 30 18 5 2 5 2 4 5 0 0 0 0 0 4 5
0 0 5 5 5 3 0 4 5 15 5 100 100 100 100 100 100 100 100 100 100 100 100 100 100 100 100 73 95 16 68 60 42 5 5 5 1 3 24 90 3 0 0 0 0 0 1 23 22
0 0 6 33 34 4 3 2 5 74 100 100 100 100 100 100 100 100 100 100 98 100 100 100 100 100 100 100 98 63 63 36 5 5 5 4 4 81 68 6 5 2 0 0 0 2 55 84 8
4 4 5 60 5 0 4 40 47 100 100 100 100 100 100 100 100 100 100 100 100 100 100 100 100 100 100 96 94 93 55 20 5 16 98 24 99 71 95 2 5 5 4 3 5 5 41 97 2
5 3 5 4 5 4 2 71 7 92 100 100 100 86 100 100 100 100 100 100 100 100 100 100 100 100 100 100 86 85 63 79 100 99 100 96 92 76 5 5 5 5 5 5 5 7 5 88 1
6 5 5 19 56 90 14 24 100 100 100 100 100 100 100 100 100 100 100 100 100 100 100 100 100 100 100 100 100 93 53 98 64 99 47 98 53 31 28 5 8 10 5 5 71 59 4 4 1
25 58 35 50 99 71 100 49 100 93 100 100 100 100 100 100 100 100 100 100 100 100 100 100 100 100 100 100 89 65 100 100 99 10 29 42 75 100 100 71 47 5 43 49 5 2 0 0 0
100 100 99 59 60 100 92 100 100 100 100 100 100 100 100 100 100 100 100 100 100 100 100 100 100 100 100 100 100 100 97 91 50 93 87 100 100 100 100 99 100 60 78 5 4 5 2 0 0
100 100 100 97 93 100 100 100 100 100 100 100 100 100 100 100 100 100 100 100 100 100 100 100 100 100 100 100 100 100 100 94 92 98 100 100 100 100 100 19 13 8 2 0 5 0 0 0 0
100 100 100 100 100 99 100 100 100 100 100 100 100 100 100 100 100 100 100 100 100 100 100 100 100 100 100 94 93 90 97 100 100 100 100 100 99 86 100 5 2 4 2 0 0 0 0 0 0
96 100 100 100 100 100 100 100 100 100 90 65 100 100 100 100 100 100 100 100 100 100 100 100 100 100 95 100 100 100 100 100 100 100 100 100 90 8 5 5 3 2 5 0 5 0 0 0 0
100 100 100 100 100 100 100 98 100 100 100 100 99 94 99 100 100 100 100 100 100 100 100 100 100 100 96 100 100 100 100 100 100 100 87 100 96 9 5 5 69 46 5 46 8 5 2 0 0
96 100 100 100 100 100 100 100 99 74 100 100 100 100 100 100 86 92 100 100 100 100 100 67 100 100 95 100 100 100 100 100 100 100 100 100 100 95 95 100 90 74 86 6 6 5 5 5 0
100 93 100 100 100 100 99 100 100 100 100 100 100 100 100 100 100 96 86 8 8 34 49 100 100 100 100 100 100 100 100 100 100 100 100 100 100 93 81 73 62 40 99 10 6 6 5 4 0
100 100 100 100 98 70 93 100 100 100 100 100 100 100 100 100 100 100 100 98 83 43 76 100 100 100 100 100 100 100 100 100 100 100 100 100 100 100 100 99 100 100 100 89 84 26 1 1 1
100 100 65 94 100 100 100 100 100 100 63 86 96 100 100 97 90 32 21 89 69 65 89 87 100 100 100 100 100 100 100 100 100 100 100 100 100 100 100 99 82 46 34 6 5 5 5 5 0
84 100 100 100 100 100 94 56 88 98 100 100 98 96 69 51 42 68 69 91 66 79 91 87 88 84 98 100 100 88 100 98 98 100 100 100 91 12 4 5 5 5 5 5 5 1 0 0 0
100 100 99 16 11 5 5 5 5 12 64 86 71 80 71 86 99 51 16 38 100 100 100 100 56 52 99 71 78 99 68 72 71 14 0 0 4 5 5 5 5 1 0 0 0 0 4 5 5
56 76 70 5 2 1 1 5 5 5 5 5 5 7 75 77 63 70 100 97 28 70 94 63 15 2 12 10 0 0 0 0 0 0 0 1 4 4 0 0 0 0 0 2 3 0 0 1 4
100 84 5 3 4 25 23 15 9 10 3 2 5 5 5 5 5 22 10 24 22 4 2 0 2 5 5 3 3 0 0 0 0 0 0 0 0 0 0 0 5 5 5 1 0 0 0 0 0
6 5 4 5 18 29 8 63 79 13 3 5 8 8 19 37 2 0 5 5 58 37 5 81 15 5 2 5 2 0 0 0 0 0 0 0 0 0 0 4 5 5 0 0 0 0 0 0 0
5 5 32 4 27 44 6 5 0 0 4 5 2 0 0 0 1 4 5 6 5 76 81 5 4 46 1 0 0 0 0 0 0 0 4 4 3 5 5 5 7 5 5 0 0 0 0 21 11
3 5 25 7 26 5 5 1 0 0 0 0 0 0 0 1 5 5 5 5 32 62 2 0 3 3 5 4 4 3 0 2 4 5 5 0 0 0 0 0 0 0 2 4 56 5 26 6 12
5 13 53 45 2 0 0 0 0 0 0 0 0 0 1 5 5 5 72 31 25 0 1 0 5 5 5 5 5 5 5 5 21 7 1 0 0 0 0 2 5 8 5 6 89 100 48 5 19
0 0 0 0 0 0 0 0 0 0 0 0 0 0 0 0 5 9 89 38 0 4 5 5 5 5 5 5 13 5 5 44 68 5 1 2 4 5 5 6 28 42 22 7 99 86 5 5 33
0 0 0 0 0 0 0 0 0 0 0 0 0 0 3 4 5 27 6 0 0 0 5 5 5 5 6 61 33 61 73 67 45 5 5 5 5 6 53 87 13 8 99 46 85 82 0 0 0
0 0 0 0 0 0 0 0 0 0 0 0 0 0 0 0 5 2 1 4 1 5 5 5 5 47 21 65 94 94 96 74 2 5 5 6 59 58 12 5 10 100 70 17 2 0 2 0 3
0 0 0 0 0 0 0 0 0 0 0 0 0 4 5 0 0 5 5 5 5 5 11 5 76 100 48 86 100 78 12 5 5 20 31 7 47 5 5 9 97 76 8 92 3 5 5 0 0
0 0 0 0 0 2 0 0 0 0 0 3 5 5 5 0 5 5 5 44 74 66 20 86 93 12 84 99 100 22 6 21 58 32 5 5 0 5 5 33 100 99 99 89 48 71 5 3 0

GFSSGP_prec_cloud_012.txt.gz
Cloud_Cover
9 0 0 0 0 0 2 3 0 0 22 87 88 100 94 100 100 99 94 98 52 98 100 100 100 100 74 33 100 100 100 100 100 100 100 100 92 6 6 18 45 4 0 1 0 3 60 0 0
100 97 25 0 0 0 2 0 2 92 4 1 55 88 98 100 100 100 100 100 100 100 100 100 100 100 43 47 53 100 100 98 100 90 59 45 12 86 98 3 4 2 18 1 0 10 0 0 0
5 42 96 5 5 25 9 1 98 13 5 18 73 100 99 99 95 100 100 100 100 100 100 100 96 100 100 91 98 100 100 100 98 100 58 100 66 5 1 2 12 26 9 12 2 0 0 0 0
5 5 2 0 44 5 26 18 5 4 35 88 100 100 100 100 100 95 100 100 100 100 100 100 100 77 100 99 100 100 100 65 76 98 57 7 11 68 5 70 100 5 5 0 0 4 4 4 5
0 1 3 5 31 5 5 2 5 52 68 68 100 92 100 99 100 100 100 100 100 100 100 100 100 100 100 100 100 100 26 13 5 23 49 5 5 39 98 82 7 56 5 5 5 5 5 5 5
6 43 67 57 90 20 0 12 68 100 99 99 79 93 66 94 100 100 100 100 100 100 100 100 100 100 100 100 100 100 100 100 100 22 31 92 97 91 94 44 9 5 13 35 65 8 5 14 14
89 32 24 83 41 13 32 12 12 84 100 100 100 100 100 100 77 100 100 100 100 100 100 100 100 100 100 100 100 100 100 92 100 100 100 100 51 85 50 85 8 93 46 8 36 32 9 5 6
100 62 5 83 100 36 75 38 7 92 100 98 100 100 100 100 100 100 100 100 100 100 100 100 100 100 99 100 100 100 100 100 100 100 100 100 93 100 15 98 26 6 5 6 17 5 5 5 0
100 59 79 91 74 96 80 97 100 100 100 100 100 94 100 100 100 100 100 100 100 100 100 100 100 100 100 100 100 100 100 100 100 100 100 100 90 100 100 66 5 5 5 5 3 5 0 4 0
100 72 100 99 94 98 100 99 100 100 100 100 100 100 90 100 100 100 100 100 100 100 100 100 100 100 100 100 100 100 100 100 100 100 100 100 99 93 85 5 13 5 5 1 3 0 0 0 0
100 100 100 100 100 100 97 100 98 100 100 100 100 100 100 100 100 100 100 96 97 98 100 100 100 100 100 100 100 100 100 100 100 100 100 89 92 100 100 5 5 3 3 4 0 0 0 0 0
100 100 100 100 100 100 100 99 98 75 97 85 100 100 100 100 100 66 100 100 100 100 100 100 100 100 100 100 100 100 100 100 100 100 100 100 100 99 76 69 33 5 5 4 5 0 0 0 0
100 100 100 100 100 100 100 96 74 100 88 41 30 94 96 98 100 100 100 100 100 100 100 100 100 100 100 100 100 94 95 100 100 98 100 100 100 100 100 84 63 6 5 36 8 8 5 81 100
100 100 100 100 100 100 100 100 100 100 100 100 100 99 77 95 100 100 100 100 100 30 80 100 100 100 81 82 92 92 100 100 100 100 100 100 100 100 100 67 94 97 75 8 88 98 100 100 59
100 100 100 100 100 100 100 100 100 100 100 100 100 100 100 100 100 100 89 100 88 55 23 22 33 99 88 83 100 98 100 100 100 100 98 100 100 100 100 100 100 100 100 100 100 100 29 9 0
100 100 100 100 100 99 100 100 100 100 100 100 100 100 100 100 100 100 100 100 100 94 90 78 79 84 72 100 100 100 100 100 100 100 100 100 100 100 100 100 100 100 100 100 97 53 5 2 3
100 100 100 95 100 100 100 100 100 100 100 100 100 100 100 99 45 13 37 59 74 62 34 78 72 62 74 96 100 100 100 100 100 100 100 100 100 100 100 100 100 97 76 25 1 2 5 5 3
100 97 100 100 100 99 99 100 100 87 98 100 55 64 92 79 94 89 100 100 93 93 99 98 100 100 73 100 100 100 100 100 100 100 100 100 100 100 89 41 7 0 0 0 0 0 0 0 0
100 100 100 100 100 98 90 100 100 92 55 39 37 45 93 100 100 100 83 63 36 10 49 91 97 56 39 62 51 71 72 43 45 9 0 3 1 0 0 0 0 0 0 0 0 0 1 0 2
100 100 100 100 94 45 64 61 63 33 14 14 89 94 66 8 6 21 21 15 21 31 63 74 42 22 5 5 0 0 1 0 0 0 0 0 0 3 0 0 0 0 0 3 3 5 5 5 5
100 80 100 82 67 6 5 2 1 1 2 5 70 50 39 11 5 25 46 52 50 69 39 47 44 5 5 18 12 4 3 0 0 1 3 5 0 0 0 0 0 1 4 4 0 1 5 5 5
100 96 90 81 32 24 5 71 2 0 1 5 5 5 5 5 5 18 26 8 5 5 7 5 6 34 10 2 0 0 0 4 5 5 39 5 5 4 0 0 0 0 0 0 1 1 1 4 5
64 17 8 5 5 5 5 2 4 1 5 20 41 6 4 0 2 1 5 7 5 51 5 23 46 1 0 0 0 0 4 5 6 7 5 5 5 5 4 0 0 0 0 0 0 0 2 12 13
3 5 5 65 16 0 2 4 61 60 12 0 0 0 0 0 0 5 5 5 5 5 5 1 0 0 1 5 5 4 5 22 37 24 5 13 5 5 0 0 0 0 0 2 5 5 5 48 100
5 5 5 5 3 5 6 1 0 0 0 0 0 0 0 0 5 5 5 5 5 5 4 0 2 2 5 5 5 20 16 16 77 54 37 25 4 0 0 0 2 21 47 30 67 92 72 42 45
3 5 16 5 3 0 0 0 0 0 0 0 0 0 1 5 2 3 5 5 5 5 0 0 3 5 5 5 7 99 82 78 96 87 81 4 3 5 5 63 59 7 64 92 37 100 100 88 82
57 6 0 0 0 0 0 0 0 0 0 0 1 3 0 5 5 3 5 5 5 1 0 0 5 8 6 6 73 100 65 24 84 95 16 5 15 73 34 5 5 88 100 100 100 100 90 95 53
0 0 0 0 0 0 0 0 0 0 0 3 0 0 4 6 5 5 5 5 4 5 11 36 70 99 100 100 100 12 5 77 89 12 24 40 7 5 5 5 49 100 56 100 100 100 100 96 96
0 0 0 0 0 0 0 2 2 0 0 1 4 5 55 26 5 5 5 5 5 5 66 100 100 100 73 100 86 29 92 67 5 5 5 5 5 5 29 6 22 26 91 100 87 95 100 100 100
0 0 0 5 5 0 0 5 3 0 0 5 5 6 21 5 5 5 5 26 39 89 100 100 100 100 99 100 98 14 5 5 5 5 5 5 11 73 13 5 30 69 86 100 94 87 100 100 100

GFSSGP_prec_cloud_015.txt.gz
Cloud_Cover
4 5 5 0 0 0 0 26 9 52 58 49 12 75 96 76 100 99 99 100 100 100 100 84 99 100 79 74 29 80 17 6 5 5 93 100 80 84 24 84 52 13 14 99 6 1 0 1 3
30 17 2 5 1 1 26 84 42 1 10 100 13 7 4 61 73 93 78 100 100 100 100 100 100 100 89 54 12 47 98 56 10 5 36 100 62 100 100 58 100 100 85 62 5 5 6 17 0
64 99 100 52 4 6 92 100 9 16 11 8 1 2 3 21 47 76 93 100 65 90 71 100 100 100 100 78 53 26 77 5 16 33 85 32 26 37 46 62 14 8 5 5 5 5 5 3 0
100 100 100 100 100 99 3 100 0 70 73 14 13 5 40 29 70 13 97 90 99 99 100 100 100 100 100 100 100 80 66 40 16 57 24 72 12 4 23 66 7 32 52 100 5 4 1 64 5
5 86 91 95 100 99 6 9 98 30 100 55 70 4 4 94 66 82 67 68 100 100 100 100 100 100 100 100 100 100 61 35 91 67 88 100 100 50 100 100 100 100 17 60 74 6 46 100 55
5 4 6 6 100 62 25 36 93 46 99 32 73 5 11 88 56 72 52 94 100 100 100 100 100 100 100 100 100 100 100 100 100 100 100 98 100 100 100 94 84 100 100 30 6 100 69 11 13
100 100 100 100 100 96 6 55 99 89 85 96 100 79 10 51 24 97 81 100 100 100 100 100 100 100 100 100 100 100 100 100 100 100 100 100 100 100 76 100 99 100 95 95 100 67 65 5 5
100 100 100 100 35 32 90 5 5 0 88 94 100 46 48 5 61 82 99 100 100 100 100 100 100 100 100 100 100 100 100 100 100 100 100 100 100 100 100 100 100 100 100 100 90 59 23 5 4
100 100 100 96 14 98 66 14 10 4 2 91 100 96 100 84 100 97 83 100 100 100 100 100 100 100 100 100 100 100 100 100 100 100 100 100 100 100 100 100 100 100 100 76 44 30 5 3 4
100 100 100 28 81 100 31 88 36 95 10 50 94 100 91 100 100 100 88 62 100 100 100 100 100 100 100 100 100 100 100 100 100 100 100 100 100 100 100 100 86 86 75 68 5 5 0 0 0
100 91 100 93 100 96 68 18 46 35 100 100 84 100 87 65 73 100 67 99 100 100 100 100 100 100 100 100 100 100 100 100 100 100 100 100 100 98 100 99 66 58 14 41 5 10 5 1 3
100 100 94 100 100 100 57 96 100 96 100 100 100 100 100 97 29 5 69 82 55 100 96 100 100 100 100 100 100 100 100 100 100 100 100 100 91 100 78 40 51 79 99 8 17 27 30 52 8
100 100 98 100 100 100 100 100 100 90 99 100 100 100 100 95 84 8 100 100 100 92 19 46 54 90 100 100 100 100 100 100 100 100 100 100 100 96 92 100 100 78 100 51 73 47 49 28 97
100 100 100 100 100 97 100 100 100 100 36 26 31 18 100 86 70 17 97 100 100 34 100 100 100 100 100 100 100 100 100 100 100 100 100 100 81 95 100 100 100 100 99 100 100 100 100 100 100
100 100 100 100 100 100 100 100 100 97 100 62 99 100 100 100 98 84 94 100 55 97 99 78 98 77 100 100 100 100 100 100 100 100 100 100 100 100 100 100 100 100 100 100 100 100 62 27 98
100 100 100 100 100 100 100 100 100 99 89 78 99 69 100 100 100 100 100 100 100 100 99 100 80 73 91 81 99 94 64 92 98 100 100 100 100 100 100 100 100 100 100 100 93 38 84 36 2
100 100 100 100 100 100 100 100 100 96 66 100 100 100 100 100 100 100 100 100 90 99 100 89 55 93 56 49 98 85 50 29 66 100 100 100 100 100 100 100 92 74 100 93 30 2 1 2 4
100 100 100 100 100 82 100 100 100 50 40 100 85 93 100 100 100 100 100 100 95 94 97 100 100 100 72 95 48 94 100 73 59 88 100 97 78 73 34 6 7 1 0 0 0 0 0 0 0
100 100 100 99 99 100 100 100 94 100 100 97 100 100 100 80 71 28 24 38 16 5 30 17 100 100 89 93 55 64 98 89 21 7 0 0 0 0 0 0 0 0 0 0 0 0 1 0 0
100 100 100 100 99 100 100 100 86 66 78 74 74 68 64 42 5 13 27 5 8 73 85 85 96 99 91 73 12 7 5 2 0 0 0 0 1 3 5 3 5 5 5 4 1 2 4 1 1
100 100 100 100 100 83 100 87 64 76 32 5 4 3 5 5 5 5 13 37 100 100 96 76 63 52 20 52 5 0 0 0 0 0 0 1 5 5 5 4 1 4 0 0 0 3 4 5 5
100 100 100 94 36 29 7 97 68 4 3 4 5 5 4 4 5 6 59 94 46 7 5 6 5 5 5 3 0 0 69 99 6 5 5 5 5 5 5 5 5 1 3 0 3 5 4 5 5
100 99 99 100 15 100 40 2 97 100 5 6 5 3 12 70 52 5 4 0 5 5 5 5 5 2 0 0 0 0 2 5 5 5 5 5 6 89 12 5 2 0 0 4 5 5 5 5 11
100 100 99 28 99 58 26 87 100 89 95 52 6 4 1 0 0 0 0 1 5 5 5 5 0 0 0 0 0 0 5 5 22 85 73 70 17 5 41 5 0 0 0 5 5 5 10 7 42
100 96 64 62 100 17 86 21 84 100 49 4 0 0 0 0 0 0 0 0 5 5 5 5 4 0 0 0 3 5 7 5 39 100 17 5 5 31 3 3 2 0 3 5 5 21 84 63 100
8 93 30 100 86 100 65 3 3 0 0 0 0 0 0 0 0 0 0 0 0 5 5 5 5 4 1 0 5 5 6 87 100 100 16 5 5 5 5 5 2 5 89 98 87 30 42 69 100
83 5 4 32 43 1 0 16 20 0 0 0 5 0 0 0 0 0 0 0 0 5 5 5 2 5 5 5 10 100 100 100 100 63 10 5 5 5 5 5 5 93 100 92 58 95 82 73 97
5 8 3 0 0 3 84 47 29 0 0 0 0 0 0 0 2 5 5 5 5 5 5 5 5 7 28 74 24 32 91 98 100 30 5 5 5 5 5 8 98 95 100 59 24 54 85 94 100
4 0 0 1 9 4 0 10 0 0 0 0 0 1 0 3 5 5 5 5 5 5 5 5 39 30 22 92 17 97 92 99 34 67 30 5 37 10 5 38 99 100 58 76 85 98 94 84 100
0 5 4 0 0 0 0 1 0 5 3 0 5 1 5 8 5 6 5 5 5 5 82 99 19 66 100 98 64 70 100 100 100 59 9 68 44 5 5 95 100 97 74 6 84 97 98 85 99

GFSSGP_prec_cloud_018.txt.gz
Cloud_Cover
0 1 2 0 0 0 0 0 1 79 39 0 0 1 97 98 22 92 26 84 93 92 42 68 100 67 100 100 100 26 54 57 97 24 5 5 5 16 100 98 99 41 53 1 33 5 5 4 0
27 46 66 5 0 2 4 53 100 56 51 0 0 7 14 19 12 14 77 85 89 90 86 100 100 42 47 93 100 73 96 100 100 21 23 5 84 93 80 48 100 5 8 4 2 2 0 0 3
42 5 44 54 47 5 12 81 98 62 27 0 0 0 14 22 38 46 26 100 50 26 90 95 82 40 100 99 100 100 100 100 100 94 100 100 100 100 78 55 5 13 5 5 4 5 8 45 6
91 97 100 100 85 57 96 95 22 8 87 64 55 2 2 0 36 68 92 87 89 94 42 95 100 100 100 100 100 100 100 100 100 100 100 100 100 100 100 100 100 100 99 49 50 79 11 31 46
100 100 100 23 100 100 100 47 1 0 5 25 91 30 2 0 7 45 94 25 18 51 94 100 100 100 100 100 100 100 100 100 100 100 100 100 100 100 100 100 100 86 100 92 79 100 86 98 100
100 98 66 100 100 100 100 23 0 0 8 100 100 87 8 1 8 26 65 34 41 91 100 100 100 100 100 100 100 100 100 100 100 100 100 100 100 100 100 100 97 100 100 100 95 82 100 100 100
32 78 40 100 100 100 83 2 4 0 60 100 100 93 100 59 5 85 100 100 100 100 100 100 100 100 100 100 100 100 100 100 100 100 100 100 100 100 100 100 100 100 100 100 100 100 100 100 43
99 28 48 96 59 98 90 100 100 70 100 76 100 39 100 99 100 100 100 100 100 100 100 100 100 100 100 100 100 100 100 100 100 100 100 100 100 100 100 100 100 100 100 100 99 100 100 100 10
70 73 100 100 99 100 98 100 100 9 59 5 28 100 100 100 100 100 100 100 100 100 100 100 100 100 100 100 100 100 100 100 100 100 100 100 100 100 100 100 100 100 100 100 92 52 100 6 59
42 96 69 73 100 100 100 100 100 54 68 6 97 100 100 100 100 96 93 100 100 100 100 100 100 100 100 100 100 100 100 100 100 100 100 100 100 100 100 100 100 100 71 100 100 100 91 5 5
83 73 99 96 99 100 100 100 100 75 33 77 92 99 100 100 100 100 100 100 100 100 100 100 100 100 100 100 100 100 100 100 100 100 100 100 100 100 100 100 100 54 78 95 100 42 100 97 26
93 100 100 100 100 100 100 95 100 99 53 100 100 100 100 100 100 97 100 100 100 100 100 100 100 100 100 100 100 100 100 100 100 100 100 100 100 100 100 99 77 100 100 96 82 7 8 21 36
99 91 98 92 100 100 100 100 100 78 87 100 100 100 100 100 100 100 98 100 99 100 100 100 100 100 100 100 100 100 100 100 100 100 100 100 100 100 96 66 65 98 90 85 75 74 100 100 71
98 100 100 100 100 100 100 100 29 100 100 100 100 100 88 100 100 100 100 38 100 100 99 97 100 100 100 100 100 100 100 100 100 100 100 100 99 100 95 100 100 100 100 67 99 100 100 100 100
100 100 100 100 100 100 100 100 49 96 84 92 100 100 100 100 100 100 92 100 24 40 100 100 99 100 100 100 100 100 100 100 100 100 100 100 100 100 100 95 100 100 98 92 67 100 100 100 98
100 100 100 100 100 100 100 100 7 21 14 10 40 99 100 100 100 26 8 27 5 51 100 100 100 100 86 93 100 100 100 100 100 100 100 95 57 62 100 85 78 68 42 100 100 100 97 96 95
100 100 100 100 100 100 100 98 100 63 100 100 97 88 68 7 27 40 78 44 92 100 83 92 100 100 87 74 86 100 58 98 92 73 100 100 57 7 32 88 76 55 34 6 0 0 0 0 0
100 100 100 100 34 85 96 100 100 90 100 100 10 8 32 99 65 71 89 100 100 100 100 100 100 98 100 100 85 49 68 90 67 35 8 5 5 5 4 1 0 0 0 0 0 0 0 0 0
100 100 100 100 76 100 100 100 100 81 100 100 58 76 59 83 54 100 96 99 100 100 80 47 60 88 46 5 5 35 5 5 5 5 4 2 0 0 0 0 0 0 0 0 5 0 0 0 0
100 100 100 100 81 84 96 76 100 100 99 100 37 56 72 7 10 5 5 5 5 5 6 64 69 15 17 6 77 5 5 2 0 0 0 0 0 0 0 0 0 3 5 5 1 0 0 0 0
100 100 97 82 99 100 100 100 98 90 36 49 62 47 5 8 2 1 2 5 14 69 11 22 6 6 5 75 4 10 6 0 0 0 0 0 0 0 3 4 0 5 2 0 0 0 0 1 1
100 80 79 100 96 99 92 100 100 97 88 59 3 1 0 48 5 5 4 2 100 70 55 5 5 59 63 7 0 0 0 0 0 26 0 4 5 35 49 4 1 0 0 4 0 0 0 0 2
96 96 20 100 78 100 100 51 91 96 100 99 5 5 5 0 1 5 41 85 100 71 92 82 39 3 3 0 0 0 0 0 0 0 5 5 100 95 15 4 2 0 0 0 0 1 5 8 5
76 37 59 68 100 100 99 96 94 53 100 100 96 30 9 15 7 18 9 30 20 11 4 0 0 3 0 1 0 0 0 1 4 7 14 19 89 79 96 15 3 5 5 5 0 5 5 5 5
64 96 69 100 100 99 81 100 99 94 88 100 100 100 25 0 7 0 0 0 0 0 0 0 0 0 3 5 0 4 11 5 5 12 79 70 99 100 42 5 5 5 5 5 5 7 24 15 5
85 96 100 100 100 100 16 92 92 58 60 49 100 28 0 0 0 0 0 0 0 0 0 0 0 5 5 5 13 42 8 5 5 39 71 45 57 73 11 5 5 5 40 19 32 73 29 8 5
14 100 84 92 93 60 48 66 20 5 4 3 3 0 0 0 0 0 0 0 0 0 0 0 0 0 19 100 87 10 11 10 70 85 82 26 100 78 7 5 5 24 5 6 5 9 45 14 21
13 42 5 5 5 17 93 34 99 35 19 0 0 0 0 0 0 0 0 0 0 0 4 2 1 5 94 100 5 50 80 97 100 100 80 100 98 8 5 5 54 61 84 58 93 100 99 81 74
8 5 5 5 61 22 2 6 4 0 0 0 0 3 1 0 0 0 0 0 0 3 4 3 5 20 100 100 5 28 92 81 100 98 98 94 6 5 13 45 6 99 100 100 99 15 5 5 15
7 78 20 6 1 0 0 0 0 0 0 0 0 0 0 0 0 0 0 3 5 5 5 5 5 100 88 5 23 78 100 100 97 99 77 5 5 29 39 10 5 100 100 99 92 8 6 51 73

GFSSGP_prec_cloud_021.txt.gz
Cloud_Cover
2 95 4 0 0 1 2 4 5 0 0 0 3 5 27 3 82 5 98 65 5 23 100 100 98 59 87 67 98 92 76 46 100 97 78 100 100 99 100 98 33 23 13 57 14 5 98 2 0
32 76 83 5 1 0 3 48 5 2 0 0 31 81 1 26 2 17 95 95 48 59 85 100 100 76 100 94 100 100 100 90 100 97 92 100 100 100 100 100 75 100 100 87 64 5 2 0 2
100 61 98 26 0 3 87 7 5 2 0 0 8 91 10 24 0 77 82 69 77 21 29 100 100 100 93 100 100 100 100 71 100 97 100 100 100 100 100 100 100 100 100 91 53 5 78 42 100
100 8 100 100 70 99 94 7 5 4 0 2 3 0 0 43 18 10 94 100 77 44 92 100 99 100 95 100 100 100 100 100 100 100 100 100 100 100 100 100 100 100 100 100 52 89 100 100 75
35 100 14 100 100 100 100 97 88 18 1 50 56 0 21 1 5 14 57 100 95 100 100 100 100 100 100 100 100 100 100 100 100 100 100 100 100 100 100 100 100 99 100 100 100 99 56 88 100
100 79 100 100 100 100 96 51 84 5 4 2 5 12 30 7 52 64 98 100 100 100 100 100 100 100 100 100 100 100 100 100 100 100 100 100 100 100 100 100 100 100 100 100 99 71 100 100 100
100 99 100 100 100 100 87 98 21 23 11 1 1 31 43 98 96 98 100 100 100 100 100 100 100 100 100 100 100 100 100 100 100 100 100 100 100 100 100 100 100 100 38 81 100 99 100 100 100
100 100 100 100 100 41 93 100 100 100 98 2 4 5 44 100 100 100 100 97 100 100 100 100 100 100 100 100 100 100 100 100 100 100 100 100 100 100 100 100 100 100 100 100 100 100 100 100 100
100 100 100 93 100 79 77 100 100 100 100 6 3 7 78 100 100 100 100 97 100 100 100 100 100 100 100 100 100 100 100 100 100 100 100 100 100 100 100 100 100 100 100 100 100 98 100 100 100
100 100 74 73 72 100 100 100 100 91 92 7 100 100 100 100 100 100 100 100 100 100 100 100 100 100 100 100 100 100 100 100 100 100 100 100 100 100 100 100 100 100 100 100 100 86 78 92 92
100 100 100 59 100 100 100 100 100 87 5 54 100 100 100 100 100 100 100 100 100 100 100 100 100 100 100 100 100 100 100 100 100 100 100 100 100 100 100 100 100 100 100 100 100 100 100 100 93
100 100 91 70 100 100 100 100 100 53 52 29 100 100 100 100 100 100 100 100 100 100 100 100 100 100 100 100 100 100 100 100 100 100 100 100 100 100 100 100 100 100 100 100 100 100 100 91 94
100 100 89 100 100 100 100 100 70 100 14 44 100 100 100 100 100 100 100 100 100 100 100 100 100 100 100 100 100 100 100 100 100 100 100 100 100 100 100 100 100 100 100 100 100 100 100 75 84
100 100 89 100 100 100 100 100 100 100 87 57 100 100 100 100 100 100 100 100 100 100 100 100 100 100 100 100 100 100 100 100 100 100 100 100 100 100 100 100 100 100 100 100 94 97 34 6 10
82 99 100 100 100 100 100 100 100 100 91 95 78 100 100 100 100 100 100 85 100 100 100 100 100 100 100 100 100 100 100 100 100 100 100 100 100 100 100 100 99 100 100 8 5 0 1 2 14
100 100 100 100 100 41 81 100 100 90 81 63 80 100 100 100 100 100 93 70 90 73 100 98 100 100 100 100 100 100 100 100 100 100 100 100 100 100 100 100 100 92 23 5 5 5 0 0 0
100 100 100 100 100 93 46 88 100 89 98 100 100 100 100 100 100 100 100 100 100 100 91 99 86 100 100 52 100 100 100 100 100 100 99 84 80 94 94 26 26 5 5 5 3 0 0 0 0
100 100 100 100 100 100 79 98 100 98 100 100 100 100 97 100 100 100 100 100 100 100 71 47 10 5 99 100 92 100 68 41 100 96 66 88 85 62 38 29 10 5 1 0 0 0 0 0 0
100 100 100 100 79 100 88 90 94 92 100 100 100 100 100 100 64 9 17 41 97 27 5 77 100 100 100 68 40 88 59 5 5 23 5 6 6 5 5 0 0 0 2 0 0 0 0 0 0
100 98 100 100 90 13 100 100 100 99 99 100 100 100 100 100 100 58 5 5 5 59 5 14 53 100 41 5 74 60 5 5 5 22 5 4 0 0 0 5 5 5 5 1 0 0 0 0 0
100 66 100 100 100 92 46 100 100 64 100 75 100 100 81 77 19 5 5 5 5 20 3 38 46 86 25 5 5 10 5 25 2 0 0 0 0 2 5 5 43 5 63 4 0 0 0 0 0
75 99 90 62 66 95 22 76 81 100 100 100 49 95 25 6 6 5 2 0 4 8 22 5 5 5 35 24 23 2 0 0 0 0 0 0 1 5 5 5 21 80 36 4 0 0 0 0 0
98 82 100 100 97 99 46 97 100 100 95 99 47 11 18 9 0 3 5 1 0 4 18 5 5 2 1 0 5 0 0 0 0 0 0 0 5 16 5 5 5 5 5 0 0 0 0 3 5
88 91 82 96 99 100 73 70 100 90 16 49 79 90 11 5 40 5 5 5 3 100 100 60 43 38 1 4 4 5 5 2 3 1 5 8 80 10 10 5 14 60 5 5 2 1 5 5 5
100 92 80 83 94 95 70 100 100 94 75 37 90 100 69 62 15 5 0 27 5 29 100 100 66 0 0 3 4 5 5 5 17 54 55 67 85 16 5 5 31 5 5 5 5 5 5 5 5
83 83 96 89 100 100 87 83 53 22 78 7 100 100 75 65 68 54 0 0 0 0 25 85 8 0 3 5 12 73 80 73 100 100 100 75 32 5 5 42 39 5 0 5 5 5 5 5 5
100 61 96 100 100 100 100 97 5 4 5 4 50 100 97 6 91 44 0 0 0 0 0 0 0 0 2 2 90 100 100 100 100 100 91 58 64 65 5 5 5 5 5 2 5 5 5 5 5
100 98 76 44 99 100 90 39 5 10 33 22 4 4 70 100 70 0 0 0 0 0 0 0 0 0 4 5 95 90 100 99 100 98 91 100 77 100 5 56 5 5 25 36 9 5 5 8 66
50 29 16 3 5 32 20 24 6 5 2 0 0 0 0 0 0 0 0 0 0 0 0 0 0 2 3 80 33 17 82 98 84 89 81 73 100 84 73 50 14 92 100 84 66 5 17 58 74
48 27 94 5 5 6 5 37 20 0 0 0 0 0 0 0 0 0 0 0 0 0 0 0 0 92 100 70 5 94 8 80 100 100 98 100 94 91 60 31 73 40 100 100 100 81 56 79 100

GFSSGP_prec_cloud_024.txt.gz
Cloud_Cover
0 0 3 5 2 0 0 0 0 5 0 0 0 0 2 38 22 66 81 52 55 100 97 13 76 58 97 100 100 100 93 66 100 99 100 100 100 98 100 100 99 100 100 100 91 5 12 58 8
2 0 1 98 7 1 7 16 5 0 0 0 0 0 35 88 56 100 100 62 50 98 41 62 58 81 100 100 100 100 100 100 100 100 100 100 100 100 100 100 100 92 100 98 13 5 100 100 29
6 35 4 51 98 87 86 95 5 2 5 5 0 2 4 80 91 92 90 82 72 96 35 81 5 84 85 100 100 100 100 100 100 98 100 100 100 100 100 100 100 100 100 52 76 100 100 100 98
100 100 80 63 100 100 100 49 0 28 5 5 0 2 5 19 19 22 58 67 23 66 41 69 38 17 100 100 100 95 100 100 100 100 100 100 100 100 100 100 100 100 89 100 100 100 100 100 37
100 38 96 87 100 100 86 5 5 90 89 78 30 5 23 100 7 34 74 100 100 100 100 100 100 100 100 100 100 100 100 100 100 100 100 100 100 100 100 93 100 100 80 100 100 100 100 100 100
94 9 100 100 100 50 32 13 3 58 100 96 100 97 98 100 74 93 100 100 100 100 100 100 100 100 100 100 100 100 100 100 100 100 100 100 100 100 100 100 100 100 100 100 100 100 79 50 100
100 100 100 100 61 98 100 54 100 49 89 100 92 6 100 100 100 100 100 100 100 100 100 100 100 100 100 100 100 100 100 100 100 100 100 100 100 100 100 100 100 100 100 89 100 100 100 100 100
100 94 100 100 8 71 25 45 7 97 100 100 24 0 100 100 100 99 100 100 100 100 100 100 100 100 100 100 100 100 100 100 100 100 100 99 79 100 100 100 100 100 100 100 100 100 100 80 92
100 100 100 98 40 55 8 38 100 100 60 74 76 13 97 100 90 100 100 100 100 100 100 100 100 100 100 100 100 100 100 100 100 100 100 100 100 100 100 100 100 100 100 100 100 100 100 100 100
100 100 100 47 79 100 86 92 100 100 84 87 100 100 100 100 100 100 100 100 100 100 100 100 100 100 100 100 100 100 100 100 100 100 100 100 100 100 100 100 100 100 100 100 100 100 100 100 100
100 100 100 40 58 60 100 100 100 11 100 100 90 100 100 100 100 100 100 100 100 100 100 100 100 100 100 100 100 100 100 100 100 100 100 100 100 100 100 100 100 100 100 100 100 100 100 100 100
100 98 84 63 99 100 100 100 100 100 100 100 100 100 100 100 100 100 100 100 100 100 100 100 100 100 100 100 100 100 100 100 100 100 100 100 100 100 100 100 100 100 100 99 65 77 20 91 100
100 79 98 100 100 100 100 100 99 72 72 100 100 100 100 100 100 100 100 100 100 100 100 100 100 100 100 100 100 100 100 100 100 100 100 100 100 100 100 100 100 100 100 100 100 100 100 100 100
51 81 100 100 100 100 100 100 95 76 99 100 100 100 100 100 100 100 100 100 100 100 100 100 100 100 100 100 100 100 100 100 100 100 100 100 100 100 100 100 100 96 100 100 100 100 100 100 100
99 91 100 100 100 100 100 100 90 100 100 100 100 100 100 100 100 100 100 100 100 100 100 100 100 100 100 100 100 100 100 100 100 100 100 100 100 100 100 100 100 100 100 100 100 100 100 100 14
100 100 100 100 100 100 59 6 48 100 100 100 100 100 100 100 100 100 100 100 100 100 100 100 100 100 100 100 100 100 100 100 100 100 100 100 100 100 100 100 100 100 100 100 93 80 5 5 5
100 100 100 100 100 100 100 100 100 99 15 73 100 100 100 100 100 100 100 100 100 100 100 100 100 100 100 100 100 100 100 100 100 100 100 100 100 100 100 100 100 96 77 15 33 9 5 5 2
91 100 100 100 100 100 100 100 100 100 98 64 22 98 100 100 100 100 100 100 100 100 100 100 100 100 100 100 100 98 48 62 100 100 100 100 92 72 92 91 35 18 5 5 5 4 5 5 0
100 32 99 100 96 100 100 100 100 100 100 100 79 100 100 100 100 100 100 100 93 76 8 6 5 5 5 5 5 23 100 100 92 82 78 76 75 61 22 5 5 59 5 5 5 5 61 6 1
85 50 100 100 100 88 98 100 100 100 100 100 69 100 90 91 71 95 100 9 5 5 8 33 41 29 5 7 35 80 54 33 87 81 6 5 5 5 5 5 5 5 5 5 5 46 15 1 0
31 100 100 100 99 71 54 100 97 100 100 100 100 80 29 54 56 30 67 65 90 38 12 75 84 72 44 9 5 5 6 5 5 5 5 4 2 4 3 5 5 5 4 2 5 5 5 0 0
100 100 97 80 100 100 100 24 33 97 95 100 100 100 100 100 98 100 95 20 5 5 29 100 39 100 64 14 5 5 5 5 5 5 0 0 0 5 5 5 5 5 0 4 5 5 0 0 0
82 100 91 100 100 78 38 45 20 78 94 71 96 100 99 97 19 14 5 4 0 7 5 23 34 48 69 5 5 5 87 11 5 5 5 5 5 5 5 5 5 5 5 4 5 0 0 0 2
13 34 66 98 100 20 17 48 11 69 100 42 100 100 98 56 76 38 0 0 41 5 94 64 6 48 0 0 5 55 91 22 5 12 38 77 82 64 86 85 40 5 15 0 1 0 0 0 2
97 99 96 78 92 80 80 67 76 89 29 5 85 39 6 56 98 34 4 3 13 29 38 4 6 6 39 29 4 70 57 7 66 92 98 91 34 83 86 99 100 82 83 5 29 5 3 12 6
36 100 100 89 16 5 18 56 100 96 72 60 65 0 1 5 14 100 81 24 0 48 8 5 0 100 0 4 12 68 94 77 87 79 95 97 100 100 94 100 52 97 5 5 45 5 5 5 5
90 41 5 45 9 5 24 5 96 31 15 26 4 4 1 0 5 28 21 0 62 5 0 3 1 100 95 90 100 100 100 100 100 100 96 100 100 100 99 64 35 95 52 8 5 5 5 5 14
95 28 72 73 100 5 11 6 53 70 21 8 3 0 0 0 1 5 2 2 5 0 0 0 0 4 73 71 44 96 100 100 100 96 100 100 100 98 72 89 78 83 6 99 60 61 34 5 17
77 83 18 88 44 5 10 9 49 100 5 5 5 5 0 0 0 0 3 5 0 0 0 0 4 5 5 4 27 76 100 100 100 100 100 99 89 86 100 46 85 51 90 100 50 70 60 92 100
43 68 12 6 1 8 34 0 0 3 5 54 0 0 0 0 0 2 5 5 3 0 0 5 5 2 0 5 13 40 5 10 74 92 77 93 75 83 99 84 85 5 72 100 99 65 10 26 17

GFSSGP_prec_cloud_030.txt.gz
Cloud_Cover
0 0 0 0 0 0 38 80 5 3 1 43 85 7 44 100 21 53 90 77 83 85 99 98 5 5 5 5 49 65 32 100 97 99 58 86 65 20 69 5 12 5 12 5 5 5 5 5 54
0 0 0 4 5 17 1 33 92 5 5 9 88 100 100 97 46 100 100 88 93 78 83 81 5 4 3 5 5 90 98 96 100 88 95 53 26 16 46 6 78 57 5 6 12 11 5 5 5
0 0 0 100 6 100 92 9 5 24 2 0 3 6 26 80 48 100 100 79 100 100 38 5 3 3 5 5 16 100 100 100 97 97 98 99 29 27 13 89 99 95 6 15 47 11 5 5 64
0 0 8 100 100 100 100 95 99 5 4 5 0 53 52 100 100 100 45 80 98 94 23 5 8 53 98 98 84 100 100 100 94 100 95 81 97 99 91 100 99 99 73 91 58 40 38 10 11
0 0 0 100 100 69 56 87 23 28 2 3 5 64 38 100 100 100 89 85 94 93 84 92 45 95 100 100 100 95 100 94 100 99 97 100 99 83 99 100 94 100 82 14 23 5 22 70 22
0 0 0 77 100 100 60 100 100 62 5 5 47 10 94 100 100 100 100 100 100 100 100 100 100 100 100 100 100 100 100 100 100 100 100 100 98 100 100 100 53 79 68 9 13 5 20 5 4
0 0 0 55 100 100 69 87 100 32 5 29 8 81 100 100 100 100 100 100 100 100 100 100 100 100 100 100 100 100 100 100 100 100 100 100 100 100 100 95 96 97 49 5 5 5 4 4 6
0 0 2 5 98 100 94 97 100 100 56 99 65 19 96 100 99 100 76 100 100 100 100 100 100 100 100 100 100 100 100 100 100 100 100 100 100 96 100 100 100 100 58 82 5 0 5 5 5
0 6 79 70 100 64 100 100 100 100 100 100 70 100 90 100 69 94 100 100 100 100 100 100 100 100 100 100 100 100 100 100 100 100 100 100 100 90 98 95 97 96 95 100 55 5 6 76 100
0 99 98 100 100 100 100 100 100 100 100 100 100 100 100 100 100 100 100 100 100 100 100 100 100 100 100 100 100 100 100 100 100 100 100 100 100 99 100 53 100 100 54 97 99 100 100 50 21
4 100 100 100 100 100 100 100 100 100 100 100 100 100 100 100 100 100 100 100 100 100 100 100 100 100 100 100 100 100 100 100 100 100 100 100 100 100 99 100 100 98 100 100 100 100 98 100 100
65 100 100 100 100 84 100 100 100 100 100 100 100 100 100 100 100 100 100 100 100 100 100 100 100 100 100 100 100 100 100 100 100 100 100 100 100 100 100 100 100 100 100 98 100 100 100 100 100
61 98 99 96 100 100 100 100 100 100 100 100 100 98 98 100 100 100 100 100 100 100 100 100 100 100 100 100 100 100 100 100 100 100 100 100 100 100 88 100 100 100 67 52 84 32 28 100 63
92 100 57 100 100 100 100 100 100 100 100 100 100 99 100 100 100 100 100 100 100 100 100 100 100 100 100 100 100 100 100 100 100 100 97 100 100 100 100 100 100 100 100 67 95 100 100 98 100
100 100 100 100 100 100 100 100 100 100 100 100 100 100 100 100 100 100 100 100 100 100 100 100 100 100 100 100 100 100 100 100 100 100 100 100 98 100 100 98 25 99 100 100 100 100 100 100 100
55 100 99 100 100 100 100 100 100 100 100 100 100 100 100 100 100 100 100 100 100 100 100 100 100 100 100 100 100 100 100 100 100 100 100 100 100 99 9 100 100 100 98 100 100 92 74 36 24
97 100 98 100 96 99 98 100 100 100 100 100 100 100 100 100 100 100 100 100 100 100 100 100 100 100 100 100 100 100 100 100 100 100 100 100 100 100 100 100 100 100 100 100 100 61 91 25 9
98 85 57 84 56 99 64 93 100 100 100 100 100 100 100 100 100 100 83 100 100 100 100 100 100 100 100 100 100 100 100 100 100 100 100 99 100 100 100 100 100 100 100 100 83 49 48 4 0
100 100 100 100 100 88 84 100 100 100 100 100 100 100 100 100 100 100 100 100 100 100 100 100 100 100 100 100 100 100 100 86 36 64 100 100 100 100 100 100 100 100 77 46 30 5 0 0 0
60 100 73 100 100 37 94 100 100 100 100 100 100 100 100 100 100 100 100 100 88 91 94 64 10 61 43 18 32 43 59 100 100 100 100 99 100 98 19 8 5 5 42 4 2 1 3 5 5
18 89 100 100 100 58 49 100 100 100 100 100 100 100 100 100 100 100 100 100 100 100 100 100 86 84 100 100 100 100 100 91 96 71 53 7 11 12 12 12 5 5 5 5 5 60 94 48 7
100 48 99 100 99 99 19 73 100 82 100 100 100 100 100 100 100 100 100 100 100 100 100 100 100 100 100 100 100 98 100 100 99 100 71 13 6 49 33 5 5 32 31 10 57 100 43 68 74
8 5 77 100 100 100 96 75 8 5 77 86 100 100 100 100 98 100 100 100 100 100 100 100 100 100 100 100 100 100 100 100 100 98 15 18 59 5 46 85 66 88 89 97 100 93 97 6 76
17 6 11 75 100 94 100 100 58 5 5 20 34 36 58 41 34 5 8 83 16 90 100 100 100 100 83 100 100 100 78 67 91 84 30 35 89 6 87 7 15 72 99 100 96 67 67 21 28
87 11 23 57 100 100 100 100 21 52 34 11 9 5 9 5 5 5 5 5 24 16 32 45 97 100 100 88 100 100 70 98 100 79 58 5 48 84 71 87 99 97 81 100 88 54 26 5 5
8 6 5 8 80 57 94 100 100 100 19 32 5 5 5 21 8 5 5 34 15 5 10 24 81 100 100 100 100 100 71 100 98 100 6 60 99 70 83 100 100 98 100 71 5 32 8 64 46
5 5 5 6 5 5 5 14 64 100 100 63 16 6 9 5 5 5 5 5 5 5 9 38 82 100 100 100 84 76 100 42 24 51 4 10 94 100 15 85 99 100 100 100 84 68 99 93 5
5 3 69 70 5 6 5 5 19 92 100 100 100 100 100 88 5 5 1 0 2 8 90 100 100 61 6 6 5 3 4 0 20 28 98 99 58 64 98 96 100 100 100 99 72 98 61 5 4
6 5 5 5 57 34 59 92 7 9 26 90 100 100 99 44 5 5 4 5 5 5 7 6 1 0 0 0 0 0 2 5 35 71 63 63 100 100 100 100 100 100 97 81 84 93 25 5 32
5 91 43 5 31 28 35 100 91 12 16 92 27 11 36 7 5 6 51 84 60 5 0 0 1 1 2 2 5 5 57 6 5 29 82 94 100 100 100 100 100 100 100 94 100 82 75 92 82

GFSSGP_prec_cloud_033.txt.gz
Cloud_Cover
0 0 0 0 0 0 1 5 0 1 0 5 0 0 99 100 98 97 100 100 98 88 60 5 5 4 5 5 5 5 5 86 12 100 31 5 48 80 38 45 27 11 5 5 0 4 0 0 0
0 0 0 0 0 0 49 0 25 5 3 1 1 20 38 82 58 100 100 100 100 96 66 19 5 5 5 0 5 47 97 98 12 71 22 5 5 48 5 7 61 7 12 5 10 35 20 1 5
0 0 0 0 0 23 82 6 98 100 36 4 0 86 73 91 82 100 100 100 100 87 58 22 68 49 5 13 78 100 100 94 94 33 5 15 43 62 6 15 47 29 94 77 16 5 5 31 27
0 0 0 0 0 67 98 100 100 100 100 23 17 37 60 100 100 100 100 100 100 100 61 19 5 20 98 100 100 100 100 90 100 75 5 93 51 62 98 98 34 46 6 13 5 5 6 5 5
0 0 0 0 0 99 47 53 100 100 100 40 0 88 87 100 100 95 100 82 100 69 61 57 62 98 100 100 100 98 82 100 88 99 100 94 90 100 91 42 5 57 66 88 14 6 5 4 4
0 0 0 0 2 99 100 83 100 98 100 100 4 9 94 100 100 100 100 100 100 100 96 100 100 100 100 100 100 99 100 100 92 93 100 92 90 100 94 5 5 5 5 1 4 5 5 5 1
0 0 0 0 5 74 88 90 100 100 100 100 92 35 100 100 100 100 100 100 100 100 100 100 100 100 100 100 100 100 100 100 100 100 94 100 100 98 58 5 9 5 5 4 5 5 0 0 0
0 0 2 6 17 59 93 100 100 100 100 100 99 85 99 100 100 100 100 100 100 100 100 100 100 100 100 100 100 100 100 100 100 95 100 100 100 100 98 55 32 5 5 5 0 0 0 0 0
0 16 22 98 100 94 100 100 100 100 100 92 97 55 97 100 100 100 100 100 100 100 100 100 100 100 100 100 100 100 100 100 100 100 100 96 98 100 100 69 94 6 2 1 63 21 10 76 100
0 100 91 95 100 100 100 94 100 100 100 100 100 100 100 100 98 100 100 100 100 100 100 100 100 100 100 100 100 100 100 100 100 100 100 100 100 100 94 52 5 5 5 6 32 98 100 100 100
5 76 78 57 100 100 100 100 100 100 100 85 100 100 100 100 100 100 100 100 100 100 100 100 100 100 100 100 100 100 100 100 100 100 100 100 100 91 46 94 89 41 100 100 88 100 100 100 100
4 49 93 100 100 100 100 100 88 100 100 100 100 100 100 100 99 100 100 100 100 100 100 100 100 100 100 100 100 100 100 100 100 100 100 100 99 100 58 100 100 100 100 100 100 100 100 57 12
0 6 56 100 100 100 100 100 52 85 96 95 100 100 100 100 100 100 100 100 100 100 100 100 100 100 100 100 100 100 100 100 100 100 74 100 100 99 96 100 91 100 100 100 68 40 5 5 52
5 12 100 100 100 100 100 100 100 100 100 100 100 100 100 100 100 100 100 100 100 100 100 100 100 100 100 100 100 100 100 100 100 100 100 100 100 99 100 100 100 100 100 76 42 54 5 5 22
8 93 100 100 100 100 100 100 100 100 100 100 100 100 100 100 100 100 100 100 100 100 100 100 100 100 100 100 100 100 100 100 100 100 100 100 100 100 100 100 100 71 100 98 86 97 0 98 100
80 100 100 100 100 100 93 98 100 100 100 100 100 100 100 100 100 100 100 95 100 100 100 100 100 100 100 100 100 100 100 100 100 100 100 100 100 100 100 100 100 100 100 100 82 1 100 100 83
63 56 39 100 100 100 99 96 99 100 100 100 100 100 100 100 100 100 100 100 100 100 100 100 100 100 100 100 100 100 100 100 100 100 100 100 100 100 100 100 100 100 100 9 41 100 82 28 27
87 98 24 100 93 100 100 100 100 100 100 100 100 100 100 100 100 100 100 100 100 100 100 100 100 100 100 100 100 100 100 100 100 100 100 99 100 100 100 100 100 100 11 89 85 93 73 26 24
18 99 34 16 97 100 100 100 100 100 100 100 100 100 100 100 100 100 100 100 100 100 100 100 100 100 100 100 100 100 100 100 100 100 100 100 100 100 100 100 13 100 100 93 30 57 55 5 2
4 84 97 100 100 94 73 100 100 100 100 100 100 100 100 100 100 88 100 97 100 100 100 100 100 100 100 98 100 100 100 100 100 100 100 100 100 100 100 44 85 83 91 71 5 5 5 5 5
0 6 84 58 100 100 100 100 100 100 100 100 100 100 100 100 99 100 100 95 100 100 89 97 97 100 100 100 100 100 100 100 100 100 100 67 48 27 26 12 38 37 6 7 6 90 96 77 12
4 4 14 80 100 100 100 100 100 100 99 100 100 100 100 100 78 98 100 100 95 91 80 9 31 96 33 19 72 100 93 74 76 98 100 99 100 47 86 75 5 5 6 7 71 62 82 60 79
60 10 73 98 100 100 100 100 100 98 38 97 100 100 100 100 100 100 100 100 100 100 100 100 100 100 88 100 100 96 71 44 26 97 91 100 63 57 77 75 5 36 84 59 69 88 95 100 100
86 5 5 98 100 100 100 100 100 37 75 68 100 100 100 100 100 100 100 100 100 100 91 100 95 92 97 100 92 100 100 100 92 81 100 100 97 85 91 31 70 96 80 41 98 98 100 6 12
5 5 5 15 93 100 90 93 14 99 99 57 28 59 100 90 31 24 67 99 100 100 95 100 100 100 100 100 100 100 100 100 100 100 100 100 100 66 72 58 12 37 89 48 48 63 22 5 5
1 4 5 5 12 47 100 100 100 13 80 32 56 98 92 50 31 4 3 5 82 100 80 98 100 94 100 100 100 100 100 100 100 100 100 100 99 33 29 56 97 89 97 100 48 99 5 5 5
2 6 4 5 6 99 100 100 100 100 91 17 40 65 83 17 12 5 5 5 5 5 5 31 25 62 100 100 100 100 100 100 100 85 37 97 76 91 99 95 99 66 33 96 99 25 15 5 9
5 5 3 2 40 100 100 100 100 80 100 100 96 76 32 6 54 44 23 14 5 5 21 5 6 5 30 100 100 100 100 100 82 100 99 30 100 93 82 71 90 96 86 25 89 88 17 81 96
5 5 5 4 5 5 30 100 100 96 100 96 100 100 100 84 99 96 19 5 2 0 0 5 5 36 97 99 56 44 35 41 86 98 87 99 90 74 73 98 88 72 100 98 70 74 99 100 82
5 2 4 3 13 9 100 100 6 68 100 100 100 97 60 6 9 5 5 4 1 5 14 20 50 51 20 97 100 100 100 100 100 100 90 100 77 62 62 100 100 100 80 99 92 100 100 97 100

GFSSGP_prec_cloud_036.txt.gz
Cloud_Cover
0 0 0 0 0 0 0 0 0 0 4 2 5 5 92 100 100 96 93 99 100 100 57 5 71 98 55 5 5 5 5 5 5 5 13 89 14 5 5 22 5 2 0 0 0 0 0 0 2
0 0 0 0 0 0 1 0 0 1 21 27 4 5 13 46 29 50 100 100 100 100 88 99 76 30 28 5 4 5 5 5 5 5 87 60 5 73 5 5 5 5 2 5 2 3 2 0 0
0 0 0 0 0 0 30 0 0 0 5 94 20 8 9 97 63 24 99 92 100 100 100 100 100 100 76 5 5 71 69 25 5 5 87 5 32 93 55 5 5 5 5 5 5 4 4 0 0
0 0 0 0 0 0 0 0 8 15 100 100 29 15 40 100 100 86 100 98 100 100 100 100 100 10 14 100 49 100 75 98 5 97 26 5 66 100 95 96 5 5 7 60 6 5 5 3 2
0 0 0 0 0 0 2 9 69 15 100 100 54 75 89 100 100 100 100 100 100 94 100 100 90 100 94 100 100 100 20 99 7 93 100 97 90 100 67 92 40 40 45 14 5 5 4 0 0
0 0 0 0 0 4 4 85 6 100 97 72 79 19 93 100 99 100 100 100 100 100 98 100 100 100 100 100 100 100 100 52 100 100 100 100 100 99 100 84 23 43 5 5 4 3 2 3 0
0 0 0 0 81 5 71 100 9 17 98 100 82 56 90 100 100 100 100 100 100 98 100 100 100 100 100 100 100 100 100 100 100 100 100 100 100 95 38 52 16 5 5 30 20 13 5 0 0
0 0 0 1 92 98 97 30 100 97 97 42 52 99 88 100 100 100 100 100 100 100 100 100 100 100 100 100 100 100 100 100 100 100 100 100 100 87 80 84 53 5 29 80 99 6 0 0 0
0 1 5 33 67 52 23 100 100 100 73 100 71 100 98 100 100 100 100 100 100 100 100 100 100 100 100 100 100 100 100 100 100 100 100 100 80 96 100 100 78 31 77 32 18 0 5 15 94
0 4 5 5 16 32 99 100 100 100 100 100 100 100 100 100 100 100 100 100 100 100 100 100 100 100 100 100 100 100 100 100 100 100 100 100 90 100 100 100 100 91 86 5 5 7 100 74 73
0 54 5 3 80 89 100 100 100 100 100 100 100 100 100 100 100 100 100 100 100 100 100 100 100 100 100 100 100 100 100 100 100 100 100 100 100 100 100 100 100 97 96 88 99 100 84 90 93
0 5 3 6 100 57 100 22 60 100 100 100 100 100 100 100 100 94 100 100 100 100 100 100 100 100 100 100 100 100 100 100 100 100 100 100 100 100 100 100 98 100 100 30 99 15 99 100 93
0 5 40 82 78 53 71 75 87 100 100 100 100 100 100 100 90 100 100 100 100 100 100 100 100 100 100 100 100 100 100 100 100 100 100 100 100 100 100 81 77 100 46 100 81 88 100 82 99
1 0 16 5 99 97 100 100 19 74 100 100 100 100 100 95 100 100 100 100 100 100 100 100 100 100 100 100 100 100 100 100 100 100 100 100 100 100 100 41 100 100 100 100 100 100 100 100 44
5 6 11 48 97 100 94 100 100 100 100 100 99 100 100 100 100 100 100 100 100 100 100 100 100 100 100 100 100 100 100 100 100 100 100 100 100 100 95 100 100 100 100 100 100 100 100 6 99
5 32 100 100 76 86 69 92 99 100 100 100 100 100 100 100 100 100 100 100 100 100 100 100 100 100 100 100 100 100 100 100 100 100 100 100 100 33 100 100 100 77 100 100 93 98 19 17 98
8 100 98 61 100 92 39 96 87 97 100 100 100 100 100 100 100 100 100 89 97 100 100 100 100 100 100 100 100 100 100 79 100 100 100 100 100 100 100 100 100 100 100 100 99 100 100 100 72
100 100 99 100 24 61 99 63 63 100 100 100 100 100 100 100 100 100 100 100 100 100 100 100 100 100 100 100 100 100 100 100 100 100 100 100 100 100 100 100 100 97 100 92 100 96 100 77 5
1 8 98 76 5 100 100 100 96 100 100 100 100 100 100 100 100 100 100 100 100 100 100 100 100 100 100 100 100 100 100 100 100 100 100 100 100 100 100 100 100 100 100 100 100 76 53 5 5
0 3 56 79 73 88 100 88 82 82 100 100 100 100 100 100 64 100 100 100 100 100 100 100 100 100 100 100 100 100 100 100 100 99 100 100 100 100 100 93 100 79 100 97 57 5 5 5 5
0 6 5 91 74 100 87 97 73 100 91 97 92 100 98 100 100 100 22 100 36 100 67 100 100 100 100 100 100 100 100 100 100 100 100 100 100 100 100 98 92 100 28 24 5 5 5 5 8
6 1 0 5 100 100 80 100 69 92 99 100 100 100 100 73 73 22 21 82 76 93 99 97 83 30 77 46 87 100 100 100 100 100 100 100 100 100 100 100 96 63 5 5 34 7 40 39 63
39 5 5 5 62 100 100 100 100 44 100 100 100 100 100 100 98 78 44 17 24 41 73 13 85 99 100 100 100 80 100 100 100 100 100 98 95 92 91 56 93 87 66 84 40 100 100 77 67
0 2 5 5 79 100 100 100 100 55 69 78 100 100 100 100 100 100 100 100 99 89 74 35 11 76 81 100 100 100 100 100 100 100 100 100 100 99 100 100 100 100 69 46 78 74 75 92 60
1 5 88 98 93 100 98 82 100 51 45 6 38 77 52 94 100 100 100 100 100 100 98 96 83 92 100 99 100 100 100 100 100 100 100 100 100 100 100 100 100 53 82 73 99 95 76 71 79
0 74 92 100 49 94 17 100 89 20 74 5 40 5 7 27 6 14 54 100 92 56 74 90 75 80 100 100 100 100 100 100 100 100 100 100 100 100 100 100 98 65 76 100 66 53 9 45 10
5 4 51 5 5 5 92 100 53 33 100 99 82 85 10 7 5 22 5 6 6 12 5 84 91 99 100 100 100 100 100 100 100 100 100 100 100 100 100 100 100 99 100 100 86 44 83 100 5
6 16 2 5 42 66 65 100 70 5 5 87 54 43 100 100 16 85 5 15 47 44 18 8 18 36 80 100 100 100 100 100 100 100 100 100 100 100 100 100 100 84 100 71 100 86 94 36 5
5 1 4 45 21 96 100 100 100 8 33 8 54 61 58 100 100 100 100 8 5 5 5 5 5 8 32 37 98 100 100 100 100 100 100 100 100 100 100 100 100 92 90 95 71 100 80 94 98
95 98 13 5 64 4 5 100 100 54 21 100 33 100 100 100 100 89 12 20 6 5 5 5 5 5 5 37 60 98 100 100 100 100 100 100 100 100 100 100 96 99 100 100 99 100 90 100 100

GFSSGP_prec_cloud_039.txt.gz
Cloud_Cover
0 0 0 0 0 0 0 20 100 82 0 29 3 100 30 90 100 90 100 100 100 100 96 94 96 96 52 19 5 33 5 5 23 18 59 50 5 5 4 5 5 0 0 0 0 0 0 0 0
0 0 0 0 0 3 62 30 53 16 65 100 64 1 38 43 24 76 95 100 100 100 100 99 100 96 28 5 5 3 5 5 5 5 5 79 40 5 5 5 5 5 4 0 0 4 0 0 0
0 0 0 5 3 5 100 100 50 79 42 11 2 4 23 76 1 40 58 23 100 99 86 81 100 100 61 64 73 6 5 62 5 5 67 34 8 4 5 5 5 5 5 5 1 5 5 0 0
0 0 1 0 5 53 62 100 100 93 35 0 45 8 0 23 93 97 99 29 54 100 100 88 100 100 100 98 64 5 63 100 45 29 56 96 16 5 5 5 5 5 5 5 15 5 5 4 0
0 0 3 78 76 67 1 45 100 100 99 50 0 96 12 81 100 100 100 100 98 100 100 100 100 100 100 87 81 83 95 85 25 68 45 82 8 5 5 6 86 39 19 66 5 5 0 0 0
0 0 20 100 100 5 22 48 10 26 92 36 100 98 37 97 100 100 100 100 100 100 100 100 100 100 78 91 84 100 82 100 92 68 100 100 94 14 53 14 6 6 5 76 5 5 5 0 0
0 6 100 5 99 74 31 4 100 94 100 91 67 93 35 100 100 100 100 100 100 100 100 100 100 100 100 100 97 100 100 18 100 92 100 100 97 67 66 67 5 5 5 13 5 5 5 2 0
0 0 27 81 100 98 30 84 66 100 100 86 32 44 86 100 100 100 100 100 100 100 100 100 100 100 100 100 100 100 100 99 100 100 100 100 100 100 100 92 52 16 22 6 6 5 5 5 0
0 6 98 100 47 99 48 74 100 98 100 71 98 73 99 100 100 100 100 100 100 100 100 100 100 100 100 100 100 100 100 100 100 100 100 100 100 92 98 100 100 86 74 29 54 37 5 1 2
0 90 97 19 48 4 52 100 100 54 100 64 100 100 100 100 100 100 100 100 100 100 100 100 100 100 100 100 100 100 100 100 100 100 100 100 100 100 100 100 100 100 100 100 54 84 5 5 21
3 96 62 78 69 29 100 55 96 100 49 88 86 100 100 100 100 100 100 100 100 100 100 100 100 100 100 100 100 100 100 100 100 100 100 100 100 100 100 100 100 100 96 96 67 100 78 88 95
0 18 79 5 80 99 72 79 98 49 95 11 70 100 98 100 95 82 100 100 100 100 100 100 100 100 100 100 100 100 100 100 100 100 100 100 100 100 100 100 100 100 100 100 100 100 83 100 100
2 9 2 3 98 17 92 38 40 40 88 84 96 100 100 80 100 99 100 100 100 100 100 100 100 100 100 100 100 100 100 100 100 100 100 100 100 100 100 100 100 100 100 100 100 100 92 52 98
10 0 21 1 2 18 100 94 4 40 72 94 92 100 100 100 90 95 100 100 100 100 100 100 100 100 100 100 100 100 100 100 100 100 100 100 100 100 100 100 100 100 100 100 100 99 100 100 93
0 10 85 82 28 82 100 97 100 100 100 43 96 99 100 100 81 99 98 100 100 100 100 100 100 100 100 100 100 100 100 100 100 100 100 100 100 100 100 100 100 100 100 100 100 69 100 100 19
0 4 76 96 3 99 100 100 14 100 100 97 100 100 100 100 100 100 100 100 100 100 100 100 100 100 100 100 100 100 100 100 100 100 100 100 100 100 100 100 100 100 100 99 100 100 100 70 100
9 100 79 55 6 95 90 100 17 23 100 100 100 100 100 100 99 98 87 99 98 100 100 100 100 100 100 100 100 100 100 100 100 100 100 100 100 100 100 100 100 100 100 100 100 80 37 12 72
100 97 93 24 89 6 96 56 76 49 99 100 100 100 100 100 100 100 100 100 100 100 100 100 100 100 100 100 100 100 100 100 100 100 100 100 100 100 100 100 100 100 100 100 100 15 69 100 96
100 80 100 48 100 96 97 66 99 100 23 100 100 100 100 100 100 100 100 100 100 100 100 100 100 100 100 100 100 100 100 100 100 100 100 100 91 97 100 100 100 100 89 100 100 86 98 19 32
8 100 74 78 2 41 42 97 100 86 72 99 100 100 99 88 100 100 100 100 100 100 100 100 100 100 100 100 100 100 100 100 100 100 100 100 100 100 100 22 81 62 35 99 100 100 71 67 34
79 100 100 51 88 5 85 97 90 96 61 100 100 100 100 100 100 100 100 100 100 100 100 100 100 100 100 100 100 100 100 100 100 100 100 100 100 100 100 100 82 70 97 100 99 44 5 5 3
98 23 28 5 4 99 30 92 100 98 94 100 100 99 88 100 12 37 100 100 73 100 98 100 100 100 100 100 100 100 100 100 100 99 94 100 100 100 100 100 100 99 100 91 32 12 5 5 22
99 98 5 14 100 97 51 43 89 84 73 91 77 46 100 99 9 5 14 25 62 77 98 90 58 96 96 100 100 100 98 100 100 100 96 100 100 100 100 100 100 100 72 100 100 51 6 12 69
75 46 51 30 44 99 70 89 75 100 50 94 97 75 100 100 100 100 49 5 6 30 67 54 41 86 78 100 96 100 97 98 100 100 100 100 99 100 100 100 96 82 100 100 100 59 41 65 98
8 94 92 88 100 84 92 8 42 100 88 100 86 82 10 46 95 100 100 100 100 68 74 77 55 9 5 17 89 88 100 100 100 100 100 100 100 100 100 100 100 100 100 100 100 100 89 100 92
5 91 100 100 96 100 80 18 48 69 15 6 8 20 16 56 5 5 5 25 94 100 100 100 94 78 82 88 99 100 100 100 100 100 100 100 100 100 100 100 100 100 100 100 100 100 100 99 100
96 90 60 100 6 12 86 33 18 5 4 5 5 5 5 7 85 5 5 5 18 5 10 5 38 50 86 100 100 100 100 100 100 100 100 100 100 100 100 100 100 100 100 100 100 99 100 100 99
14 100 95 88 72 80 53 100 100 76 22 4 2 5 5 5 5 6 33 16 5 5 6 59 97 100 69 80 100 100 100 100 100 100 100 100 100 100 100 100 100 100 100 100 100 94 96 72 100
5 17 59 100 100 92 98 100 100 33 4 5 49 5 5 5 41 69 100 39 14 59 31 7 57 100 100 18 84 99 100 100 100 100 100 100 100 100 100 100 100 100 100 100 100 99 100 100 100
99 42 99 100 100 53 7 2 100 48 5 5 98 27 4 2 5 5 22 74 89 5 8 71 23 40 90 100 36 5 50 100 100 100 100 100 100 100 100 100 100 100 100 100 89 100 100 100 100

GFSSGP_prec_cloud_042.txt.gz
Cloud_Cover
0 0 0 0 0 0 0 0 0 86 100 21 42 65 90 14 91 4 75 100 100 100 100 100 100 70 100 86 100 100 32 10 5 5 4 5 5 5 5 5 5 5 24 32 0 0 0 0 0
0 0 0 0 0 1 68 100 100 72 51 1 24 100 100 100 100 54 99 100 100 100 100 100 100 77 5 11 54 8 41 7 5 5 5 5 5 4 4 5 5 5 0 1 0 0 0 0 0
0 0 0 0 2 2 99 96 99 88 3 0 100 100 100 100 100 99 99 100 100 100 100 100 99 100 100 96 99 78 5 5 5 5 5 5 5 5 3 0 4 5 5 0 3 4 1 0 0
0 0 0 0 0 78 100 4 91 15 37 2 40 100 97 99 100 100 100 100 100 100 100 100 100 100 96 94 100 98 98 6 54 26 5 5 5 5 0 0 0 4 5 5 5 4 0 0 0
0 0 0 32 62 40 38 0 0 32 82 100 56 88 100 100 98 100 92 100 100 100 100 100 100 100 100 100 100 100 100 100 100 100 5 5 5 5 3 1 5 9 28 5 5 5 0 0 0
0 1 49 100 99 99 38 27 3 51 100 35 26 34 99 100 63 98 80 100 100 100 94 100 100 100 100 100 100 100 100 89 98 100 10 96 21 10 5 12 8 11 5 5 5 5 1 0 4
0 34 4 8 47 6 100 100 83 100 96 100 100 100 100 100 100 100 100 100 84 90 100 100 100 100 100 100 100 100 100 93 100 100 100 94 96 76 71 88 6 5 5 4 5 34 5 5 5
0 0 3 99 43 17 98 77 89 26 100 100 100 100 100 100 98 100 100 100 100 100 100 100 100 100 100 100 100 100 100 100 100 100 100 100 100 100 100 100 36 88 100 99 56 5 5 3 4
0 1 60 66 80 99 11 43 100 100 54 100 100 100 100 100 100 100 100 100 100 100 100 100 100 100 100 100 100 100 100 100 100 100 100 100 95 100 100 100 100 100 100 100 7 5 5 5 2
0 29 100 42 16 99 6 85 100 100 86 63 100 100 100 100 100 100 100 100 100 100 100 100 100 100 100 100 100 100 100 100 100 100 100 100 100 100 100 100 100 100 100 100 100 96 73 5 74
2 43 84 6 3 100 14 100 100 63 98 100 100 100 100 97 89 100 100 100 100 100 100 100 100 100 100 100 100 100 100 100 100 100 100 100 100 100 100 100 100 100 100 100 100 92 82 100 75
0 2 32 5 10 81 9 99 100 97 85 100 100 99 75 100 100 100 100 100 100 100 100 100 100 100 100 100 100 100 100 100 100 100 100 100 100 100 100 100 100 100 100 100 100 99 100 99 100
31 10 5 7 0 27 83 32 46 37 9 32 95 82 100 100 100 100 100 100 100 100 100 100 100 100 100 100 100 100 100 100 100 100 100 100 100 100 100 100 100 100 100 100 100 100 100 100 98
84 6 0 23 0 100 94 100 100 100 42 58 74 68 77 100 100 100 100 100 100 100 100 100 100 100 100 100 100 100 100 100 100 100 100 100 100 100 100 100 100 100 100 100 100 100 100 100 100
0 0 12 100 99 100 100 100 100 82 95 27 67 5 100 100 100 100 100 100 100 100 100 100 100 100 100 100 100 100 100 100 100 100 100 100 100 100 100 100 100 100 100 100 100 100 100 100 86
0 0 5 95 17 54 99 100 100 33 100 100 99 43 98 100 86 76 95 80 95 100 99 100 100 100 100 100 100 100 100 100 100 100 100 100 100 100 100 100 100 100 100 100 100 100 100 100 100
24 3 54 32 27 3 60 100 100 100 96 55 100 100 83 99 100 97 100 100 68 87 87 98 100 100 98 100 100 100 100 100 100 100 100 100 100 100 100 100 100 100 100 100 100 100 100 100 100
100 50 100 53 57 28 74 94 100 100 71 58 100 100 100 100 100 100 36 48 37 32 99 99 96 94 100 100 100 100 100 100 100 100 100 100 100 100 100 100 100 100 100 100 100 100 100 100 98
62 90 69 45 21 19 42 94 97 98 87 66 100 100 100 100 100 100 100 100 100 96 100 100 100 100 100 100 100 100 100 100 100 100 100 100 100 100 100 100 100 100 100 100 100 100 100 100 41
8 12 86 94 87 0 1 20 94 33 100 100 100 100 100 100 100 67 100 100 100 100 100 100 100 100 100 100 100 100 100 100 100 100 100 100 100 100 100 94 96 100 100 100 100 99 56 100 100
8 5 34 75 100 19 0 2 88 36 28 98 100 100 100 100 100 100 100 100 100 100 100 100 100 100 100 100 100 100 100 100 100 100 100 100 100 100 100 100 100 100 98 80 89 100 100 83 9
49 5 84 45 73 8 97 24 10 94 13 88 100 100 74 100 100 97 100 70 100 100 100 98 100 100 100 100 94 99 100 47 100 100 100 100 100 100 100 100 97 73 99 97 100 100 100 99 94
16 9 55 4 5 30 93 47 100 6 8 77 85 61 9 67 6 69 61 20 24 94 100 83 100 100 100 100 100 100 100 100 100 100 100 100 100 100 100 100 100 100 100 100 100 100 100 100 100
85 9 71 38 0 2 5 76 100 90 92 100 90 60 55 34 8 47 96 75 86 88 56 84 78 94 99 100 100 100 100 96 100 100 100 100 100 100 100 99 100 100 100 100 100 100 100 100 100
97 76 18 5 76 24 35 100 95 75 100 100 38 27 36 3 98 97 62 62 13 6 5 43 83 100 92 59 96 79 100 100 100 97 100 100 100 100 100 100 100 100 100 100 100 100 100 100 100
100 100 67 10 57 93 100 75 57 4 84 16 5 6 51 49 5 36 27 100 100 100 95 48 5 8 9 95 79 94 100 96 97 72 100 100 100 100 100 100 100 100 100 100 100 100 100 100 100
100 100 100 85 98 94 89 74 20 15 1 2 0 3 5 5 26 19 70 13 46 5 84 95 96 76 81 17 82 90 92 97 100 100 100 100 100 100 100 100 100 100 100 100 100 100 100 100 100
100 100 100 100 99 83 43 18 75 55 100 42 1 0 1 0 1 7 98 100 71 5 5 5 5 85 23 5 5 5 6 41 100 100 98 100 100 100 100 100 100 100 100 100 100 100 100 100 100
100 100 100 100 97 77 4 19 6 100 71 99 5 4 1 0 0 5 5 7 63 60 100 78 26 14 84 72 88 12 8 27 92 76 100 100 100 100 100 100 100 100 100 100 100 100 100 100 100
100 100 100 100 38 16 8 19 88 100 91 99 98 0 4 0 0 0 5 5 5 53 27 51 97 41 78 100 46 93 98 28 5 37 99 93 100 100 100 100 100 100 100 100 100 100 100 100 100

GFSSGP_prec_cloud_045.txt.gz
Cloud_Cover
5 0 0 0 0 0 0 0 0 66 92 52 100 100 53 8 95 83 39 66 26 100 100 100 100 100 100 100 100 100 21 4 1 5 1 2 3 2 5 5 5 5 5 5 2 2 0 0 0
0 0 0 0 0 0 0 0 2 98 99 99 100 100 6 9 76 85 76 50 100 100 100 100 100 100 100 97 11 13 83 74 34 58 6 4 5 5 5 4 3 5 4 4 4 0 0 0 0
0 0 0 0 0 0 0 5 86 98 12 98 2 75 97 86 100 100 100 100 100 100 100 100 100 100 100 72 100 100 100 99 50 88 80 27 6 5 5 5 5 3 5 0 0 0 0 0 0
0 0 0 0 0 0 5 98 66 19 32 3 28 97 100 100 100 99 100 100 100 100 100 100 100 100 100 100 100 100 100 100 99 72 43 48 5 14 5 5 5 5 1 5 2 0 2 0 0
0 0 0 0 7 1 0 0 0 0 0 1 97 100 100 100 100 100 100 100 100 100 100 100 100 100 100 100 100 100 99 100 84 100 28 38 85 92 91 5 5 1 0 5 5 5 5 5 2
0 0 0 0 93 22 5 18 95 92 98 93 100 100 100 100 100 100 100 100 100 100 100 100 100 100 100 100 100 100 100 98 100 100 100 100 100 44 24 9 5 5 5 23 24 5 5 5 5
0 0 0 0 26 6 2 1 45 92 100 100 100 100 100 84 100 100 100 100 100 100 100 100 100 100 100 100 100 100 100 94 100 100 100 100 100 27 8 5 92 51 100 100 9 5 23 67 44
0 0 0 13 91 99 1 22 100 98 100 100 100 100 100 100 100 100 100 100 100 100 100 100 100 100 100 100 100 100 100 100 98 100 100 100 99 100 57 100 100 100 100 93 13 98 100 65 26
0 0 5 8 98 90 6 4 98 61 100 100 100 100 100 100 100 100 100 100 100 100 100 100 100 100 100 100 100 100 100 100 100 100 100 100 100 99 100 100 100 100 100 100 100 100 100 58 17
0 0 4 100 100 91 33 5 79 100 100 100 100 100 100 100 100 100 100 100 100 100 100 100 100 100 100 100 100 100 100 100 100 100 100 100 100 100 100 100 100 100 100 100 100 100 70 46 74
0 1 5 44 95 3 5 3 97 100 100 100 100 99 100 100 100 100 100 100 100 100 100 100 100 100 100 100 100 100 100 94 100 96 100 100 97 100 100 100 100 100 100 100 100 100 100 100 77
5 0 3 31 2 3 47 90 18 100 100 100 69 94 90 100 85 100 100 100 100 100 100 100 100 100 100 100 100 100 100 100 100 100 100 100 100 100 100 100 100 100 100 100 100 100 100 100 100
45 1 1 0 20 4 8 26 100 100 100 100 100 93 100 80 100 100 100 100 100 100 100 100 100 100 100 100 84 100 100 100 100 100 100 100 100 100 100 100 100 100 100 100 100 100 100 100 100
0 5 0 0 19 99 58 100 100 100 92 100 25 90 81 100 100 100 100 100 100 100 100 100 100 100 100 100 100 73 100 100 100 100 99 100 100 100 100 100 99 100 100 100 100 100 100 100 100
0 0 0 2 5 7 5 66 100 98 83 79 84 48 87 100 65 100 100 100 100 100 100 100 100 100 100 100 100 100 100 100 100 100 100 100 100 100 100 100 100 100 100 100 100 100 100 100 100
5 0 0 21 100 4 5 5 100 94 30 25 100 100 100 99 94 87 100 100 100 100 100 100 100 100 100 100 100 100 100 100 99 100 100 100 100 100 100 100 100 100 100 100 100 100 100 78 100
5 1 2 11 12 96 5 8 96 20 98 5 100 99 94 100 99 100 99 100 100 100 100 100 100 100 100 100 100 100 100 100 100 100 100 100 100 100 100 100 100 100 100 100 100 100 100 100 73
5 5 21 92 71 14 27 1 23 97 84 77 100 100 100 100 100 100 100 100 100 100 87 76 100 100 100 100 100 100 100 100 100 100 100 100 100 100 100 100 100 100 100 100 100 100 100 100 100
6 4 9 98 78 74 5 3 0 99 7 83 98 96 100 100 100 100 100 100 86 100 90 97 92 100 100 100 100 100 28 100 100 100 100 100 100 100 100 100 100 100 100 100 100 100 100 100 100
93 5 3 99 58 68 58 0 5 3 62 100 99 12 99 89 100 100 100 92 100 100 23 71 100 100 100 100 98 94 100 98 87 100 100 100 100 100 100 100 100 100 100 100 100 100 100 100 100
5 7 4 42 63 11 20 16 47 8 4 66 54 16 28 99 100 100 100 64 88 91 100 100 100 69 6 42 84 65 86 90 100 100 100 100 100 100 100 100 100 100 100 100 100 100 100 100 100
88 50 35 6 40 4 5 3 90 3 5 5 12 66 4 17 100 100 100 100 100 100 100 100 100 100 100 11 84 100 100 100 100 100 100 100 100 100 100 100 100 100 100 100 100 100 100 99 100
100 100 24 2 0 0 3 5 10 88 5 1 30 21 100 60 41 100 100 100 100 100 100 100 100 100 100 100 100 100 100 100 100 100 100 100 100 100 100 100 100 100 99 100 100 82 100 100 100
100 100 93 5 5 5 0 88 75 80 98 83 4 24 32 100 100 61 17 96 100 100 100 100 100 100 100 100 100 100 100 100 100 98 100 99 72 96 100 100 100 96 91 84 96 100 100 100 100
100 100 100 70 46 72 3 2 3 82 100 24 28 79 8 6 72 6 4 42 100 53 76 87 100 100 100 100 100 100 100 100 100 100 100 100 100 100 100 100 99 88 100 98 100 100 100 100 100
100 100 100 100 79 100 5 15 52 93 100 8 0 2 0 0 2 18 35 8 46 100 92 96 11 35 38 73 58 98 69 87 29 18 11 87 89 100 100 100 100 100 100 100 99 100 100 100 100
100 100 33 97 76 100 94 99 96 11 82 7 5 5 5 0 0 0 99 100 100 25 62 94 97 100 58 34 9 67 95 58 44 98 75 66 80 92 67 100 100 100 99 100 100 100 100 100 100
99 100 88 44 100 100 100 99 100 99 65 76 5 4 29 0 0 0 2 38 79 90 90 93 91 100 100 100 88 17 21 97 100 95 14 8 5 99 100 100 100 100 100 100 100 100 100 100 100
100 100 98 100 100 100 90 100 100 93 12 98 76 83 68 13 1 0 1 47 19 100 100 100 100 100 100 100 100 99 21 100 100 100 100 100 100 46 74 100 100 100 100 100 100 100 100 100 100
100 100 90 63 100 100 100 100 99 87 7 53 100 34 1 19 100 0 0 0 36 26 100 100 58 100 100 100 100 97 100 100 100 100 100 100 100 98 100 100 100 100 100 100 100 100 100 100 100

GFSSGP_prec_cloud_051.txt.gz
Cloud_Cover
0 0 0 0 0 0 0 0 0 0 0 0 0 0 0 0 69 99 64 100 100 100 47 30 4 28 5 5 91 100 100 100 100 100 100 100 100 100 100 100 99 33 19 5 5 69 89 3 3
13 10 5 5 2 0 0 0 0 0 0 0 0 4 12 5 47 91 57 41 100 68 33 49 3 5 25 66 83 100 100 100 100 100 100 100 100 100 98 100 74 56 31 57 8 9 71 11 5
22 4 1 0 0 0 0 0 0 0 0 0 0 0 4 53 82 42 99 33 100 97 98 48 32 4 58 100 100 100 100 100 100 100 100 100 98 100 11 5 13 24 58 15 99 100 83 5 14
5 5 0 0 0 0 0 0 0 0 0 0 0 1 61 6 5 18 41 57 86 100 60 12 33 98 100 92 100 100 100 100 100 100 100 100 87 87 10 67 35 60 41 100 100 60 17 93 10
81 3 0 0 0 0 0 0 0 1 0 19 48 13 11 20 49 29 33 42 9 89 31 1 66 100 100 100 100 100 100 100 100 100 100 97 21 68 43 98 97 87 59 5 24 95 99 56 5
10 0 0 0 0 0 0 0 0 5 2 99 100 100 93 100 100 100 100 93 89 33 74 93 100 100 100 100 100 100 100 100 100 100 83 94 48 30 90 93 74 16 24 78 89 27 23 5 5
6 3 0 0 0 0 0 0 4 0 9 98 100 100 98 100 100 100 100 100 100 100 100 100 100 100 100 100 100 100 100 100 100 100 100 97 100 68 14 18 10 100 78 39 96 30 44 5 5
0 1 4 4 0 0 0 1 3 0 26 100 100 100 100 100 100 100 100 100 100 100 100 100 100 100 100 100 100 100 100 100 100 100 100 96 100 100 74 91 36 100 50 29 83 100 100 40 23
5 11 5 0 0 0 0 0 0 97 100 100 100 100 100 100 100 100 100 100 100 100 100 100 100 100 100 100 100 100 100 100 100 100 100 100 100 100 100 80 8 99 100 99 70 100 100 100 100
5 4 0 0 0 0 0 0 0 100 100 100 100 100 100 100 100 100 100 100 100 100 100 100 100 100 100 100 100 100 100 100 100 100 100 100 98 92 66 55 97 81 31 61 99 99 100 94 20
8 0 5 0 0 0 0 1 5 96 100 88 100 100 100 100 100 100 100 100 100 100 100 100 100 100 100 100 100 100 100 100 100 100 100 100 100 76 72 98 79 53 100 56 11 69 100 100 68
0 42 1 0 0 0 0 2 5 94 31 100 97 100 97 100 100 100 100 100 100 100 100 100 100 100 100 100 100 100 100 100 100 100 100 100 100 99 100 60 58 87 100 96 14 94 100 64 59
81 46 0 0 0 0 0 5 0 10 13 76 100 99 100 73 98 100 100 100 100 100 100 100 100 100 100 100 100 100 100 100 100 100 100 100 100 100 94 99 75 98 90 100 100 89 79 36 57
100 5 1 2 0 0 0 1 2 2 98 32 18 100 100 100 76 100 100 100 100 100 100 100 100 100 100 100 100 100 100 100 100 100 100 100 90 100 100 89 100 84 82 100 100 81 50 56 100
43 77 5 0 2 2 0 0 0 0 55 93 84 40 100 100 100 99 100 100 100 100 100 100 100 100 100 100 100 100 100 100 100 100 100 100 100 100 100 100 100 100 100 100 100 100 82 88 100
100 18 2 3 6 4 4 0 0 0 1 22 33 44 100 100 97 100 99 100 100 100 100 100 100 100 100 100 100 100 100 100 100 99 100 100 100 99 88 95 100 100 92 93 86 98 100 98 84
100 49 4 5 5 5 5 0 0 0 6 35 28 88 57 86 42 26 74 100 100 100 100 100 100 100 100 100 100 100 100 100 100 100 100 100 100 98 100 100 98 100 82 82 91 99 75 32 77
23 6 5 5 5 5 0 0 0 0 0 17 0 6 20 92 23 8 21 100 100 100 100 100 100 100 100 100 100 100 100 100 100 100 100 100 100 100 100 100 100 97 100 100 100 96 85 100 100
24 14 5 5 52 42 3 4 0 0 0 0 0 8 58 100 52 78 8 78 100 100 100 100 100 100 100 100 100 100 100 100 100 100 100 100 100 100 100 100 100 100 100 100 100 100 100 100 100
5 5 5 7 53 99 6 4 4 0 0 0 0 5 5 5 98 70 76 91 100 100 100 100 100 100 100 100 100 100 100 100 100 100 100 100 100 100 100 100 100 100 91 100 100 100 100 100 100
64 7 5 69 98 100 100 5 0 0 0 0 0 0 4 49 68 6 53 99 100 90 55 100 100 100 100 100 100 100 100 100 100 100 100 100 100 100 100 100 100 100 100 99 100 99 100 100 100
79 30 13 67 61 100 100 48 5 1 0 0 0 0 0 13 84 22 4 43 61 92 70 35 97 100 100 100 100 100 100 100 100 100 100 100 100 100 100 100 100 100 88 100 100 100 100 100 100
82 5 9 10 48 96 100 100 10 5 5 0 0 3 0 0 6 5 5 5 7 7 99 94 100 100 100 100 100 100 100 100 100 100 100 100 100 100 100 100 100 100 100 100 100 100 100 100 100
35 6 27 3 58 6 55 100 93 4 5 3 3 2 4 0 0 3 1 4 1 2 9 100 100 100 100 100 100 100 100 100 100 100 100 100 100 100 100 26 62 100 100 100 100 100 100 100 100
80 2 5 54 80 5 97 100 33 34 5 5 1 0 0 0 0 0 0 0 0 0 5 26 100 100 100 100 100 100 100 100 100 100 100 99 96 62 100 100 100 100 100 100 100 100 100 100 100
4 43 5 5 94 5 95 100 42 82 34 5 4 0 0 0 2 0 0 0 5 1 0 1 5 99 87 98 100 100 100 78 96 94 96 100 100 100 100 100 100 100 100 100 100 100 100 100 99
5 5 5 4 62 27 100 100 10 56 83 5 5 2 0 0 0 0 1 2 5 2 13 0 0 9 72 72 70 7 40 65 97 99 100 100 100 100 100 100 100 100 100 100 100 100 100 100 100
5 17 5 5 5 20 96 100 100 60 14 34 33 5 5 0 0 0 16 3 0 2 60 26 89 15 25 16 12 57 83 81 92 100 90 97 99 100 56 64 100 90 100 100 100 100 100 100 100
84 48 14 5 5 46 93 100 100 90 5 5 12 5 5 35 4 0 3 0 1 0 69 22 37 100 100 97 94 70 21 18 88 72 38 93 80 100 100 100 100 84 95 99 91 57 54 100 100
5 36 57 11 17 99 68 100 100 100 40 5 5 5 70 7 80 13 0 3 53 0 0 0 56 84 91 100 100 100 100 85 75 100 100 100 100 100 100 100 100 100 100 100 100 100 97 100 100

GFSSGP_prec_cloud_054.txt.gz
Cloud_Cover
0 0 4 3 4 2 0 0 0 0 0 0 0 0 0 0 0 0 3 56 53 100 40 96 63 30 44 74 98 90 100 100 100 100 100 99 100 100 100 100 100 100 100 100 98 78 5 4 4
0 0 0 17 21 5 0 0 0 0 0 0 0 0 0 0 5 9 2 5 100 93 100 92 52 85 37 100 81 12 99 100 100 100 100 100 100 100 100 100 100 100 67 99 85 14 39 18 5
0 0 0 0 23 7 8 0 0 0 0 0 0 0 0 0 0 0 14 5 100 99 100 17 44 89 96 96 96 22 47 100 100 100 100 100 100 100 100 100 100 94 60 74 5 3 4 0 81
14 3 0 0 23 47 3 0 0 0 0 0 0 0 2 2 5 5 5 1 100 100 97 19 28 88 100 75 88 18 63 100 100 100 100 100 100 100 100 100 100 47 56 99 100 100 95 42 42
5 9 5 5 0 0 0 0 0 0 0 0 0 7 57 74 63 4 98 10 100 100 94 43 4 30 100 100 100 93 100 100 100 100 100 100 100 100 100 100 88 83 100 58 18 43 4 5 4
90 50 5 5 0 0 0 0 0 0 0 0 1 100 100 100 100 92 100 100 95 100 97 100 85 100 94 87 100 100 100 100 100 100 100 100 100 100 100 100 41 66 98 72 88 94 34 14 30
96 99 39 5 4 0 0 0 0 0 0 0 68 100 100 99 100 100 100 100 100 100 100 100 100 96 96 100 100 100 100 100 100 100 100 100 100 100 100 98 70 100 95 83 15 5 49 100 62
97 94 5 5 5 0 0 0 0 0 0 80 100 100 100 100 97 100 100 100 100 100 100 100 100 100 100 100 100 100 100 100 100 100 100 100 100 100 100 91 100 100 100 22 13 10 60 77 96
100 56 22 8 0 0 0 0 0 2 51 100 100 65 100 100 100 100 100 100 100 100 100 100 100 100 100 100 100 100 100 100 100 100 100 100 100 98 99 42 93 100 100 57 99 42 83 100 100
21 30 47 1 7 0 0 0 0 3 6 83 100 79 100 100 100 100 100 100 100 100 100 100 100 100 100 100 100 100 100 100 100 100 100 100 100 100 100 46 73 100 100 100 100 90 97 100 100
28 6 4 66 5 0 0 0 0 5 5 4 100 100 100 100 100 100 100 100 100 100 100 100 100 100 100 100 100 100 100 100 100 100 100 100 100 100 100 97 52 100 100 100 100 69 72 96 74
4 1 60 86 3 3 0 0 0 0 4 3 59 100 100 71 100 100 100 100 100 100 100 100 100 100 100 100 100 100 100 100 100 100 100 100 100 100 100 89 77 43 100 100 100 100 78 93 87
2 32 100 96 5 2 0 0 0 0 0 2 5 84 77 100 100 100 100 100 100 100 100 100 100 100 100 100 100 100 100 100 100 100 100 100 100 100 100 100 100 86 51 100 88 75 79 98 93
59 85 97 26 5 0 0 0 0 0 0 0 2 13 32 99 100 100 100 100 100 100 100 100 100 100 100 100 100 100 100 100 100 100 100 100 100 100 100 93 100 99 86 100 83 99 69 8 98
86 100 70 4 5 0 0 5 0 0 0 0 8 91 100 100 100 100 100 100 100 100 100 100 100 100 100 100 100 100 100 100 100 100 100 100 100 100 100 100 100 96 100 100 100 84 100 90 94
91 100 81 5 5 0 0 2 5 0 20 11 18 52 100 100 100 100 100 100 100 100 100 100 100 100 100 100 100 100 100 100 100 100 100 100 100 100 100 100 100 100 100 99 92 100 100 94 92
6 93 5 5 4 3 5 0 0 0 8 2 28 96 72 100 100 100 46 100 100 100 100 100 100 100 100 100 100 100 100 100 100 100 100 100 100 100 100 100 100 98 93 99 97 100 100 100 91
99 16 16 5 2 5 15 4 0 3 24 2 3 30 79 66 100 63 0 11 100 100 100 100 100 100 100 100 100 100 100 100 100 100 100 100 100 100 100 100 100 100 100 100 100 100 96 100 100
100 54 79 5 5 5 11 5 5 1 0 3 12 0 0 8 20 77 8 0 33 100 100 100 100 100 100 100 100 100 100 100 100 100 100 100 100 100 100 100 100 100 100 100 100 100 100 100 100
96 19 17 11 5 20 8 7 6 5 1 0 0 0 0 1 56 84 90 87 23 75 100 100 100 100 100 100 100 100 100 100 100 100 100 100 100 100 100 100 100 100 100 100 100 100 100 100 100
50 5 5 98 7 53 38 6 100 5 7 1 0 0 0 0 16 84 100 100 100 100 96 100 100 100 100 100 100 100 100 100 100 100 100 100 100 100 100 100 100 100 100 100 100 100 100 100 100
42 78 39 21 12 5 24 5 68 5 15 14 0 0 0 0 0 4 95 100 100 100 100 100 100 100 100 100 100 100 100 100 100 100 100 100 100 100 100 100 100 100 100 100 100 100 100 100 99
43 84 5 26 5 5 17 10 0 5 68 51 6 2 0 0 0 0 11 79 100 81 97 100 100 100 100 100 100 100 100 100 100 100 100 100 100 100 100 100 100 100 100 100 100 100 100 100 100
97 23 5 2 4 94 12 95 74 11 28 11 6 9 0 0 0 0 0 4 93 56 59 89 100 100 100 100 100 100 100 100 100 100 100 100 100 100 100 100 100 100 100 100 100 76 91 64 100
99 5 5 32 74 20 67 100 100 12 96 10 5 28 12 3 0 0 0 0 49 71 60 56 72 100 100 100 100 100 100 100 100 100 100 100 100 100 100 100 99 100 100 88 76 98 94 63 99
100 9 46 100 32 37 94 99 100 36 100 74 5 5 10 5 4 1 0 0 0 2 33 13 33 11 85 100 100 100 100 100 100 100 100 100 100 100 100 99 85 100 98 99 100 66 88 98 100
100 59 100 86 100 6 99 86 71 43 100 100 6 5 5 5 5 1 5 0 0 0 0 0 19 0 1 5 7 74 97 100 100 100 97 100 100 100 99 24 96 70 96 98 100 92 100 100 100
98 100 100 30 62 17 25 87 81 13 100 100 100 87 5 5 5 5 5 4 0 0 0 2 32 6 3 14 38 24 5 5 4 68 89 74 56 9 21 5 76 89 67 100 100 100 98 100 39
100 100 100 100 14 5 92 100 70 7 100 100 100 100 70 5 5 5 5 0 0 0 0 19 100 100 27 92 100 100 98 73 27 43 91 5 5 62 94 97 22 64 99 98 100 97 88 98 99
100 100 100 100 66 42 97 99 60 5 11 100 100 100 100 94 5 5 4 4 3 0 0 0 1 80 98 100 90 100 100 90 100 98 100 99 70 49 100 98 100 100 100 100 100 100 100 100 100

GFSSGP_prec_cloud_057.txt.gz
Cloud_Cover
0 0 0 0 0 0 0 0 5 5 0 0 0 0 0 0 0 2 0 56 60 1 5 25 6 80 100 100 94 72 62 7 100 100 74 100 99 98 93 100 99 100 100 100 100 48 95 20 76
0 0 0 0 0 0 0 0 0 0 0 0 0 0 0 0 0 4 0 35 100 15 6 7 4 44 100 100 100 92 5 18 79 100 94 100 59 86 100 100 100 100 100 53 26 36 5 4 5
0 0 0 0 0 2 5 4 0 0 0 0 0 0 0 0 0 0 0 0 100 63 47 74 51 26 2 100 100 100 6 3 21 90 92 96 21 100 100 100 100 92 40 32 36 7 5 4 5
0 0 5 80 59 84 4 1 0 0 0 0 0 0 0 2 0 30 45 4 100 93 39 54 11 67 79 8 100 100 100 45 3 100 100 100 96 100 100 100 100 100 100 100 19 5 33 59 100
0 0 7 71 68 5 4 0 0 0 0 0 0 0 1 6 2 11 37 7 100 100 100 67 56 49 22 2 20 38 98 100 46 100 66 96 100 100 100 100 100 100 100 50 85 98 54 89 66
0 0 38 100 100 5 0 0 0 0 0 0 0 0 2 70 38 100 92 74 75 100 100 100 100 100 17 62 80 77 100 100 59 100 99 100 100 100 100 100 100 100 100 100 97 99 10 38 46
0 0 1 99 100 0 0 0 0 0 0 0 3 15 16 5 99 63 91 99 100 100 100 100 100 100 100 75 97 72 100 9 100 92 100 100 100 100 100 100 100 79 80 28 30 39 26 11 76
0 0 36 99 28 3 0 0 0 0 0 5 5 5 6 100 96 77 92 100 100 100 100 79 100 100 100 100 100 99 78 99 100 86 55 100 100 100 100 100 100 85 16 26 48 67 5 13 61
0 0 100 62 5 0 0 0 0 0 5 5 5 23 99 100 69 94 100 100 100 100 100 100 100 100 100 100 100 100 100 100 100 100 100 100 100 100 100 100 97 6 5 26 58 12 28 22 76
0 0 23 5 0 5 3 0 0 0 4 5 5 6 99 99 93 100 100 100 100 100 100 100 100 100 100 100 100 100 100 100 100 100 100 100 100 100 100 100 100 82 79 53 6 5 93 94 78
0 8 59 3 4 13 6 0 0 0 0 5 4 0 82 95 100 100 100 100 100 100 100 100 100 100 100 100 100 100 100 100 100 100 100 100 100 100 100 100 100 100 71 70 38 34 98 35 39
0 74 39 0 52 92 7 1 0 0 0 2 0 0 82 71 100 84 100 100 100 100 100 100 100 100 100 100 100 100 100 100 100 100 100 100 100 100 100 100 100 89 7 45 76 66 83 100 84
0 11 7 36 100 13 6 0 0 0 0 0 0 0 33 98 100 100 100 100 100 100 100 100 100 100 100 100 100 100 100 100 100 100 100 100 100 100 100 100 100 100 67 87 100 99 100 100 100
0 4 45 100 67 15 18 0 0 1 0 0 0 10 58 87 90 100 100 100 100 100 100 100 100 100 100 100 100 100 100 100 100 100 100 100 100 100 100 100 100 100 100 99 91 74 78 79 93
3 0 64 100 34 100 7 0 0 0 0 0 0 1 6 38 100 100 100 100 100 100 100 100 100 100 100 100 100 100 100 100 100 100 100 100 100 100 100 100 100 100 95 100 92 67 80 99 87
5 3 19 100 26 65 2 0 0 3 1 0 0 28 80 20 89 100 100 100 100 100 100 100 100 100 100 100 100 100 100 100 100 100 100 100 100 100 100 100 100 100 100 100 100 95 95 62 79
5 5 59 100 53 5 4 0 0 4 4 0 0 0 9 17 14 65 100 100 100 100 100 100 100 100 100 100 100 100 100 100 100 100 100 100 100 100 100 100 99 88 96 100 100 100 92 90 100
50 74 99 53 5 5 71 3 5 5 2 0 0 0 0 1 0 10 70 80 100 100 100 100 100 100 100 100 100 100 100 100 100 100 100 100 100 100 100 72 78 52 100 100 100 100 100 100 100
96 100 62 5 29 10 44 4 5 5 5 1 0 0 0 0 0 1 29 60 77 100 100 100 100 100 100 100 100 100 100 100 100 100 100 100 100 100 100 100 100 100 100 100 100 100 100 92 100
100 84 28 5 89 99 7 63 5 43 4 1 2 0 0 0 0 6 40 95 73 96 100 100 100 100 100 100 100 100 100 100 100 100 100 98 99 100 100 100 100 100 100 100 100 100 100 100 100
100 76 49 28 96 100 99 62 5 22 24 5 1 0 0 0 1 82 96 64 74 97 85 100 100 100 100 100 100 100 100 100 100 100 100 100 100 100 100 100 100 100 100 100 100 100 100 100 100
100 12 90 5 20 46 96 81 5 28 43 7 5 5 5 0 0 12 100 94 95 48 44 70 68 96 100 100 100 100 100 100 100 100 100 100 100 100 100 100 100 100 100 100 100 100 100 100 100
100 100 36 5 5 5 43 100 16 92 5 8 4 5 5 2 0 1 42 59 12 59 50 60 94 100 100 100 100 100 100 100 100 100 100 100 100 100 100 100 100 100 100 100 100 100 100 100 100
100 84 100 6 5 54 7 100 100 2 0 6 4 4 5 5 0 2 4 17 1 37 74 83 60 100 100 100 100 100 100 100 100 100 100 100 100 100 100 100 100 100 100 100 100 100 100 100 100
100 100 100 5 5 30 88 86 100 4 0 8 15 78 5 5 5 2 2 16 42 93 93 72 58 65 84 100 100 100 100 100 100 100 100 100 100 100 100 100 100 100 100 100 100 100 100 100 100
100 100 46 56 12 70 33 98 100 23 5 5 96 34 22 8 5 5 5 9 5 32 34 48 43 35 41 100 100 100 100 100 100 100 100 100 100 100 100 100 100 100 100 100 100 100 100 100 100
62 98 100 97 90 67 100 100 100 28 5 5 6 100 99 5 5 5 5 5 11 0 0 0 0 22 24 11 10 99 100 100 100 100 100 100 100 100 100 100 100 100 100 100 100 97 94 100 71
14 90 89 42 34 100 100 100 100 23 34 7 2 29 67 69 5 60 5 5 5 5 0 0 0 0 2 21 4 12 61 94 100 100 100 100 100 100 100 100 100 100 100 100 100 100 78 40 64
100 70 11 11 9 87 100 100 100 5 39 8 1 1 52 100 5 98 78 3 5 2 5 0 0 62 7 4 1 3 62 83 12 54 48 91 100 100 100 100 88 86 97 98 31 62 98 99 100
100 79 67 80 66 99 100 100 100 100 5 5 5 5 7 95 54 6 90 42 26 5 4 5 0 0 0 3 52 5 5 17 6 10 36 89 86 86 98 73 99 93 90 94 98 100 100 100 100

GFSSGP_prec_cloud_060.txt.gz
Cloud_Cover
0 0 0 0 0 0 0 0 0 0 0 0 0 0 0 0 0 5 0 2 15 99 100 1 16 43 63 5 100 76 97 94 28 41 100 100 100 100 81 39 8 49 42 100 100 100 99 28 81
0 0 0 0 0 0 0 0 0 0 0 0 0 0 0 0 0 0 0 36 0 44 100 31 0 18 32 27 55 100 100 100 97 100 100 100 95 93 100 45 31 56 100 100 78 21 6 37 18
0 0 0 0 2 5 1 1 0 0 0 0 0 0 0 0 0 0 0 0 0 43 43 88 0 0 1 98 26 100 100 100 99 99 100 100 100 92 100 100 99 100 100 60 5 0 4 7 41
0 0 0 0 0 5 4 0 0 0 0 0 0 0 0 0 0 0 0 0 18 19 99 99 0 0 91 100 32 100 100 100 20 98 100 100 100 92 100 100 100 100 98 25 5 5 94 86 7
0 0 0 0 0 5 22 16 0 0 0 0 0 0 0 0 0 0 0 22 14 43 99 100 78 97 99 100 76 24 98 100 100 100 100 100 100 100 100 51 100 100 77 30 100 100 100 87 8
0 0 0 0 0 0 82 74 0 0 0 0 0 0 0 0 1 0 3 90 96 100 100 100 100 100 73 100 53 14 12 19 75 100 12 100 100 100 79 100 100 100 96 100 100 80 96 42 6
0 0 0 0 0 1 99 11 0 0 0 0 0 0 0 0 10 2 38 100 100 100 100 100 100 100 100 89 100 100 100 63 5 88 47 98 100 100 100 100 100 100 100 100 83 100 100 39 30
0 0 0 0 0 5 2 0 0 0 0 0 5 2 1 5 0 5 91 100 100 100 100 100 100 100 100 100 100 100 100 100 100 85 93 7 100 100 100 100 100 100 100 100 100 100 56 55 56
0 0 0 0 0 5 0 0 0 0 0 0 5 3 1 5 5 5 97 100 100 100 100 100 100 100 100 100 100 100 100 100 100 65 100 100 100 94 100 100 100 100 100 100 56 92 60 89 8
0 0 0 0 0 5 0 5 4 0 0 0 0 0 0 5 5 5 98 100 100 100 100 100 100 100 100 100 100 100 100 100 100 100 100 94 91 100 100 100 100 100 100 100 100 79 95 5 49
5 1 2 0 0 4 1 79 5 0 0 0 0 0 0 0 2 5 59 100 100 100 100 100 100 100 100 100 100 100 100 100 100 100 100 100 69 100 100 100 100 100 100 100 97 86 7 55 7
5 5 2 0 2 59 32 90 0 0 0 0 0 0 0 0 0 6 7 100 100 100 100 100 100 100 100 100 100 100 100 100 100 100 100 100 100 100 100 100 100 100 100 100 100 6 5 6 93
5 5 3 0 0 31 74 10 5 0 0 0 0 0 0 0 0 2 22 96 100 100 100 100 100 100 100 100 100 100 100 100 100 100 100 100 100 100 100 100 100 100 100 100 72 5 5 46 74
5 5 5 0 0 39 50 5 2 0 0 0 0 0 0 0 0 1 39 44 100 100 100 100 100 100 100 100 100 100 100 100 100 100 100 100 100 100 100 100 100 100 91 10 81 79 88 99 74
5 5 7 0 34 100 100 17 5 0 0 0 0 0 0 0 0 0 27 94 100 100 100 100 100 100 100 100 100 100 100 100 100 100 100 100 100 100 100 100 100 100 94 75 100 100 98 95 100
82 30 5 2 37 100 39 5 0 0 0 0 0 0 0 0 0 0 74 100 78 100 100 100 100 100 100 100 100 100 100 100 100 100 100 100 100 100 100 100 100 100 100 98 99 100 97 81 97
100 23 36 36 6 95 62 5 2 0 0 0 0 0 0 0 0 0 2 57 50 100 100 100 100 100 100 100 100 100 100 100 100 100 100 100 100 100 100 100 100 100 100 100 100 100 28 13 86
7 60 41 35 5 100 53 5 5 4 0 0 3 0 0 0 0 0 5 9 73 87 100 100 100 100 100 100 100 100 100 100 100 100 100 100 100 100 100 100 100 100 100 100 100 79 98 98 100
91 99 100 6 5 100 72 12 5 5 1 3 14 4 0 0 0 0 0 5 26 60 100 100 100 100 100 100 100 100 100 100 100 100 100 100 100 100 100 100 100 100 100 100 100 100 100 100 100
96 99 100 22 5 100 56 77 26 50 7 3 61 7 4 0 0 0 0 0 6 52 73 68 100 100 100 100 100 100 100 100 100 100 100 100 100 100 100 100 100 100 100 100 100 100 100 88 92
92 100 93 100 14 100 100 91 52 66 95 0 2 5 5 0 0 0 0 0 0 28 100 95 100 100 100 99 100 100 100 100 100 100 100 100 100 100 100 100 100 100 100 100 100 100 100 100 100
100 100 100 72 47 100 100 100 5 23 12 5 0 0 0 5 0 0 0 0 0 0 55 95 99 99 100 100 100 100 100 100 100 100 100 100 100 100 100 100 100 100 100 100 100 100 100 100 100
100 97 100 100 19 100 100 99 99 12 6 5 0 0 1 5 0 0 0 0 0 0 13 34 92 100 100 100 100 100 100 100 100 100 100 100 100 100 100 100 100 100 100 100 100 100 100 100 100
100 98 98 22 75 100 92 52 26 14 94 5 0 0 0 5 5 1 0 0 0 0 0 68 99 98 100 100 100 100 100 100 100 100 100 100 100 100 100 100 100 100 100 100 100 100 100 100 100
99 100 89 97 54 100 18 28 100 30 9 5 3 0 0 5 0 5 5 4 1 1 0 0 100 100 100 100 100 100 100 100 100 100 100 100 100 100 100 100 100 100 100 100 100 100 100 100 100
100 100 98 92 99 77 70 100 100 47 5 84 5 0 0 0 5 1 5 5 4 4 3 0 1 99 87 100 100 100 100 100 100 100 100 100 100 100 100 100 100 100 100 100 100 100 100 100 100
100 100 99 96 99 82 87 100 100 100 100 100 5 0 1 0 0 5 0 4 16 4 5 3 0 0 55 100 100 100 100 100 98 100 100 100 100 100 100 100 100 100 100 100 100 100 100 100 100
97 78 100 93 60 100 100 100 100 100 100 100 72 5 0 0 0 7 8 2 5 4 4 5 1 0 0 25 65 97 100 99 98 64 100 100 100 100 100 100 100 100 100 100 100 100 100 100 100
100 84 80 89 92 100 100 100 100 100 22 98 96 5 0 0 0 0 5 2 63 5 1 12 5 5 0 0 4 13 20 31 82 69 29 13 39 83 100 100 100 100 100 100 100 100 100 100 100
100 100 100 100 100 100 95 100 100 100 100 100 100 100 4 0 0 0 5 47 5 70 4 1 6 5 0 0 0 0 10 22 20 4 16 19 37 87 92 51 8 50 34 63 100 18 65 59 43

GFSSGP_prec_cloud_063.txt.gz
Cloud_Cover
0 0 0 0 0 0 0 0 0 0 0 0 0 0 2 0 0 4 30 5 0 0 51 0 0 0 5 21 24 28 52 100 98 10 6 23 41 60 86 90 99 100 100 77 77 100 100 97 100
0 0 0 0 0 0 21 1 0 0 0 0 0 0 0 2 0 0 0 0 0 1 34 7 0 0 5 1 0 11 53 100 100 78 32 98 99 100 100 100 100 100 100 100 14 100 100 100 78
0 0 0 0 0 0 19 0 0 0 0 0 0 0 0 0 0 0 0 0 0 0 98 100 0 0 0 2 0 0 77 99 100 93 65 97 96 100 100 100 100 100 92 72 76 100 97 16 10
0 0 0 0 0 0 0 0 0 0 4 0 0 1 4 0 0 0 0 0 0 2 28 100 20 0 0 100 78 5 4 100 97 46 41 100 100 100 100 88 6 27 61 100 100 100 25 9 6
0 0 0 0 0 0 0 0 0 100 24 0 2 0 4 1 0 0 0 0 5 25 63 100 92 98 51 5 89 90 97 100 100 98 81 97 100 100 93 84 5 37 93 100 100 86 56 52 72
0 0 0 0 1 1 0 0 0 85 14 3 2 5 8 0 0 0 0 5 24 84 100 100 100 100 100 100 100 100 100 100 100 100 100 100 100 100 100 77 5 5 100 100 100 72 48 100 100
0 0 0 0 0 0 0 0 4 1 0 4 33 3 5 0 0 0 0 17 100 100 100 100 100 100 100 100 100 100 100 100 100 77 43 100 100 100 100 88 13 5 81 100 100 83 100 100 22
4 0 0 0 0 0 0 0 0 0 0 0 0 1 40 13 0 0 0 43 100 100 100 100 100 100 100 100 100 100 100 100 100 100 45 100 99 100 100 54 10 39 100 100 100 100 100 99 28
0 1 4 0 0 0 0 0 0 0 0 0 0 0 0 0 0 0 0 70 92 100 100 100 100 100 100 100 100 100 100 100 100 100 100 100 99 100 98 92 100 47 100 100 100 100 100 100 100
1 0 1 5 3 0 0 0 0 0 4 3 3 0 0 0 0 0 0 97 100 100 100 100 100 100 100 100 96 100 100 100 100 100 100 70 66 52 100 97 100 99 100 100 100 100 100 100 100
1 0 0 5 5 0 0 0 0 4 5 43 6 5 0 0 0 0 0 15 100 100 100 100 100 100 96 100 79 100 100 100 100 100 95 100 67 5 98 100 93 96 100 100 100 100 100 91 100
1 2 0 5 5 1 1 0 0 91 14 0 0 0 0 0 0 0 0 2 100 100 100 100 100 100 100 93 100 100 100 100 100 100 100 100 100 93 100 100 100 100 100 100 100 100 100 68 12
100 2 0 5 0 5 4 0 2 10 4 1 0 0 0 0 0 0 0 3 78 88 100 100 100 100 100 100 100 100 100 100 100 100 100 100 100 100 100 99 100 100 100 100 100 100 98 100 100
100 0 0 2 5 5 5 0 5 4 1 0 0 0 0 0 0 0 0 1 44 88 100 100 100 100 100 100 100 100 100 100 100 100 100 100 100 100 100 100 100 100 100 100 100 100 100 100 58
100 1 0 5 1 5 5 3 80 5 0 0 0 0 0 0 0 0 0 1 50 51 100 100 100 100 100 100 100 100 100 100 100 100 100 100 100 100 100 100 100 100 100 100 100 100 100 95 100
100 1 1 4 8 11 5 18 100 8 5 1 0 0 0 0 0 0 0 0 47 54 96 100 92 100 100 100 100 100 100 100 100 100 100 100 100 100 100 100 100 100 100 100 100 100 97 79 55
100 84 1 8 37 72 4 81 100 8 3 2 2 0 1 0 0 0 0 0 26 54 91 100 71 100 100 100 100 100 100 100 100 100 100 100 100 100 100 100 100 100 100 100 100 100 100 100 94
100 96 4 47 94 69 0 51 100 5 4 5 3 2 1 0 0 0 0 0 0 72 79 100 100 100 100 100 100 95 100 100 100 100 100 100 100 100 100 100 100 100 100 100 100 100 100 83 100
100 100 100 69 100 45 5 5 34 9 5 3 34 6 0 0 0 0 0 0 0 24 100 100 100 100 100 100 100 100 100 100 100 100 100 100 100 100 100 100 100 100 100 100 100 100 95 90 100
76 76 81 94 100 10 8 5 44 24 3 5 89 83 0 0 0 0 0 0 0 1 100 85 100 100 100 95 100 100 100 100 100 100 100 100 100 100 100 100 100 100 100 100 100 100 100 100 100
99 97 100 100 100 82 27 5 5 28 1 5 38 48 16 0 0 0 0 0 0 0 67 100 100 100 100 100 96 100 100 100 100 100 100 100 100 100 100 100 100 100 100 100 100 100 100 100 100
100 100 100 100 100 98 93 92 5 6 11 5 4 16 8 0 0 0 0 0 0 0 11 82 76 100 86 100 67 100 100 96 99 100 100 100 100 100 100 100 100 100 100 100 100 100 100 100 100
100 100 100 100 100 40 100 100 17 5 7 5 14 5 4 0 0 3 0 0 0 0 7 12 100 74 99 100 100 93 100 100 100 100 100 100 100 100 100 100 100 100 100 100 100 100 100 100 100
100 99 100 100 100 77 100 100 93 87 15 39 5 1 0 0 0 0 0 1 0 0 0 6 88 99 88 100 100 100 100 100 100 100 100 100 100 100 100 100 100 100 100 100 100 100 100 100 100
100 100 100 100 100 100 100 100 100 100 36 5 5 0 1 0 0 0 0 1 0 1 0 0 16 100 74 100 100 100 100 100 100 100 100 100 100 100 100 100 100 100 100 100 100 100 100 100 100
100 100 100 100 100 100 100 100 100 93 78 6 30 4 5 6 0 0 0 0 1 4 1 0 0 9 100 100 100 100 100 100 100 100 100 100 100 100 100 100 100 100 100 100 100 100 100 100 100
100 99 100 100 100 100 100 100 100 84 80 95 25 5 31 100 5 0 0 0 4 1 3 3 5 0 13 100 100 100 100 100 100 100 100 100 100 100 100 100 100 100 100 100 100 100 100 100 100
100 100 100 100 100 100 100 100 100 100 98 92 94 5 17 100 83 0 0 0 1 5 2 5 5 5 0 18 100 99 98 100 100 100 94 100 100 100 100 100 100 100 100 100 100 100 100 100 100
100 100 100 100 100 100 100 100 100 100 100 100 100 84 2 74 72 4 0 0 0 0 0 5 4 23 5 0 16 95 100 100 91 100 95 18 36 54 100 100 100 100 100 100 100 100 100 100 100
100 100 100 100 100 100 100 100 100 100 100 100 97 86 71 94 100 98 25 0 0 0 0 0 9 5 99 5 2 6 23 37 6 95 61 22 5 9 86 100 98 100 100 100 100 100 100 100 100

GFSSGP_prec_cloud_066.txt.gz
Cloud_Cover
0 0 0 0 0 0 0 19 5 0 0 0 0 0 0 5 3 5 3 5 28 1 0 0 0 0 0 0 0 3 0 42 63 12 0 5 1 11 100 23 5 5 5 93 92 100 100 99 100
0 0 0 0 0 0 1 100 5 0 0 0 0 0 0 12 3 0 0 0 0 2 1 0 0 0 0 0 0 0 2 55 26 5 5 5 16 5 93 72 40 5 48 78 100 100 100 100 68
0 0 0 0 0 0 0 12 0 0 0 0 0 0 7 1 1 0 0 0 0 0 17 0 0 0 0 0 0 0 0 3 17 11 64 37 80 19 5 69 94 97 66 74 100 100 100 96 100
0 0 0 0 0 0 44 0 0 0 0 0 3 5 4 0 0 0 0 0 0 0 54 0 0 0 0 24 86 20 35 0 99 93 16 87 93 100 100 100 100 100 100 100 100 100 100 100 99
0 0 0 0 0 0 11 0 0 0 0 0 14 5 3 3 1 0 0 0 0 0 0 0 67 45 74 97 20 100 100 100 100 100 100 100 100 98 68 100 100 100 100 94 100 100 100 59 90
0 0 0 0 0 22 92 0 0 0 0 0 8 26 19 0 0 0 0 0 0 0 8 84 100 100 100 100 100 100 100 100 100 100 99 97 100 100 100 100 100 98 100 24 90 100 52 34 84
0 0 0 0 0 1 90 4 0 0 0 2 7 0 1 3 5 0 0 0 0 0 38 100 100 100 100 100 100 100 100 100 100 100 100 100 98 100 100 100 100 93 44 5 96 12 30 5 92
0 0 0 0 0 0 62 6 0 0 0 0 0 0 4 0 0 0 0 0 0 0 100 100 100 78 100 100 100 100 100 100 100 100 100 100 100 100 100 100 100 7 5 5 5 85 50 100 75
0 0 0 0 0 2 78 1 0 0 0 0 0 0 0 0 0 0 0 0 0 4 100 100 100 100 98 100 100 100 100 100 100 100 100 100 100 98 100 100 100 84 65 15 6 86 100 100 27
0 0 0 5 0 5 42 18 0 0 0 2 1 10 5 0 0 0 0 1 5 47 100 100 99 100 100 100 100 100 100 100 100 100 100 100 100 70 99 100 100 100 97 7 97 100 100 100 100
0 0 68 5 1 0 0 8 3 0 0 0 4 2 13 0 0 0 0 0 24 84 79 100 100 100 100 100 100 100 100 100 100 100 100 100 100 100 100 95 100 100 100 100 100 100 100 100 100
25 30 86 27 5 0 0 0 5 0 0 0 4 5 0 0 0 0 0 0 0 48 100 100 100 100 100 100 100 100 100 100 100 100 100 100 100 98 44 98 90 100 100 81 100 100 100 100 100
88 100 100 98 45 1 0 0 0 0 5 5 6 4 0 0 0 0 0 0 0 10 100 83 100 100 100 84 100 100 100 100 100 100 100 100 100 62 43 42 89 98 81 79 96 100 100 100 100
100 100 100 100 100 5 0 0 0 0 39 6 51 6 0 0 0 0 0 0 0 55 68 97 100 100 100 44 100 100 100 100 100 100 100 100 100 91 89 89 100 100 100 99 100 100 100 100 100
100 86 96 36 100 8 0 3 5 0 5 25 47 5 1 0 0 0 0 0 0 89 84 98 100 100 100 100 100 100 100 100 100 100 100 100 100 100 100 99 50 100 100 98 100 100 100 100 100
100 100 84 100 100 99 2 77 5 1 3 5 86 7 1 0 0 0 0 0 0 53 70 99 90 100 87 100 100 100 100 100 100 100 100 100 100 100 100 100 100 100 100 100 100 100 100 100 100
100 91 100 100 100 100 68 77 5 4 5 67 39 45 6 1 0 0 0 0 0 33 83 92 100 75 100 100 100 100 100 100 100 100 100 100 100 100 100 100 100 100 100 100 100 100 100 100 100
100 100 100 100 100 100 100 51 6 13 31 40 8 5 93 35 1 0 0 0 0 12 78 36 100 100 100 100 100 100 100 100 100 100 100 100 100 100 100 100 100 100 100 100 100 100 100 100 100
100 100 100 62 100 100 100 60 21 7 39 80 36 5 6 100 2 0 0 0 0 0 82 100 100 100 100 99 100 100 100 100 100 100 100 100 100 100 100 100 100 100 100 100 100 100 100 100 100
100 100 100 100 100 100 100 96 95 7 81 74 80 7 22 100 2 0 0 0 0 0 46 100 100 72 98 76 98 100 100 100 100 100 100 100 100 100 100 100 100 100 100 100 100 100 100 100 100
100 100 100 100 100 100 100 100 100 44 5 20 6 5 19 97 5 0 0 0 0 0 1 100 100 100 84 100 97 98 100 100 100 100 100 100 100 100 100 100 100 100 100 100 100 100 100 100 100
100 100 100 100 100 86 100 55 100 58 77 68 29 6 5 14 5 0 0 0 0 0 0 0 86 100 98 100 99 100 100 100 97 100 100 100 100 100 100 98 100 100 100 100 100 100 100 100 100
100 100 100 100 100 100 100 100 99 12 92 37 45 5 5 5 0 0 0 0 0 0 0 0 76 99 100 100 98 100 96 99 98 100 100 100 100 100 100 100 100 100 100 100 100 100 100 100 100
100 100 100 100 100 70 100 100 100 94 83 99 94 98 5 5 1 0 0 0 0 0 0 0 34 47 100 100 100 100 100 100 100 100 100 100 100 100 100 100 100 100 99 100 100 100 100 100 100
100 100 100 100 100 94 100 100 100 100 98 94 98 76 45 5 5 0 0 0 0 0 0 0 0 34 37 100 83 100 94 100 100 100 100 100 100 100 100 100 100 100 100 100 100 100 100 100 100
100 100 100 100 100 100 100 100 100 100 100 100 75 55 5 5 5 5 74 5 0 0 0 0 0 6 67 80 100 80 82 86 100 100 100 100 100 100 100 100 100 100 100 100 100 100 100 100 100
100 100 100 100 100 100 100 100 100 100 100 100 65 58 17 5 5 8 100 11 5 0 0 0 0 0 16 100 100 100 22 100 100 100 100 100 100 100 100 100 100 100 100 100 100 100 100 100 100
100 100 100 100 97 100 100 100 100 100 100 99 72 50 89 18 50 92 98 100 6 0 0 0 1 0 0 92 100 100 100 100 99 98 100 100 100 100 100 100 100 100 100 100 100 100 100 100 100
100 100 100 100 100 100 100 100 100 100 100 100 97 80 98 95 41 82 27 100 93 5 0 0 0 0 0 0 82 100 100 100 100 100 100 100 91 100 100 100 100 100 100 100 100 100 100 100 100
100 100 100 100 100 100 100 100 100 100 100 100 97 100 98 98 100 100 20 28 100 98 42 0 2 0 0 5 3 50 100 100 100 100 100 100 67 3 4 51 100 100 100 100 100 100 100 100 100

GFSSGP_prec_cloud_069.txt.gz
Cloud_Cover
0 0 0 0 0 0 0 0 0 0 0 0 0 0 0 0 0 0 0 0 3 5 2 16 4 0 0 0 0 0 0 0 0 86 9 2 2 5 2 5 5 6 100 36 72 100 100 100 99
0 0 0 0 0 0 0 0 0 1 4 0 0 0 0 0 0 0 0 0 0 0 0 0 1 0 0 0 0 0 0 0 0 61 5 5 5 5 5 11 74 100 100 100 100 100 85 58 45
0 0 0 0 0 0 0 0 0 0 0 0 0 0 0 0 0 0 0 0 0 0 0 0 0 0 0 0 0 0 0 0 0 12 59 25 4 5 5 5 97 100 100 100 100 60 5 27 56
0 0 0 0 0 0 0 0 0 0 0 0 0 0 0 0 1 0 0 0 0 0 0 0 0 0 7 0 0 3 1 0 37 100 39 74 88 5 5 8 98 100 100 100 100 88 24 100 100
0 0 0 0 0 0 0 0 5 0 0 0 0 0 0 0 0 0 0 0 0 0 0 0 0 7 0 78 98 18 87 18 26 100 100 100 100 100 75 100 100 100 100 100 100 100 100 100 100
0 0 0 0 0 0 0 0 0 0 0 0 0 0 0 0 0 0 0 0 0 0 0 0 0 3 96 100 94 99 100 100 100 100 100 100 100 97 100 100 100 100 96 100 100 100 100 100 100
0 0 0 0 0 0 0 0 5 0 0 0 0 0 0 0 0 0 0 0 0 0 0 0 20 99 100 100 100 100 100 100 100 100 100 100 100 100 100 99 98 100 100 100 100 100 83 90 100
0 0 0 0 0 0 0 0 5 0 0 0 0 0 0 0 0 0 0 0 0 0 0 0 92 100 100 100 100 100 100 100 100 100 100 100 100 100 100 100 100 100 100 100 100 100 100 100 94
0 0 0 0 0 0 1 21 71 2 0 0 0 0 0 0 0 0 0 0 0 0 0 0 100 100 100 100 100 100 100 100 100 100 100 100 100 100 100 100 100 100 48 100 100 100 100 100 53
0 0 0 0 0 0 17 98 100 0 0 0 0 0 0 0 0 0 0 0 0 0 21 2 68 100 100 100 100 100 100 100 100 100 100 100 100 100 100 100 99 92 98 100 100 94 100 85 92
0 0 0 0 0 0 7 100 100 1 0 0 0 0 0 0 0 0 0 0 0 0 1 6 97 100 100 100 100 100 100 100 100 100 100 100 100 100 81 100 100 86 98 99 100 34 53 100 100
0 0 0 1 68 5 2 15 94 4 0 0 0 0 0 0 0 0 0 0 0 0 0 0 98 99 100 100 100 100 100 100 100 100 100 100 100 100 100 99 95 100 100 100 73 39 100 100 100
0 0 0 99 100 34 36 98 8 2 2 0 5 0 2 0 5 0 0 0 0 4 4 4 22 73 100 100 100 100 100 100 100 100 100 100 100 100 100 92 36 63 100 90 77 80 100 100 100
0 1 60 99 100 82 44 100 9 99 5 3 5 4 4 5 1 1 0 0 0 1 0 41 83 100 100 100 100 100 100 100 100 100 100 100 100 100 100 96 65 78 100 98 85 85 96 100 100
2 1 34 100 38 43 100 100 50 95 5 25 5 5 5 5 1 0 0 0 0 0 0 32 100 27 99 100 100 100 100 100 100 100 100 100 100 100 98 16 44 93 95 100 100 50 100 98 100
0 5 5 99 100 100 73 84 100 100 5 53 5 5 4 5 5 0 0 0 0 0 11 100 100 100 94 100 100 100 100 100 100 100 100 100 100 100 100 100 98 87 57 98 100 100 95 100 100
78 64 32 100 100 100 89 100 100 89 49 72 5 5 27 38 5 2 0 0 0 0 10 100 100 100 49 100 100 100 100 100 100 100 100 100 100 100 100 100 100 100 100 92 100 99 98 100 100
95 69 88 100 100 100 100 100 100 87 99 32 5 5 98 8 5 4 0 0 0 0 1 20 100 100 95 86 100 100 98 100 100 100 100 100 100 100 100 100 100 96 100 100 100 95 100 100 100
100 59 74 100 100 100 98 100 90 98 100 6 5 5 88 38 5 6 0 0 0 0 0 11 100 100 100 100 100 100 100 100 100 100 100 100 100 100 100 100 100 97 83 100 100 100 100 100 100
97 86 82 100 100 86 84 100 100 95 100 46 11 12 68 38 28 92 0 0 0 1 22 42 100 100 100 87 93 96 100 100 100 100 100 100 100 100 100 100 100 99 100 100 100 100 100 100 100
99 100 100 100 100 40 58 100 100 100 100 100 5 11 10 22 5 5 0 0 0 0 58 30 100 100 100 100 100 100 100 100 100 100 100 100 100 100 100 100 100 100 100 100 100 100 100 100 100
100 100 100 100 100 80 98 95 100 82 100 100 10 5 24 46 5 5 0 0 0 0 2 41 48 100 100 100 86 100 100 100 100 100 100 100 100 100 100 100 100 100 100 100 100 100 100 100 100
100 100 100 99 21 99 100 100 100 100 100 100 65 6 5 37 81 6 0 0 0 0 0 48 21 60 100 100 100 88 100 100 100 100 100 100 100 100 100 100 100 100 100 100 100 100 100 100 100
100 73 100 98 100 64 100 100 100 100 100 100 84 95 64 6 72 78 3 0 0 0 1 60 98 68 75 99 100 98 99 94 79 70 100 100 100 100 100 100 100 100 100 100 100 100 100 100 100
100 90 100 100 100 100 100 88 100 100 100 100 100 95 100 30 6 87 20 0 0 0 8 58 98 100 48 100 100 100 41 69 98 33 100 100 100 100 100 100 100 100 100 100 96 100 100 100 100
100 100 100 100 100 100 100 42 100 99 100 100 100 100 77 71 9 82 52 5 1 32 5 5 45 97 83 73 100 100 52 34 7 100 96 100 100 100 100 100 100 100 100 100 100 100 100 100 100
100 100 100 100 100 100 100 100 100 100 100 100 100 100 93 21 8 77 70 5 5 100 12 1 24 29 64 98 100 100 100 100 18 15 50 99 100 100 100 100 100 100 100 100 100 100 100 100 100
100 100 100 100 100 100 100 100 100 100 100 100 100 100 100 70 5 5 40 5 5 43 91 5 1 0 38 83 100 100 100 100 64 20 52 56 93 100 100 100 100 100 100 100 100 100 100 100 100
100 100 100 100 100 100 100 100 100 100 100 100 100 100 100 99 26 14 83 61 5 5 24 8 5 14 4 32 60 100 100 99 100 100 100 98 70 48 100 100 100 100 100 100 100 100 100 100 100
100 100 100 100 100 100 100 100 100 100 100 100 100 100 100 100 99 36 98 5 8 86 99 71 100 97 5 2 0 68 100 100 100 100 100 100 97 86 36 79 100 100 100 100 100 100 100 100 100

GFSSGP_prec_cloud_072.txt.gz
Cloud_Cover
0 0 0 0 0 0 0 0 0 0 0 0 0 0 0 0 0 0 0 0 0 29 42 5 0 4 0 0 0 4 1 0 5 5 32 0 5 5 20 6 4 5 5 5 34 94 100 100 13
0 0 0 0 0 0 0 0 0 0 0 0 0 0 0 0 0 0 0 0 0 2 48 26 0 0 0 1 4 29 2 0 0 0 0 0 4 35 4 45 5 5 82 49 84 100 100 49 5
0 0 0 0 0 0 0 0 0 0 0 0 0 0 0 0 0 0 0 0 0 0 25 48 0 0 0 3 12 0 0 10 0 0 88 4 4 0 1 5 76 100 95 100 100 100 65 25 67
0 0 0 0 0 0 0 0 0 0 0 0 0 0 0 0 0 0 0 0 0 0 0 0 4 0 0 0 4 0 0 13 0 0 91 100 5 5 2 5 11 75 75 100 100 98 90 100 100
5 5 4 0 0 0 0 0 0 0 0 0 0 0 0 0 0 0 0 0 0 0 0 0 16 0 0 0 1 0 13 80 99 52 94 64 10 68 63 14 5 30 35 86 100 100 100 97 91
6 100 31 0 0 0 0 0 0 0 0 0 0 0 0 0 0 0 0 0 0 0 0 0 1 40 20 0 1 99 100 100 100 100 100 100 100 100 100 100 41 26 40 74 81 92 100 100 100
100 100 96 2 0 0 1 0 0 0 0 0 0 0 0 0 0 0 0 0 0 0 1 0 0 10 65 2 4 100 100 100 100 100 100 100 100 100 100 100 100 100 38 99 97 93 66 98 100
89 16 2 0 0 0 3 0 0 1 5 2 0 0 0 0 0 0 0 0 0 0 3 16 17 17 31 92 100 100 100 100 100 100 100 100 100 100 100 100 100 100 99 61 56 88 30 100 100
34 0 0 0 4 0 0 0 0 22 40 2 0 0 0 0 0 0 0 0 13 5 2 30 41 60 98 100 100 100 100 100 100 100 100 100 100 100 100 100 100 100 100 97 27 55 62 100 100
2 0 0 0 0 0 0 0 0 0 82 0 0 0 0 0 0 0 0 0 0 26 15 32 52 44 54 100 100 100 100 100 100 100 100 100 100 100 100 100 98 100 100 60 93 97 70 100 100
0 1 4 3 0 0 4 4 0 2 3 0 0 0 0 0 0 0 0 0 0 4 20 33 51 68 100 100 100 100 100 100 63 100 100 100 100 100 100 100 100 52 100 100 94 100 96 100 100
6 1 1 0 0 0 0 5 0 0 0 6 0 0 0 0 0 0 0 0 3 21 29 27 67 29 61 100 100 100 100 100 100 100 100 100 100 100 100 100 100 100 100 100 100 92 100 93 100
9 1 0 1 0 0 0 1 0 0 22 100 3 0 0 2 0 2 0 5 0 11 16 48 94 100 80 100 100 100 100 100 100 100 100 100 100 100 100 100 100 100 100 76 57 92 93 82 100
0 2 0 0 0 0 0 0 0 15 100 100 0 3 0 5 4 3 5 11 0 8 15 11 48 74 98 100 100 100 100 100 100 100 100 100 100 100 100 100 100 76 100 99 94 100 95 64 99
0 0 0 0 0 0 36 2 0 100 100 69 5 6 1 5 4 5 0 3 0 2 0 1 8 89 100 100 100 100 100 100 100 100 100 100 100 100 100 100 100 100 39 100 89 99 96 68 91
0 0 0 0 0 10 100 2 89 100 99 7 54 5 5 5 5 4 2 3 0 7 1 0 0 5 34 100 100 100 100 100 100 100 100 100 100 100 100 100 100 100 99 88 95 69 100 92 99
0 0 2 0 1 88 100 84 100 100 100 40 94 5 52 5 49 6 5 3 0 0 11 6 6 51 92 100 100 100 100 100 100 100 100 100 100 100 100 100 100 100 94 78 83 100 89 62 100
4 5 5 3 77 100 100 84 100 52 4 76 99 18 61 5 38 7 5 3 2 1 0 0 73 100 44 82 100 100 100 100 100 100 100 100 100 100 100 100 100 100 100 100 69 65 50 88 100
5 5 5 5 98 2 0 40 100 47 3 98 5 62 100 7 23 5 37 5 2 0 0 53 100 79 81 80 91 100 100 100 100 100 100 100 100 100 100 100 100 100 100 100 99 68 100 82 100
24 14 38 6 100 4 0 7 24 96 62 100 34 82 100 8 13 33 6 18 3 26 3 11 53 99 72 100 91 100 100 100 100 100 100 100 100 100 100 100 100 100 100 100 99 100 100 100 100
65 61 59 98 100 0 3 40 6 61 100 100 47 90 91 53 5 5 5 4 28 47 60 94 100 94 95 100 91 97 100 100 100 100 100 100 100 100 100 100 100 100 100 100 100 100 100 100 100
5 86 85 100 90 1 29 29 5 88 100 100 100 99 70 79 2 10 5 4 54 80 65 65 64 74 89 100 100 88 100 93 96 100 100 100 100 100 100 100 100 100 100 100 100 100 100 100 100
40 100 100 100 50 4 97 96 100 100 100 100 100 100 85 99 85 32 5 5 4 87 97 53 43 41 26 96 78 96 100 95 100 100 100 100 100 100 100 100 100 100 100 100 100 100 100 100 100
100 100 100 100 98 39 69 100 100 100 100 100 100 100 35 90 96 5 49 4 3 92 100 77 46 39 30 54 97 67 85 97 100 100 100 100 100 100 100 100 100 100 100 100 100 100 100 100 100
100 100 100 100 97 52 100 100 100 100 100 100 100 100 100 97 100 29 5 5 39 95 100 100 46 84 62 51 74 63 64 96 42 100 100 100 100 100 100 100 100 100 100 100 100 100 100 100 100
100 100 100 99 43 100 100 100 100 100 92 100 100 100 100 100 18 5 5 34 42 56 100 100 96 84 100 96 67 96 100 95 100 37 96 97 50 95 100 100 100 100 100 100 100 100 100 100 100
100 100 100 98 58 100 100 100 100 100 99 99 100 100 100 11 92 19 46 58 22 37 95 98 100 71 100 99 85 100 100 94 38 1 4 4 73 86 100 100 100 100 100 100 100 100 100 100 100
100 100 100 100 100 100 100 100 100 98 87 100 34 100 100 100 82 96 94 100 86 5 30 66 78 55 96 26 91 74 100 100 67 0 0 0 18 46 99 100 100 100 100 100 100 100 100 100 100
100 100 100 100 100 100 100 100 100 100 100 100 84 100 100 100 100 100 100 100 23 7 17 31 47 64 80 95 100 38 100 100 100 94 2 0 0 2 38 77 100 100 100 100 100 100 100 100 100
100 100 100 100 98 100 100 100 100 100 52 50 99 99 100 100 100 100 100 100 100 55 5 5 39 67 81 73 100 11 55 100 100 100 87 13 24 12 0 31 70 100 100 100 100 100 100 100 100

GFSSGP_prec_cloud_075.txt.gz
Cloud_Cover
0 0 0 0 0 0 0 0 0 0 0 0 0 0 0 0 0 0 0 0 0 23 61 21 1 0 1 0 0 0 0 0 28 34 36 20 5 1 5 5 4 0 5 11 1 0 5 99 6
0 0 0 0 0 0 0 0 0 0 0 0 0 0 0 0 0 0 0 0 0 17 55 39 4 1 1 0 0 3 0 6 76 67 98 100 5 25 8 4 38 16 5 5 4 5 49 87 26
0 0 0 0 0 0 0 0 0 0 0 0 0 0 0 0 0 0 0 0 0 38 88 33 15 6 18 18 0 0 0 15 100 19 5 0 0 5 0 4 5 5 5 62 94 86 63 100 100
0 38 32 5 0 0 5 0 0 0 0 0 0 0 0 0 0 0 0 0 0 9 92 32 6 3 22 9 2 0 4 7 100 56 100 99 44 0 2 0 0 3 5 5 99 100 100 100 100
18 83 29 10 55 27 100 100 46 0 0 0 0 0 0 0 0 0 0 0 0 0 23 56 1 0 12 16 4 0 40 96 100 100 94 100 93 98 55 5 4 5 5 5 11 65 100 99 96
5 5 55 71 100 100 100 100 5 0 0 0 0 0 0 0 0 0 0 0 0 0 1 28 55 12 26 14 2 0 44 94 100 100 100 100 100 99 100 74 5 5 0 2 5 49 100 58 61
8 5 5 32 100 90 100 64 0 0 0 0 0 0 0 0 0 0 0 0 0 3 20 23 70 99 99 20 0 0 100 100 100 100 100 100 100 100 100 100 65 71 60 5 30 66 100 100 47
75 19 100 99 59 88 100 1 0 0 0 0 0 0 0 0 0 0 0 13 17 12 3 15 33 54 95 100 24 2 99 100 100 100 100 100 100 100 100 100 100 100 100 100 61 54 100 6 54
100 100 95 66 94 97 100 22 0 0 0 0 1 8 0 0 0 0 1 22 34 30 27 32 47 32 25 87 100 81 80 100 100 100 100 100 100 100 100 100 100 100 100 100 99 51 100 68 6
30 4 5 56 98 86 36 4 0 0 0 0 0 2 0 0 0 0 1 13 37 35 43 98 96 44 46 58 100 100 99 100 100 100 100 100 100 100 100 100 100 99 88 97 100 100 100 97 12
5 6 16 85 13 4 1 1 5 0 0 0 0 0 0 0 0 0 0 0 1 0 31 100 100 94 51 68 100 100 100 100 100 100 100 100 100 100 100 100 100 100 54 69 8 88 100 97 83
1 11 98 75 57 5 57 98 88 2 0 0 0 0 0 18 5 0 0 0 1 20 19 100 100 100 100 100 100 100 100 100 100 100 100 100 100 100 100 100 99 81 32 100 94 100 100 91 99
62 85 53 13 22 68 100 90 0 0 5 2 0 0 75 100 35 1 0 0 2 27 45 94 74 97 90 100 100 100 100 100 100 100 100 96 100 100 100 100 100 80 98 100 100 100 100 100 96
0 0 0 1 36 10 0 0 0 0 0 0 0 19 100 100 100 5 0 9 4 6 48 88 89 70 29 93 89 100 100 100 100 100 100 100 100 100 100 100 90 100 100 100 100 100 100 92 100
3 0 0 2 0 0 0 0 0 0 0 0 0 86 100 100 100 5 0 1 1 5 22 98 92 74 32 87 89 95 100 100 100 100 100 100 100 100 100 100 100 100 100 100 100 100 98 100 100
0 0 0 0 0 0 0 0 0 0 0 0 18 99 100 100 84 16 0 5 48 10 32 68 96 69 12 34 98 100 100 100 100 100 100 100 100 100 100 100 100 100 100 95 49 59 91 100 100
0 0 0 0 0 0 0 0 0 0 2 2 100 75 100 100 6 38 5 5 58 5 37 57 49 42 32 38 100 100 100 100 100 100 100 100 100 100 100 100 100 100 100 73 87 10 99 100 100
0 0 0 0 0 4 1 0 0 19 50 20 9 49 100 96 94 5 6 18 20 31 33 33 44 59 76 66 97 99 100 100 100 100 100 100 100 100 100 100 100 100 100 100 100 82 75 98 100
5 5 0 0 0 5 5 0 0 21 0 4 21 100 80 100 65 36 61 28 38 71 57 40 55 74 80 100 100 100 100 100 100 100 100 100 100 100 100 100 100 100 100 100 100 65 93 90 84
5 1 1 0 2 8 5 0 0 6 0 42 100 100 100 99 100 100 14 82 62 97 67 51 48 100 89 57 85 91 100 100 100 100 100 100 100 100 100 100 100 100 100 100 100 100 98 77 100
0 5 5 3 5 83 12 0 5 2 0 67 100 93 100 100 100 100 29 56 95 91 59 24 27 99 100 100 93 100 88 100 100 100 100 100 100 100 100 100 100 100 100 100 99 97 100 85 100
5 5 5 5 19 5 62 4 96 4 7 82 100 89 99 100 86 39 5 61 99 82 28 0 7 58 99 100 96 100 59 95 100 100 100 100 100 100 100 100 100 100 100 100 100 100 98 100 100
41 5 81 79 25 85 8 56 66 2 100 100 100 100 100 100 48 100 85 69 100 94 100 91 100 98 100 89 100 79 100 100 75 100 100 100 100 100 100 100 100 100 100 100 100 100 100 100 100
44 43 11 48 98 97 100 17 9 59 100 100 100 100 100 100 91 96 70 88 100 99 100 100 100 100 100 55 61 50 99 73 96 100 100 100 100 100 100 100 100 100 100 100 100 100 100 100 100
27 96 98 100 100 60 100 52 93 100 100 100 100 100 100 100 99 8 100 62 100 100 100 100 100 100 100 80 46 26 0 56 95 94 100 100 100 100 100 100 100 100 100 100 100 100 100 100 100
11 60 100 100 86 100 100 96 100 100 100 100 98 100 100 100 100 31 6 84 100 100 100 100 100 100 100 100 94 32 0 65 93 100 100 96 82 100 100 100 100 100 100 100 100 100 100 100 100
99 100 100 100 100 57 92 100 100 99 100 100 100 100 100 100 100 99 13 91 71 83 100 100 99 78 97 100 100 93 42 28 71 92 100 100 100 75 100 100 100 100 100 100 100 100 100 100 100
90 89 100 100 100 88 88 100 100 100 24 6 85 100 100 100 100 83 71 100 100 54 96 100 100 44 99 100 100 100 49 13 4 0 16 88 100 100 100 97 86 100 100 100 100 100 100 100 100
88 100 100 100 100 93 100 100 100 96 37 28 80 100 100 100 100 100 99 98 100 100 100 100 100 94 100 100 100 100 59 14 9 10 0 2 41 48 43 41 100 100 100 100 100 100 100 100 100
92 100 100 100 100 94 100 100 100 46 9 35 100 100 100 100 100 100 100 95 100 96 100 100 100 100 100 100 100 100 100 32 100 100 69 0 0 0 0 3 91 100 100 93 65 100 98 100 100

GFSSGP_prec_cloud_078.txt.gz
Cloud_Cover
0 0 0 0 0 0 0 0 0 0 0 0 0 0 0 0 0 0 0 0 0 3 84 36 14 45 8 0 0 13 26 10 0 0 1 56 1 78 3 16 5 5 6 30 5 5 0 64 14
0 0 0 0 0 0 0 0 0 0 0 0 0 0 0 0 0 0 0 0 0 2 95 61 13 44 44 5 0 1 32 21 7 0 31 70 24 0 4 2 0 0 5 5 5 6 30 57 5
2 0 0 0 0 0 0 0 0 0 0 0 0 0 0 0 0 0 0 0 2 29 87 51 39 57 68 11 0 0 18 51 63 13 2 48 31 34 12 1 18 3 24 5 5 49 50 100 100
5 4 5 5 5 3 0 5 0 3 0 0 0 0 0 0 0 0 0 0 10 49 36 20 30 25 83 16 0 0 0 23 57 19 30 28 74 96 51 3 2 2 92 47 5 96 96 95 100
6 5 5 13 80 27 16 11 34 5 7 1 1 0 0 0 0 0 0 0 5 95 76 46 31 30 26 68 1 0 0 49 76 33 31 92 87 93 100 54 64 1 8 70 62 53 100 100 22
32 32 15 16 84 10 95 100 8 4 1 0 0 0 0 0 0 0 0 0 0 18 78 100 53 42 4 47 5 0 0 30 100 99 100 94 100 91 100 100 100 74 2 5 100 25 78 79 11
48 7 5 16 73 100 100 94 78 5 0 0 0 0 0 0 0 0 0 0 0 0 18 54 100 93 37 27 2 0 0 9 100 100 100 100 100 100 100 100 100 100 5 5 13 39 34 77 78
51 8 86 100 100 100 100 97 76 2 0 0 0 0 0 0 0 0 0 0 0 23 15 32 100 100 100 100 34 21 26 100 100 100 100 100 100 100 100 100 100 100 59 18 64 42 8 5 39
94 100 88 77 48 24 92 99 100 0 0 0 0 0 0 0 0 0 26 69 70 48 33 38 100 100 100 100 100 50 15 100 100 100 100 100 100 100 100 100 100 100 100 100 100 77 100 30 73
59 28 24 5 5 39 11 41 97 4 4 5 0 0 0 0 2 5 11 87 100 93 98 96 100 81 96 81 50 71 58 100 100 100 100 100 100 100 100 100 100 100 100 100 100 64 10 74 91
58 72 83 69 4 0 4 2 8 3 5 0 0 0 0 0 5 0 0 0 26 22 50 100 100 82 100 100 100 98 100 100 100 100 100 100 100 100 100 100 100 100 100 100 100 39 29 22 100
5 9 8 8 3 3 16 1 5 4 0 0 2 0 2 32 0 0 0 0 2 10 29 99 100 100 100 100 100 100 100 100 100 100 100 100 100 100 100 100 100 100 100 100 52 77 46 79 98
99 98 100 100 89 37 37 11 5 0 4 16 1 2 1 0 0 0 8 9 5 2 32 100 100 100 86 93 94 100 100 100 100 100 100 100 100 100 100 100 100 100 100 100 89 100 100 85 99
100 100 100 100 100 68 10 26 1 2 5 0 0 0 0 0 0 4 95 36 23 5 48 100 100 98 100 100 91 100 100 100 100 100 100 100 100 100 100 96 100 100 100 100 100 100 100 100 100
100 100 99 80 11 30 4 0 0 6 3 0 0 0 0 0 3 96 32 75 41 4 41 100 99 100 58 88 82 100 100 100 100 100 100 100 100 100 100 81 100 100 100 100 72 62 100 93 47
84 58 58 5 2 3 0 2 0 0 0 0 0 0 0 0 98 45 30 99 7 15 72 100 100 100 61 80 83 90 100 100 100 100 100 100 100 100 100 100 100 100 100 100 100 100 100 100 100
60 5 2 43 14 5 0 0 0 2 0 0 0 0 0 12 58 74 100 37 4 6 46 100 100 100 74 89 100 100 100 100 100 100 100 100 100 100 100 100 100 100 100 100 100 100 100 97 77
55 100 93 89 57 1 0 0 0 4 0 0 0 0 0 81 84 100 100 41 7 28 34 100 100 100 98 100 100 97 100 100 100 100 100 100 100 100 100 100 100 100 100 100 100 100 96 99 91
100 100 100 68 4 1 0 0 0 0 0 0 0 0 19 75 100 83 100 86 48 87 88 100 100 100 100 100 100 100 100 100 100 100 100 100 100 100 100 100 100 100 100 100 100 100 100 100 100
100 100 100 44 2 0 0 0 0 0 0 0 0 0 84 100 100 100 100 86 100 93 100 100 100 100 100 54 100 82 100 100 100 100 100 100 100 100 100 100 100 100 100 100 100 100 100 100 100
100 93 8 0 0 0 0 1 0 0 0 0 0 16 100 100 100 100 97 96 73 57 100 100 100 100 99 98 100 80 98 100 100 100 100 100 100 100 100 100 100 100 100 100 100 100 100 100 100
100 16 5 5 24 5 2 17 0 0 0 0 2 100 100 100 100 100 100 82 28 78 100 100 100 100 100 40 100 82 100 100 100 100 100 100 100 100 100 100 100 100 100 100 98 98 100 99 100
100 100 12 5 6 23 5 5 5 3 0 0 100 100 100 100 98 100 100 100 9 100 100 93 88 100 100 100 100 6 55 98 100 100 100 100 100 100 100 100 100 100 100 100 100 100 100 100 100
98 99 22 22 63 98 4 5 96 94 83 63 100 100 100 100 93 93 91 100 72 100 75 50 35 65 99 100 100 3 52 100 79 99 100 100 100 100 100 100 100 100 100 100 100 100 100 100 100
100 82 50 98 100 83 44 37 100 100 90 100 100 100 100 100 98 66 95 96 82 100 55 65 100 100 100 100 100 84 12 100 83 84 99 100 100 100 100 100 100 100 100 100 100 100 100 100 100
100 90 61 70 97 41 69 96 100 100 100 100 100 100 100 100 85 91 100 100 31 97 92 100 100 100 100 100 100 94 0 8 18 38 72 100 100 100 100 100 100 100 100 100 100 100 100 100 100
100 100 84 99 100 94 78 100 100 100 99 100 100 94 100 100 100 100 100 69 21 77 100 100 100 100 100 100 100 100 59 25 100 100 90 100 100 98 100 100 100 100 100 100 100 100 100 100 100
94 100 99 100 96 100 100 100 100 100 100 100 100 84 100 100 100 88 23 100 97 100 100 100 100 100 100 100 100 100 100 100 100 100 97 100 100 59 61 30 98 100 100 100 100 100 100 100 100
99 100 100 100 100 46 100 100 100 100 100 100 100 100 100 100 100 100 81 97 100 100 100 100 100 100 100 100 100 100 100 100 99 74 89 56 98 100 100 76 88 100 100 100 99 100 100 100 100
100 100 89 100 100 82 99 100 100 100 100 100 100 100 100 100 100 100 100 100 100 100 100 100 100 100 100 100 100 100 100 100 84 73 100 100 68 79 100 100 100 100 100 100 100 100 100 100 100

GFSSGP_prec_cloud_081.txt.gz
Cloud_Cover
0 0 0 0 0 0 0 0 0 0 0 0 0 0 0 0 0 0 0 0 0 0 26 12 100 97 0 0 3 12 1 0 0 0 0 0 3 1 86 5 5 6 25 8 39 5 6 67 12
4 5 5 1 0 0 0 0 0 0 0 0 0 0 0 0 0 0 0 0 0 0 22 22 98 100 0 0 10 6 25 0 7 11 1 0 17 36 0 0 0 5 5 5 9 13 100 64 5
6 5 5 4 3 4 5 0 0 0 0 0 0 0 0 0 0 0 0 0 0 0 54 60 43 100 17 0 0 3 100 40 29 37 5 6 0 64 82 52 0 0 0 69 69 61 87 8 9
6 4 4 5 78 71 5 0 0 0 0 0 0 0 0 0 0 0 0 0 0 0 40 41 3 100 100 0 0 0 55 100 100 17 0 0 9 83 74 21 5 0 2 7 7 66 7 31 61
12 14 5 19 100 45 5 2 0 0 0 0 0 3 2 0 0 0 0 0 0 0 26 43 11 98 100 70 0 0 0 62 99 53 1 0 45 33 85 99 34 99 52 2 5 84 31 61 88
100 100 18 8 83 5 9 5 2 0 0 0 5 4 0 0 0 0 0 0 0 28 55 97 61 6 100 97 0 0 0 1 58 94 24 7 100 100 100 100 100 100 100 99 17 37 73 79 56
100 100 59 14 99 83 91 9 4 0 3 3 2 2 1 0 0 0 0 0 2 8 92 100 100 63 94 100 20 0 0 0 0 78 100 100 100 100 100 100 100 100 100 97 24 95 35 82 100
100 100 96 100 100 100 74 3 10 10 51 5 0 0 0 0 0 0 0 1 2 0 22 89 100 100 53 89 90 0 0 0 0 57 100 100 100 100 100 100 100 100 100 100 30 87 100 93 13
100 100 100 100 100 100 100 73 75 96 2 0 0 0 0 0 0 0 0 11 27 25 10 43 100 100 71 100 100 40 8 5 24 100 100 100 100 100 100 100 100 100 100 100 29 10 59 30 5
100 100 100 100 100 55 37 14 38 17 4 2 2 0 0 0 0 0 0 1 6 93 97 84 100 100 100 100 100 100 100 77 100 100 98 100 100 100 100 100 100 100 100 100 100 88 92 62 95
100 100 100 100 100 96 19 79 42 5 1 0 0 0 0 0 0 2 5 4 1 52 100 100 100 100 100 100 100 100 100 100 51 100 100 100 100 100 100 100 100 100 100 100 100 100 100 100 86
100 100 100 100 97 87 69 5 4 4 0 3 5 0 0 0 0 0 0 2 0 12 72 100 100 100 100 100 100 100 100 100 98 97 100 100 100 100 100 100 94 100 100 100 100 93 85 64 52
78 100 94 84 83 29 7 40 46 41 87 100 52 1 0 0 0 0 0 0 0 2 28 100 100 100 63 90 100 100 100 100 100 91 99 100 100 100 100 100 99 100 100 100 93 89 79 68 56
100 100 100 100 100 100 100 100 100 100 97 17 2 0 0 0 0 0 0 0 0 2 7 100 100 100 60 97 91 100 100 100 100 100 100 100 100 100 100 100 100 100 100 100 92 36 62 99 16
100 100 100 100 100 100 100 100 29 10 2 0 0 0 0 0 0 0 0 0 0 1 5 100 100 100 30 99 90 100 100 100 100 100 100 100 100 100 100 100 100 100 100 100 99 95 89 100 100
100 100 100 100 100 100 100 100 59 10 2 0 0 0 0 0 0 0 0 0 0 0 5 100 98 60 77 69 84 100 100 100 100 100 100 100 100 100 100 100 100 100 100 100 100 100 46 97 99
100 100 100 100 100 100 59 5 9 20 0 0 0 0 0 0 0 0 0 0 0 28 26 100 95 99 94 100 100 100 100 100 100 100 100 100 100 100 100 100 100 100 100 100 100 100 100 98 100
100 100 99 100 100 18 4 2 4 18 1 0 0 0 0 0 0 0 0 2 10 100 95 100 100 78 88 100 96 79 100 100 96 100 100 100 100 100 100 100 100 100 100 100 100 100 100 100 100
100 100 100 100 100 12 6 3 5 5 5 0 0 0 0 0 0 0 0 5 100 85 100 100 100 72 98 100 100 100 98 94 78 94 100 100 100 100 100 100 100 100 100 100 100 100 100 100 86
100 100 100 100 100 77 8 47 8 5 0 0 0 0 0 0 0 0 0 60 97 78 87 100 98 85 100 100 80 100 100 100 89 100 100 100 100 100 100 100 100 100 100 100 100 100 100 100 100
100 100 100 100 100 86 36 18 59 5 0 0 0 0 0 0 0 0 50 100 68 94 87 100 100 100 100 100 89 100 100 100 100 100 100 100 100 100 100 100 100 100 100 100 100 100 100 100 100
99 100 100 100 64 100 74 13 7 5 2 0 0 0 0 0 0 72 100 100 98 100 50 100 100 100 100 95 45 100 100 100 98 100 100 100 100 100 100 100 100 100 100 100 100 100 100 100 100
100 100 100 100 100 100 74 63 5 55 0 0 0 0 0 0 5 86 100 95 36 33 69 100 100 100 100 57 4 100 100 100 100 100 100 100 100 100 100 100 100 100 100 100 100 100 100 100 100
100 100 100 100 100 100 99 18 5 82 0 5 0 3 0 1 94 100 100 29 7 82 98 100 100 100 100 72 61 97 38 100 100 100 100 100 100 100 100 100 100 100 100 100 100 100 100 100 100
100 100 100 100 100 72 16 38 80 4 4 3 47 8 0 28 100 100 100 98 95 93 99 100 100 100 100 78 98 100 52 100 100 100 100 100 100 100 100 100 100 100 100 100 100 100 100 100 100
100 100 100 100 98 93 7 33 61 6 17 66 100 95 34 100 100 100 100 100 100 68 100 100 85 100 100 100 100 100 58 80 100 100 100 99 100 100 100 100 100 100 100 100 100 100 100 100 100
100 100 99 73 42 94 81 100 8 17 97 71 100 100 100 100 100 100 100 100 100 84 100 100 98 100 100 100 100 100 86 44 66 54 97 100 100 100 100 100 100 100 100 100 100 100 100 100 100
100 100 100 98 73 86 88 99 30 69 100 99 100 100 100 100 100 100 100 80 100 99 100 100 100 100 100 100 92 100 100 96 94 100 100 100 100 100 100 100 100 100 100 100 100 100 100 100 100
100 100 99 97 95 70 91 74 99 100 100 100 100 100 100 100 100 100 100 100 97 100 100 100 100 100 100 100 100 100 100 100 100 100 14 42 95 100 100 100 100 100 100 100 100 100 100 100 100
100 100 100 100 95 91 98 21 97 100 100 100 100 100 100 100 100 100 100 100 100 100 100 100 100 100 100 100 100 100 100 100 100 100 98 100 100 100 100 100 100 100 100 100 100 100 100 100 100

GFSSGP_prec_cloud_084.txt.gz
Cloud_Cover
0 5 1 0 0 0 0 0 0 0 0 0 0 0 0 0 0 0 0 0 0 0 0 2 0 0 1 10 12 0 0 0 0 0 0 0 0 0 0 4 5 5 5 5 5 5 2 5 9
62 28 4 0 2 4 5 4 0 0 0 0 0 0 0 0 0 0 0 0 0 0 0 0 87 0 0 0 0 0 0 0 2 2 15 4 1 0 0 5 5 5 5 5 64 89 10 16 0
54 53 8 5 5 5 7 4 0 0 0 0 0 0 0 0 0 0 0 0 0 0 0 0 87 10 0 0 0 0 11 0 1 4 2 0 0 3 5 0 4 1 5 0 5 61 55 6 5
6 15 32 5 5 40 5 4 0 0 0 0 0 0 0 0 0 0 0 0 0 0 0 40 30 22 0 0 0 0 92 0 0 0 0 0 4 97 7 65 35 2 0 0 2 5 20 100 5
97 48 33 51 83 5 4 0 0 0 5 0 0 0 0 0 0 0 0 0 0 0 0 0 2 19 0 0 0 0 30 95 68 4 0 0 0 18 34 82 100 100 24 10 16 6 39 83 5
96 51 52 83 99 71 91 72 62 5 0 0 0 4 4 0 0 0 4 1 0 0 0 0 13 0 2 0 0 0 0 10 99 52 0 0 0 100 100 100 100 100 100 100 100 100 66 35 5
100 100 100 100 100 100 100 100 100 9 0 0 3 5 2 0 13 5 2 0 0 0 0 14 20 25 75 54 0 0 0 0 0 0 0 52 100 100 100 100 100 100 100 100 100 100 100 10 5
94 100 100 100 100 100 100 100 100 9 5 5 0 4 22 100 8 3 0 0 0 0 1 86 98 96 100 100 51 0 0 0 0 0 3 100 100 100 100 100 100 100 100 100 100 100 43 21 5
29 29 100 100 100 100 100 100 86 39 43 35 75 100 100 57 5 2 0 0 0 0 0 15 100 97 100 95 89 50 13 1 3 1 8 100 100 100 100 100 100 100 91 100 100 100 31 6 5
1 79 100 100 100 100 100 100 99 96 100 100 100 90 98 67 5 6 0 0 0 0 0 2 100 97 93 100 66 36 62 23 8 10 26 100 100 100 100 100 100 100 100 100 100 100 6 4 55
3 5 26 100 100 100 100 100 100 100 100 100 99 86 14 6 5 3 0 0 0 0 5 11 100 100 27 54 63 48 67 62 42 55 32 100 100 100 100 100 100 100 100 100 100 100 62 43 74
4 4 5 42 100 100 100 100 100 100 98 100 82 70 6 5 1 1 1 1 0 0 0 23 100 100 76 74 100 100 94 100 99 59 39 56 100 100 100 100 100 100 100 100 100 100 100 100 98
12 5 5 0 5 90 100 100 100 100 100 100 56 4 16 36 74 63 5 5 2 0 0 6 27 76 80 100 100 100 100 100 100 90 92 32 100 89 100 100 100 100 100 100 100 100 100 100 100
100 5 6 5 59 99 52 95 6 100 76 76 30 84 100 97 28 44 26 0 0 0 0 0 0 14 24 24 99 100 100 100 100 100 87 69 100 99 100 100 100 100 100 100 100 100 97 100 95
98 100 99 99 100 100 100 97 100 100 98 100 100 100 86 96 21 0 0 0 0 0 0 7 12 24 12 41 56 100 100 100 95 99 99 80 100 100 100 100 100 100 100 100 100 100 82 91 100
100 100 100 100 100 100 76 98 100 100 100 100 100 100 91 36 8 2 0 0 0 0 0 17 14 9 13 57 53 61 91 94 94 100 100 100 100 100 100 100 100 100 100 100 100 100 100 100 100
100 100 100 100 100 100 100 100 98 100 100 100 100 83 33 28 5 0 0 0 0 0 0 3 29 20 56 99 100 99 61 93 100 100 100 100 100 100 100 100 100 100 100 100 100 100 100 96 100
100 88 74 100 100 100 100 100 100 100 100 100 94 29 75 8 2 0 0 0 0 0 0 5 29 97 68 100 100 100 82 100 100 100 100 100 100 100 100 100 100 100 100 100 100 100 100 92 100
100 94 100 100 100 100 100 100 100 100 100 52 18 65 23 5 0 0 0 0 0 0 0 5 99 81 97 100 87 100 98 88 100 100 100 100 100 100 100 100 100 100 100 100 100 100 100 100 100
100 100 97 100 100 100 100 100 100 100 98 100 100 68 10 0 0 0 0 0 0 0 0 26 39 94 86 15 12 63 84 92 100 100 79 74 98 100 100 100 100 100 100 100 100 100 100 100 100
100 100 100 100 100 100 100 100 100 100 100 90 93 7 0 0 0 0 0 0 0 0 0 38 44 97 56 5 18 95 91 71 87 80 85 50 63 100 100 100 100 100 100 100 100 100 100 100 100
100 100 100 100 100 100 100 100 100 100 100 100 5 28 4 0 0 0 0 0 0 1 7 50 74 49 83 38 39 67 3 50 71 58 71 100 100 100 100 100 100 100 100 100 100 100 100 100 100
100 100 100 100 100 100 100 100 100 100 97 7 5 5 0 0 0 0 0 0 0 47 94 85 99 79 61 42 12 24 35 64 80 98 81 100 100 100 100 100 100 100 100 100 100 100 100 100 100
100 100 100 100 100 100 100 100 100 100 98 7 3 3 0 0 0 0 0 0 9 42 78 98 100 100 95 44 18 20 62 60 52 93 100 100 100 100 100 100 100 100 100 100 100 100 100 100 100
100 100 100 100 100 100 100 87 100 100 58 6 1 3 0 0 1 0 0 3 100 97 100 100 100 100 86 68 28 90 85 57 25 94 100 100 100 100 100 100 100 100 100 100 100 100 100 100 100
100 100 100 100 100 100 100 100 99 58 88 63 18 0 0 0 5 18 94 42 96 94 100 100 100 100 99 43 49 90 100 72 81 96 100 100 100 100 100 100 100 100 100 100 100 100 100 100 100
100 100 100 100 100 100 100 99 100 99 99 8 5 2 2 41 40 15 100 100 100 100 100 100 100 100 100 48 90 86 100 100 92 100 100 100 100 100 100 100 100 100 100 100 100 100 100 100 100
100 100 100 100 100 100 100 100 100 85 68 26 5 8 21 95 100 100 100 100 100 100 100 100 100 100 100 100 99 100 100 100 100 100 100 100 96 100 100 100 100 100 100 100 100 100 100 100 100
100 100 100 100 100 100 99 91 14 100 53 63 5 50 81 94 100 100 100 100 100 100 100 100 100 100 100 94 100 100 100 100 100 100 100 100 81 100 100 100 100 100 100 100 100 100 100 100 100
100 100 100 100 100 100 99 50 21 36 68 45 98 59 95 100 100 100 100 100 100 100 100 100 100 100 100 100 100 100 88 100 100 100 100 100 100 98 100 91 100 100 100 100 100 100 100 100 100

GFSSGP_prec_cloud_087.txt.gz
Cloud_Cover
94 88 5 0 0 0 0 0 0 0 0 0 0 0 0 0 0 4 0 0 0 0 0 1 0 0 0 0 0 0 0 0 0 0 0 0 0 0 0 0 0 5 3 8 18 7 0 5 21
5 5 14 5 1 0 2 5 2 0 0 0 0 0 0 0 0 0 0 0 0 0 0 0 0 0 0 0 0 0 0 0 0 0 0 0 0 0 0 0 0 5 5 5 5 32 22 15 0
38 5 5 5 12 54 44 10 0 0 0 0 0 0 0 0 0 0 0 0 0 0 0 0 0 0 0 0 0 0 0 0 2 0 0 0 0 0 0 0 24 79 22 5 4 23 17 0 0
10 45 27 5 7 60 10 55 0 0 0 0 5 5 0 0 0 0 0 0 0 0 0 40 0 0 0 0 0 0 0 19 40 3 0 0 0 0 30 100 100 63 5 0 1 5 22 5 0
67 26 54 70 100 63 22 31 0 4 0 0 0 0 0 0 0 0 0 0 0 0 0 0 0 0 0 0 0 0 0 90 24 32 0 0 0 29 12 48 100 63 100 100 100 100 90 100 100
0 100 100 100 97 43 29 54 49 6 5 3 6 26 29 5 0 0 0 0 0 0 0 3 0 0 0 0 0 0 0 99 88 13 0 0 0 0 63 100 100 100 100 100 100 100 100 100 100
0 5 66 100 100 100 100 100 100 11 5 65 100 99 100 5 1 0 0 0 0 0 5 0 0 1 0 0 0 0 0 4 100 13 0 0 1 5 88 100 100 100 100 100 100 100 100 100 100
1 0 0 22 74 100 100 100 100 97 100 94 78 100 100 10 72 5 2 3 0 3 5 0 0 4 13 2 2 0 0 0 0 0 0 0 4 78 100 100 100 100 100 100 100 100 100 100 100
41 0 0 0 3 8 97 100 100 100 100 100 100 100 100 100 15 23 5 5 26 18 3 8 7 2 10 86 8 46 24 1 10 30 1 53 1 99 100 100 100 100 100 100 100 100 100 100 50
4 1 21 6 4 0 11 21 100 100 100 100 100 100 100 100 28 99 100 9 14 4 5 2 92 75 100 2 98 48 79 4 0 1 0 0 10 100 100 100 100 100 100 100 100 100 100 100 56
99 18 89 96 36 4 0 9 100 100 97 100 100 100 100 100 100 100 96 9 5 5 2 1 43 73 68 98 63 5 66 68 73 61 37 42 1 100 100 100 100 100 100 100 100 100 100 83 35
100 100 100 97 27 28 9 5 54 67 100 100 100 100 100 100 100 100 99 6 5 4 4 0 18 76 0 0 1 0 43 67 69 62 52 24 17 81 100 100 100 100 100 100 100 100 100 100 37
28 56 93 100 97 5 78 10 95 14 3 100 100 100 100 100 100 100 100 80 36 25 3 3 0 8 0 0 59 90 72 90 54 39 51 25 88 25 100 100 100 100 100 100 100 100 100 100 66
72 100 58 85 100 60 8 16 1 4 5 6 61 100 100 100 100 100 100 100 59 6 1 0 2 5 0 10 90 100 97 60 83 82 54 62 68 76 92 100 100 100 100 100 100 100 100 100 82
5 20 80 100 100 100 100 6 5 17 5 2 5 13 8 32 100 100 100 100 66 5 5 0 4 12 9 0 35 98 100 42 100 100 96 62 61 87 49 100 100 100 100 100 100 100 100 100 72
99 19 5 71 100 100 100 100 100 76 100 100 100 100 99 100 100 100 100 100 100 58 0 0 0 12 10 0 2 45 72 100 100 100 49 83 53 71 46 54 97 100 100 100 100 100 100 100 100
86 35 100 100 100 100 100 100 100 100 100 100 100 100 100 100 100 100 100 100 20 1 0 0 2 20 19 0 1 18 72 99 97 100 71 29 37 57 64 70 100 100 100 100 100 100 100 100 100
100 79 80 100 100 98 100 100 100 100 100 100 100 100 100 100 100 100 100 84 39 2 0 0 17 20 35 28 52 27 38 96 100 100 100 61 98 100 100 100 100 100 100 100 100 100 100 100 100
100 100 100 100 95 99 97 77 36 100 100 100 100 100 100 100 100 100 86 10 5 0 0 0 22 17 74 56 90 14 37 94 100 100 100 100 100 100 100 100 100 100 100 100 100 100 100 100 100
100 100 100 100 100 71 94 20 98 100 100 100 100 100 100 100 100 100 100 84 3 0 0 0 7 7 46 26 7 5 31 50 94 66 52 84 98 100 100 100 100 100 100 100 100 100 100 100 100
100 100 100 96 100 100 98 44 100 97 100 100 100 100 100 100 99 96 35 8 0 0 0 0 0 7 98 18 10 7 44 89 79 10 29 87 30 97 88 100 100 100 100 100 100 100 100 100 100
100 100 100 100 100 100 77 80 100 100 100 100 100 100 100 100 100 100 16 4 0 0 0 0 0 1 84 28 5 56 16 6 18 48 100 100 81 95 90 100 100 100 100 100 100 100 100 100 100
96 100 100 100 100 100 100 100 100 100 100 100 100 100 100 100 100 100 7 4 5 0 0 0 0 6 69 54 48 74 94 5 12 60 91 100 99 88 92 100 100 100 100 100 100 100 100 100 100
100 100 100 100 100 100 100 81 100 100 93 100 100 100 100 100 96 12 23 14 65 15 0 0 4 49 99 61 96 94 22 1 2 14 100 100 95 100 100 100 100 100 100 100 100 100 100 100 100
100 100 100 100 100 100 100 100 100 100 100 100 100 100 100 100 22 38 73 5 2 34 0 20 24 85 90 88 97 79 6 0 2 52 92 100 100 100 100 100 100 100 100 100 100 100 100 100 100
100 100 100 100 100 100 100 100 100 100 100 100 100 100 100 100 26 3 27 0 0 0 0 50 100 100 100 100 91 34 13 0 9 100 89 92 100 100 100 100 100 100 100 100 100 100 100 100 100
100 100 100 100 100 100 100 100 100 100 100 100 100 100 10 18 5 7 0 0 0 3 36 82 100 100 100 100 100 27 21 14 34 100 55 99 88 95 100 100 100 100 100 100 100 100 100 100 100
100 100 100 100 100 100 100 100 100 100 100 100 100 69 13 3 2 77 11 51 71 52 98 100 100 100 100 100 99 28 27 74 97 100 78 100 98 97 100 100 100 100 100 100 100 100 100 100 100
100 100 100 100 100 100 100 100 100 100 100 100 100 65 5 0 17 100 94 43 100 99 100 100 100 100 100 100 98 82 99 100 41 30 95 100 100 97 100 100 100 100 100 100 100 100 100 100 100
100 100 100 100 100 100 100 100 100 100 100 100 100 6 4 5 46 100 100 100 100 100 100 100 100 100 100 100 100 100 100 100 100 100 100 100 100 93 100 100 100 100 100 100 100 100 100 100 100

GFSSGP_prec_cloud_090.txt.gz
Cloud_Cover
0 0 2 5 1 0 0 4 5 0 0 0 0 0 0 0 0 1 0 0 0 0 0 0 0 0 0 0 0 0 0 0 0 0 0 0 0 0 0 0 0 0 0 3 16 1 19 7 0
0 0 3 2 2 3 25 8 30 4 0 0 0 0 0 0 0 0 0 0 0 0 0 0 0 0 0 0 0 0 0 0 0 0 0 0 0 0 0 0 0 0 0 0 12 9 11 19 0
0 0 0 13 3 16 30 20 64 52 0 0 6 0 1 0 0 0 0 0 0 0 0 0 0 0 0 0 0 0 0 0 0 0 0 0 0 0 0 0 0 20 53 99 100 100 100 2 0
0 0 0 0 64 100 100 100 9 0 1 4 4 5 5 0 0 0 0 0 0 0 0 20 0 0 0 0 0 0 0 5 0 0 0 0 0 0 0 0 0 3 100 100 95 90 38 49 6
0 0 0 0 0 100 100 95 100 4 5 5 3 5 5 2 0 0 0 10 5 4 0 0 0 0 0 0 0 0 0 11 100 8 0 0 0 0 0 0 0 86 100 100 100 100 100 100 100
0 0 0 0 0 79 100 100 100 59 65 11 9 16 4 0 0 23 77 100 43 6 1 0 0 0 0 0 0 0 0 63 100 100 28 0 0 0 0 0 5 100 100 100 100 100 100 100 100
0 0 0 0 0 5 57 82 100 78 100 100 100 100 58 2 27 100 100 100 98 5 5 4 0 2 0 0 0 0 0 75 100 100 0 0 0 0 0 0 10 100 100 100 100 100 100 100 100
87 1 0 0 0 0 0 1 42 100 100 100 99 73 98 66 100 22 100 76 91 100 33 64 4 0 2 4 7 0 0 0 33 97 0 0 0 0 0 0 99 100 100 100 100 100 100 100 100
97 52 25 2 0 0 0 0 0 39 95 100 100 100 100 100 100 100 100 81 100 100 84 21 10 5 5 2 0 11 0 1 7 26 0 25 0 0 0 0 77 100 100 100 100 100 100 100 100
100 100 87 48 49 1 0 0 0 0 1 25 94 59 100 100 100 100 100 100 100 100 99 58 80 10 5 0 0 0 0 5 0 0 0 0 0 0 0 0 64 100 100 100 100 100 100 100 100
45 4 3 86 100 100 99 2 3 4 4 4 2 32 73 100 100 100 100 100 100 100 100 100 100 32 3 0 0 0 0 0 0 0 0 0 0 0 0 2 64 100 100 100 100 100 100 100 100
97 9 7 5 27 68 50 100 100 81 55 5 5 0 3 88 100 100 100 100 100 100 100 100 100 100 100 6 4 0 0 0 0 0 0 1 0 0 12 6 18 100 100 100 100 100 100 100 100
6 5 6 8 31 18 5 52 100 100 84 71 5 2 4 5 8 100 100 100 100 100 100 100 100 100 84 5 2 0 0 0 3 0 0 0 12 0 33 44 39 100 100 100 100 100 100 100 100
84 35 96 100 100 21 5 3 1 90 100 98 40 3 4 2 1 13 100 100 100 100 100 100 100 100 19 0 0 0 0 25 2 0 0 1 6 0 100 100 100 100 100 100 100 100 100 100 100
100 100 100 100 67 5 100 6 0 7 100 100 15 5 4 5 2 6 100 100 80 36 81 42 92 41 24 15 2 0 5 65 43 14 2 100 8 30 100 100 100 100 100 100 100 100 100 100 100
39 42 79 100 6 5 98 0 5 94 100 100 5 5 5 41 5 92 100 100 100 97 70 89 79 68 5 0 0 57 69 100 50 4 34 99 2 98 100 100 100 100 100 100 100 100 100 100 100
99 1 5 2 53 93 100 0 2 100 96 3 99 100 100 54 33 100 100 100 100 95 99 98 100 100 88 0 21 19 0 16 1 10 57 79 17 31 100 100 100 100 100 100 100 100 100 100 100
13 5 3 0 50 100 30 9 5 82 69 9 95 100 100 91 100 100 100 100 100 100 100 100 100 28 0 1 55 36 12 0 5 100 97 86 24 7 15 82 85 63 100 100 100 100 100 100 100
5 5 5 5 35 100 5 12 95 100 88 100 100 100 100 100 100 100 100 100 100 100 100 100 9 21 4 6 63 24 0 0 96 100 100 2 23 42 11 55 66 62 61 100 100 100 100 100 100
61 5 0 1 10 100 100 50 100 49 100 100 100 100 100 100 100 100 100 100 100 100 100 100 100 62 1 2 50 1 0 0 13 99 100 100 98 30 0 100 100 100 100 100 100 100 100 100 100
4 4 4 3 100 100 100 93 100 100 100 99 98 100 100 97 100 100 100 100 100 100 100 100 41 0 3 25 78 6 1 29 19 24 98 100 100 93 48 47 100 100 100 100 100 100 100 100 100
5 67 80 77 95 95 100 7 98 100 100 100 85 92 97 74 99 100 100 100 100 100 100 100 99 5 3 66 7 11 0 6 3 9 29 8 28 45 50 43 92 94 100 100 100 100 100 100 100
2 33 26 36 91 14 100 29 96 100 100 100 88 85 100 99 100 100 100 100 100 100 100 100 100 52 0 75 15 8 5 32 5 5 3 20 100 98 86 100 83 98 100 100 100 100 100 100 100
57 20 100 82 77 5 100 99 97 100 100 100 15 100 100 100 100 100 100 100 100 100 99 98 86 2 2 17 23 14 42 3 24 5 0 100 82 100 100 96 85 99 100 90 100 100 100 100 100
90 32 91 85 100 83 100 100 100 100 100 99 100 100 100 100 100 100 100 100 100 100 86 62 5 0 0 36 93 15 10 34 13 0 18 58 99 100 100 100 98 100 100 100 100 100 100 100 100
76 62 37 100 100 100 100 100 100 100 100 100 100 100 100 100 100 100 100 100 100 96 19 98 5 0 0 72 94 55 58 51 16 0 97 81 97 8 97 100 99 100 100 100 100 100 100 100 100
5 12 100 100 100 100 100 100 100 100 100 100 100 100 100 100 100 100 100 100 100 25 52 5 6 0 10 100 89 100 83 42 5 1 6 96 89 100 100 100 100 100 100 100 100 100 100 100 100
7 42 67 100 100 100 100 100 100 100 100 100 100 100 100 100 100 100 100 100 34 8 4 17 9 22 96 100 81 100 89 45 5 17 2 14 95 67 100 100 100 100 100 100 100 100 100 100 100
96 10 65 100 99 100 100 100 100 100 100 100 100 100 100 100 100 100 100 100 100 100 54 56 47 64 87 100 100 100 62 53 66 100 67 68 78 98 16 94 100 100 100 100 100 100 100 100 100
100 74 86 100 100 100 100 100 100 100 100 100 100 100 100 100 100 100 100 100 100 100 100 100 86 100 100 100 100 100 100 99 100 100 85 100 100 100 100 68 100 100 100 100 100 100 100 100 100

GFSSGP_prec_cloud_093.txt.gz
Cloud_Cover
0 0 0 0 0 0 0 44 91 100 72 0 4 3 2 0 0 0 0 0 0 0 0 0 0 0 0 0 0 0 0 0 0 0 0 0 0 0 0 0 0 0 0 6 3 6 0 0 0
0 0 0 0 0 0 9 99 100 100 5 0 0 0 2 0 0 0 0 0 0 0 0 0 0 0 0 0 0 0 0 0 0 0 0 0 0 0 0 0 0 0 0 5 4 22 100 77 51
0 0 0 0 0 0 0 5 100 15 0 0 0 50 32 4 0 0 0 0 0 0 0 0 0 0 0 0 0 0 0 0 0 0 0 0 0 0 0 0 0 0 0 7 91 100 100 100 100
0 0 0 0 0 0 0 0 5 6 5 4 6 99 98 0 0 0 3 2 0 0 0 0 0 0 0 0 0 0 0 0 0 0 0 0 0 0 0 0 0 0 0 18 100 100 100 100 100
5 5 0 0 0 0 0 0 0 0 0 20 100 100 91 11 1 0 0 5 5 0 0 3 4 4 1 1 0 0 1 0 0 0 0 0 0 0 0 0 0 0 0 17 100 100 100 100 100
6 8 0 0 0 0 0 0 0 2 2 5 69 100 100 10 0 4 23 13 4 0 0 20 99 82 2 0 0 0 17 6 98 98 69 0 0 0 0 0 0 0 1 78 100 100 100 100 100
14 7 5 0 0 0 2 2 0 0 6 41 2 2 67 98 61 100 100 100 25 12 93 100 100 100 4 10 5 0 2 5 100 100 100 26 0 0 0 0 0 0 6 83 100 100 100 100 100
100 75 100 100 100 100 50 5 5 0 0 0 11 3 0 29 100 58 100 100 100 100 100 100 100 100 100 88 5 2 2 2 100 100 76 0 0 0 0 0 0 0 23 60 100 100 100 100 100
100 100 100 100 100 100 100 100 38 0 5 0 7 53 1 0 31 100 100 100 100 100 100 100 100 100 100 94 11 6 4 5 7 89 29 0 0 0 0 0 0 0 5 5 98 100 100 100 100
100 99 68 100 100 100 100 100 96 37 23 4 5 19 41 0 13 3 9 73 100 100 100 100 100 100 100 100 52 84 99 100 23 7 2 0 1 0 0 0 0 0 0 5 96 100 100 100 100
100 99 37 4 5 4 7 7 10 5 100 95 86 91 27 5 4 53 12 5 72 100 100 100 100 100 100 100 34 100 100 99 99 22 4 2 5 2 3 2 0 1 4 14 96 100 100 100 100
30 100 70 28 0 0 0 0 0 14 100 100 100 90 68 5 5 4 3 5 34 100 100 100 100 100 100 19 83 100 100 100 100 9 0 0 11 1 16 20 24 24 12 5 94 100 100 100 100
100 100 46 4 3 0 1 7 2 5 79 63 72 5 56 8 5 7 0 3 5 34 87 100 100 100 96 74 100 100 100 100 22 0 1 0 0 0 12 65 68 94 100 11 55 100 100 100 100
100 100 30 5 0 3 38 100 26 34 5 91 29 5 45 49 15 9 5 2 1 89 0 89 100 100 100 100 100 100 100 47 1 3 0 0 0 1 5 40 100 100 100 33 84 100 100 100 100
9 10 3 5 3 0 4 0 66 100 91 9 4 5 5 21 48 48 6 3 0 81 1 4 100 95 100 100 100 100 91 5 73 10 0 0 0 0 6 22 100 100 100 100 100 100 100 100 100
90 92 60 10 0 0 11 0 99 100 100 100 30 5 1 41 93 38 38 52 5 19 5 80 100 100 100 5 66 100 100 100 24 11 4 0 0 2 5 16 100 100 100 100 100 100 100 100 100
12 95 4 5 5 3 96 1 33 13 3 0 0 0 0 0 14 10 100 99 5 15 5 22 79 100 100 8 100 100 100 39 6 16 9 0 0 25 5 14 100 100 100 100 100 100 100 100 100
68 11 5 1 3 1 0 0 1 0 0 0 0 3 10 53 21 49 13 48 48 15 17 34 89 55 100 23 100 100 100 84 50 10 2 0 44 51 5 95 100 100 100 100 100 100 100 100 100
5 0 0 0 0 0 0 0 0 0 0 0 5 21 100 14 89 100 29 100 100 95 83 88 100 100 100 100 100 100 100 34 17 2 2 88 100 33 81 76 100 100 100 100 100 100 100 100 100
5 0 0 0 0 0 0 0 0 2 0 3 100 100 84 6 11 100 100 100 100 100 100 100 100 100 100 100 100 100 97 10 1 24 99 100 41 16 12 7 61 100 100 100 100 100 100 100 100
0 0 1 0 1 0 0 0 0 0 29 87 100 72 89 100 100 92 100 100 100 100 100 100 100 100 100 56 100 100 79 6 10 16 63 100 100 52 12 16 44 80 98 98 90 100 100 100 100
4 0 0 3 89 14 4 1 0 1 99 100 100 37 86 9 67 100 100 100 100 100 100 93 100 100 100 100 100 100 100 46 21 2 5 62 100 100 78 51 100 39 64 51 100 100 100 100 100
3 100 6 5 54 5 0 3 0 5 84 100 67 63 100 7 96 100 100 100 84 53 35 98 100 100 100 100 100 71 56 5 5 16 5 11 71 37 45 48 97 67 70 100 99 100 99 100 100
0 5 26 7 5 2 0 3 0 87 100 96 95 100 100 100 100 100 100 100 100 100 99 100 100 100 100 98 82 63 43 1 2 79 5 10 81 84 76 75 100 77 95 97 100 96 100 100 100
5 12 34 13 5 2 1 16 62 16 100 98 100 100 100 100 100 100 100 100 100 100 92 100 100 100 100 98 7 7 0 24 2 70 12 24 34 100 96 100 99 100 95 99 100 100 100 100 100
52 98 32 25 0 18 72 61 100 100 100 100 48 100 100 100 98 99 100 100 100 100 100 98 100 100 100 100 64 100 100 73 5 99 8 16 1 31 98 100 100 100 100 100 100 100 100 100 100
39 4 21 100 12 5 24 97 100 99 100 100 100 100 100 100 100 100 100 100 100 100 100 94 9 69 73 53 38 100 100 100 67 71 12 17 5 60 96 100 100 100 100 100 100 100 100 100 100
76 40 4 34 100 96 100 100 70 100 100 100 100 100 100 100 100 100 100 100 100 100 99 100 100 100 100 100 100 100 100 100 93 84 58 5 100 100 100 100 100 100 100 100 100 100 100 100 100
98 100 98 84 90 40 100 100 100 100 100 100 100 100 100 100 100 100 100 100 100 100 93 88 95 100 100 100 100 100 100 100 99 28 21 9 96 97 96 100 100 100 100 100 100 100 100 100 100
6 100 100 100 33 97 100 100 100 100 100 100 100 100 100 100 100 100 100 100 100 100 100 100 97 38 99 100 68 90 100 100 86 73 83 99 74 53 89 100 95 100 100 100 100 100 100 100 100

GFSSGP_prec_cloud_096.txt.gz
Cloud_Cover
0 0 0 0 0 0 0 78 5 100 2 0 0 0 1 5 2 0 0 0 0 0 4 2 0 0 0 0 0 0 0 0 0 0 0 0 0 0 0 0 0 0 0 1 0 0 0 2 22
0 0 0 0 0 0 0 0 0 0 0 0 0 0 0 1 41 3 0 0 0 0 0 1 0 0 0 0 0 0 0 0 0 0 0 0 0 0 0 0 0 0 0 6 0 2 100 100 100
0 0 0 0 0 3 0 0 0 0 0 0 0 0 0 25 23 5 4 0 0 0 0 0 0 0 0 0 0 0 0 0 0 0 0 0 0 0 0 0 0 0 0 0 1 35 100 100 100
0 0 0 0 62 37 0 0 0 0 0 0 0 0 17 5 0 0 0 0 0 0 0 2 1 0 0 0 0 0 0 0 0 0 0 0 0 0 0 0 0 0 0 0 4 5 80 100 100
0 0 0 0 49 67 3 0 0 0 0 0 0 1 2 93 62 3 5 7 5 5 5 2 1 3 0 0 0 0 2 3 0 0 0 0 0 0 0 0 0 0 0 0 2 48 64 100 100
0 0 0 0 1 62 85 24 0 0 0 2 0 0 1 2 38 60 31 18 57 6 1 13 5 5 5 0 0 19 89 1 4 5 5 0 0 0 0 0 0 0 0 2 85 85 18 100 100
1 0 1 1 11 100 100 100 100 68 30 28 4 0 1 7 51 5 5 88 44 96 34 35 39 15 0 0 2 74 25 72 100 8 5 0 0 0 0 0 0 0 0 0 42 51 32 96 100
1 0 5 5 100 100 75 10 100 100 100 100 64 18 0 0 4 40 5 24 100 100 97 78 45 36 29 23 9 25 100 98 100 100 100 5 2 0 0 0 0 0 0 2 65 19 99 5 100
4 4 11 73 70 70 89 100 100 100 100 100 32 5 4 1 0 9 79 23 69 100 100 97 50 45 56 86 100 100 100 100 100 100 100 15 9 2 5 4 5 0 4 45 21 41 5 5 100
10 5 99 100 68 68 8 6 71 52 85 100 100 80 21 5 72 1 0 0 8 100 100 100 100 92 58 100 100 87 48 100 100 100 100 99 39 7 10 24 4 3 20 0 1 5 5 7 95
100 99 100 93 100 19 44 9 5 0 0 0 4 1 80 89 100 92 0 0 0 1 10 99 43 100 25 53 100 100 100 100 50 100 100 100 100 97 86 28 15 4 0 0 2 16 16 90 81
5 90 100 100 69 100 100 100 10 5 3 0 0 0 5 41 97 12 5 0 0 0 5 74 98 5 10 26 98 100 100 100 100 100 100 100 100 71 32 18 34 18 14 15 93 34 100 99 100
6 50 84 100 100 100 100 100 74 5 4 1 0 0 0 33 100 62 3 0 0 0 5 16 92 4 9 84 99 93 75 100 100 100 100 100 73 40 35 28 27 23 30 29 92 100 60 99 100
50 42 33 13 84 90 16 33 0 57 40 0 0 4 5 14 86 100 5 5 5 7 57 77 89 72 5 4 87 100 100 100 100 100 100 52 19 32 35 59 47 22 34 69 100 100 98 100 100
9 35 88 20 5 5 0 4 20 77 3 0 0 1 91 74 30 54 76 100 95 48 100 100 100 94 5 4 3 27 99 100 79 26 8 42 46 22 42 100 98 19 49 100 100 100 84 100 100
21 5 19 5 11 9 3 6 5 58 3 0 0 1 93 100 100 95 33 1 3 100 100 100 75 87 48 9 93 100 100 88 38 20 96 65 96 18 36 92 100 96 60 100 100 100 100 100 100
5 4 23 66 98 82 2 4 3 0 0 0 0 0 2 61 100 100 100 100 12 26 99 100 78 100 100 35 73 100 75 63 97 66 99 100 100 5 6 32 62 91 100 100 100 100 100 100 100
5 5 6 99 100 80 7 0 4 26 0 0 0 0 0 0 1 74 100 98 75 100 17 100 100 100 100 46 90 100 100 100 96 100 100 100 50 0 0 19 50 100 100 100 100 100 100 100 100
52 50 100 100 100 83 5 4 5 1 0 0 0 0 0 0 0 0 1 5 5 100 100 5 100 100 100 100 100 100 100 100 98 100 100 95 15 27 31 16 54 94 100 100 100 100 100 100 100
100 100 100 100 100 100 87 2 0 0 0 0 0 0 0 0 0 3 40 94 5 85 100 28 98 100 100 100 100 97 100 97 100 100 69 100 34 100 98 44 55 99 100 100 100 100 100 100 100
100 100 100 98 92 40 2 0 0 0 0 0 0 0 0 2 4 67 93 97 70 46 100 99 98 100 100 100 100 90 100 100 92 96 100 67 67 89 100 94 28 97 100 100 100 96 100 100 100
100 100 94 24 2 0 0 1 0 0 0 0 0 0 0 74 17 5 69 96 59 6 52 100 100 100 100 100 100 88 100 82 98 93 92 78 100 100 100 100 40 67 88 100 100 100 100 100 100
78 6 43 5 82 5 1 28 0 0 0 0 0 1 84 60 100 100 100 100 100 100 100 100 100 100 100 100 100 44 100 83 96 92 5 6 77 100 100 70 92 100 100 100 100 100 100 100 100
5 3 5 5 56 63 0 3 0 0 0 4 2 75 100 100 100 100 100 94 44 100 100 100 100 100 100 100 46 37 98 86 100 16 97 61 46 91 100 92 82 100 99 58 64 97 100 100 100
5 32 5 6 3 0 0 1 0 0 16 38 57 100 100 100 100 100 100 100 100 100 100 100 100 98 99 93 99 100 100 100 73 66 90 100 96 76 70 99 100 100 82 34 53 100 100 92 92
37 26 88 90 5 4 0 2 0 2 79 100 100 100 100 100 100 100 100 100 100 100 100 100 100 90 98 100 100 100 100 100 100 100 100 100 100 100 100 74 86 100 100 100 90 100 100 98 58
6 67 89 100 51 81 4 1 1 66 88 100 100 100 100 100 100 100 100 100 100 100 100 100 68 100 100 100 100 100 100 100 100 100 99 100 100 47 46 39 98 74 100 100 100 100 96 100 95
94 91 50 90 100 95 2 32 96 100 100 100 100 100 100 100 90 100 100 100 100 100 100 100 100 100 100 100 100 100 100 100 100 100 98 100 41 9 95 25 46 100 100 100 99 100 100 100 100
62 67 100 100 88 92 70 58 100 100 100 100 100 100 100 100 94 100 100 100 100 100 100 100 100 99 100 100 100 100 100 100 100 100 34 86 4 62 100 54 100 100 94 100 100 100 100 100 100
0 3 97 100 100 30 72 100 100 100 100 100 100 100 100 100 100 100 100 100 100 100 100 100 100 100 100 100 100 100 100 100 100 100 100 58 8 100 92 100 100 100 100 100 100 100 100 100 100

GFSSGP_prec_cloud_099.txt.gz
Cloud_Cover
0 0 0 0 0 0 0 0 0 0 0 0 0 0 0 0 0 0 0 5 3 5 5 10 8 22 0 0 0 0 0 0 0 0 0 0 0 0 0 0 0 0 0 1 0 0 0 0 2
0 0 0 0 0 1 11 2 0 0 0 0 0 0 0 0 0 0 0 13 4 5 84 34 1 12 1 0 0 0 0 0 0 0 0 0 0 0 0 0 0 0 0 0 0 0 0 0 0
0 0 0 0 0 0 2 2 4 0 0 0 0 0 0 0 0 0 0 0 0 5 70 99 5 0 0 0 0 0 0 0 0 0 0 0 0 0 0 0 0 2 0 0 0 0 0 5 5
0 0 0 0 0 0 0 0 5 5 4 0 0 0 0 0 0 0 1 5 0 4 8 27 2 3 0 0 0 0 0 0 0 0 0 0 0 0 0 0 0 0 0 0 0 0 1 5 87
0 0 0 1 1 0 0 3 5 4 4 0 2 1 7 31 2 0 7 5 5 12 16 31 6 5 0 0 0 0 0 0 0 0 0 1 0 0 0 0 0 0 0 0 0 0 2 5 50
0 0 0 13 55 1 2 2 0 4 6 41 18 58 18 17 16 3 0 0 1 11 36 34 11 5 5 0 3 0 0 0 0 0 0 5 3 10 0 0 0 0 0 0 0 2 5 18 98
0 0 0 3 14 6 2 0 0 3 76 86 12 4 1 3 82 100 81 1 5 1 29 50 42 10 5 5 1 6 9 9 4 6 96 69 100 69 6 0 0 0 0 0 0 2 82 17 30
4 0 3 5 8 4 0 2 5 12 21 23 96 100 100 83 100 98 59 48 11 94 74 52 85 58 45 21 5 11 27 26 18 100 100 100 100 55 92 5 2 0 0 0 3 82 32 35 45
3 2 5 6 5 50 45 3 5 5 32 4 2 10 68 87 27 93 92 27 37 9 36 89 100 97 62 53 33 32 36 21 4 95 83 100 100 13 83 11 5 2 0 2 4 75 97 27 17
5 5 5 5 5 42 100 98 100 82 9 9 10 13 0 0 1 4 15 39 9 30 35 55 96 100 66 100 82 99 100 99 5 19 100 100 89 14 12 5 5 5 5 5 4 94 99 95 75
5 6 24 6 12 5 5 40 100 99 100 100 97 6 3 4 5 0 0 0 1 5 6 40 46 60 89 68 100 100 96 51 31 100 100 100 65 39 22 30 7 69 5 9 3 3 66 53 23
6 43 6 5 5 5 5 5 91 61 98 100 100 98 24 0 0 7 2 2 1 7 70 76 28 41 34 44 100 100 98 100 91 78 87 100 94 99 50 82 59 6 15 13 22 30 23 70 45
34 28 23 97 10 5 5 5 3 5 44 40 5 2 4 89 1 0 0 0 1 33 26 77 100 73 29 52 90 100 100 100 100 100 78 100 100 100 100 97 88 10 33 14 32 50 65 98 77
100 100 61 5 5 5 5 5 5 96 5 8 5 1 2 12 92 9 4 2 1 5 61 100 100 100 60 35 52 83 100 100 100 100 99 100 100 100 100 70 72 54 48 37 12 33 20 100 95
100 82 9 26 5 5 20 87 31 20 23 5 5 5 3 7 25 7 17 5 5 67 59 5 100 100 100 20 45 47 100 100 66 58 50 100 100 98 42 61 98 55 67 60 56 60 100 100 92
100 30 74 19 5 5 5 81 5 5 5 33 100 96 14 4 5 0 0 0 23 100 100 100 100 100 100 85 40 49 96 59 52 44 100 100 92 58 97 98 96 61 100 91 87 95 100 100 100
40 5 24 47 5 16 2 78 5 26 5 76 100 100 42 5 4 5 5 5 5 48 100 100 69 95 100 100 96 100 43 80 100 99 88 98 71 69 63 100 100 100 100 100 100 100 100 100 100
5 13 43 8 45 0 0 31 5 5 48 87 100 100 6 5 2 5 8 0 4 0 14 97 100 100 100 100 100 100 99 100 87 100 97 95 48 83 100 100 100 100 100 100 100 100 100 100 100
5 14 5 5 4 0 1 5 5 100 100 100 100 17 5 0 31 25 0 0 0 0 0 0 7 100 100 100 100 100 100 100 100 80 96 100 74 93 100 100 98 100 100 100 100 100 100 100 93
27 5 10 10 79 10 4 2 100 98 100 100 100 83 0 0 0 0 0 0 0 0 0 3 0 10 99 100 100 100 100 100 90 91 100 100 100 100 100 100 100 100 100 100 100 100 100 100 100
49 11 99 67 95 5 27 5 5 100 100 73 39 0 0 0 0 0 0 0 0 0 1 4 2 2 10 100 100 100 86 100 100 100 100 100 100 100 100 100 100 100 100 100 100 100 100 100 100
17 99 100 97 77 22 75 3 5 88 5 4 0 0 0 0 0 0 0 0 0 2 3 5 48 74 25 100 99 100 99 100 100 88 100 100 100 84 100 98 100 100 100 100 100 100 100 100 100
44 100 100 100 100 98 87 0 0 100 2 2 5 0 0 0 0 0 0 12 96 70 96 91 100 100 100 64 100 100 100 99 31 67 100 100 100 100 74 30 100 100 100 100 100 100 100 100 100
100 100 100 100 100 55 37 3 0 2 0 0 1 4 5 0 2 26 99 75 100 94 100 100 100 100 100 100 100 100 100 94 96 100 100 100 99 100 62 100 100 100 100 100 100 100 100 100 100
100 100 62 46 8 0 0 0 0 6 28 59 85 20 72 5 52 100 100 100 100 100 100 100 79 99 100 100 100 100 100 70 72 86 94 100 64 100 95 100 100 94 100 100 100 100 100 100 100
100 100 84 43 5 0 0 1 0 0 0 29 17 13 72 55 100 100 100 100 97 100 100 100 100 100 100 100 100 100 74 92 100 100 100 100 100 100 100 100 100 64 100 100 100 100 100 100 73
44 15 7 58 0 4 0 0 0 0 4 5 16 38 100 100 100 100 100 100 100 100 100 100 100 100 100 100 100 73 100 100 100 100 100 100 100 96 97 71 100 100 100 100 67 94 100 100 100
40 5 22 74 88 78 1 0 0 1 30 52 100 100 100 100 100 100 100 100 100 100 100 100 100 100 100 100 99 99 100 100 100 100 100 100 100 63 100 100 100 99 100 95 12 65 99 100 100
2 0 1 8 61 97 38 9 68 95 98 100 100 100 100 100 100 100 100 100 100 100 100 100 100 100 100 100 100 100 100 100 100 100 100 100 98 41 99 100 56 17 6 48 93 100 100 98 100
0 0 8 67 6 100 100 21 100 100 100 100 100 100 100 100 100 100 100 100 100 100 100 100 100 100 100 100 100 100 100 100 100 100 100 100 100 88 100 100 48 89 100 98 97 100 100 100 100

GFSSGP_prec_cloud_102.txt.gz
Cloud_Cover
0 0 0 0 0 0 0 0 0 0 0 0 0 0 0 0 0 0 0 0 0 0 0 4 100 61 4 0 0 0 0 0 0 0 3 0 0 0 0 0 0 0 0 2 0 0 0 0 0
0 0 0 0 0 0 0 0 0 0 0 0 0 0 0 0 0 0 0 0 0 0 0 0 86 100 69 4 2 0 0 0 0 0 0 0 0 0 0 0 0 0 0 0 0 0 0 0 0
0 0 0 0 0 0 0 0 0 0 0 0 0 0 0 0 0 0 0 0 0 0 0 7 52 60 50 5 5 3 0 0 0 0 0 0 0 0 0 0 0 0 0 0 0 0 0 0 2
0 0 0 0 2 4 5 5 0 0 0 0 0 0 0 0 2 1 5 4 4 4 3 12 22 31 100 44 1 0 0 0 0 0 0 0 0 0 0 0 0 0 0 0 0 0 0 0 5
0 0 0 0 0 4 4 0 0 0 0 0 0 1 5 40 35 19 6 5 4 28 17 37 22 33 6 6 58 4 0 0 0 0 0 0 0 0 0 0 0 1 0 0 0 0 0 0 5
0 0 1 5 5 2 0 0 0 0 0 0 0 0 0 1 3 23 66 6 4 13 35 40 16 12 5 0 2 2 0 0 0 0 0 0 0 0 0 0 3 90 0 0 0 0 1 0 17
0 5 5 5 40 5 0 0 0 0 0 0 0 0 5 0 4 1 5 72 87 39 58 74 67 36 1 5 13 5 5 0 0 0 0 0 0 0 4 5 19 8 0 0 0 0 0 2 2
5 5 22 6 5 34 1 5 0 0 0 2 0 4 4 5 5 5 5 48 46 59 98 100 100 88 48 29 3 4 19 5 0 0 0 0 1 4 4 5 5 5 1 0 0 0 0 0 2
5 5 13 86 10 29 23 5 5 1 6 16 33 84 96 8 0 2 5 7 76 48 91 100 100 100 88 44 29 19 18 16 14 9 5 25 37 5 5 5 35 0 0 1 0 0 0 2 4
5 7 49 73 94 100 7 5 5 5 4 52 76 5 1 5 10 7 0 0 4 14 48 100 100 100 100 98 74 76 99 87 63 52 31 37 70 18 6 5 5 3 0 0 0 29 5 91 54
82 100 100 100 100 98 6 17 5 4 4 5 4 0 0 5 60 7 5 5 3 0 5 82 100 100 100 100 100 100 100 98 25 2 10 33 49 34 48 61 34 8 0 16 12 19 25 12 32
91 100 100 100 100 97 49 8 18 5 5 5 5 5 5 12 5 0 5 0 99 2 1 0 74 99 99 100 100 100 100 53 22 5 2 37 100 93 46 97 58 21 23 9 14 22 18 21 31
100 100 100 100 100 100 100 100 100 5 5 5 5 5 3 1 3 5 7 4 36 98 63 2 19 51 63 100 100 100 100 100 98 85 99 91 96 100 87 89 72 26 32 16 32 32 32 31 59
100 80 100 100 87 100 100 94 32 100 34 14 5 5 5 5 5 0 3 5 3 14 7 59 6 13 81 100 100 100 100 100 100 100 100 100 100 100 100 100 100 50 31 28 34 30 39 34 89
100 74 70 100 100 58 14 57 100 100 89 5 21 65 5 5 5 1 0 13 5 9 60 5 8 11 38 77 100 100 100 100 100 100 100 100 100 100 100 100 100 100 87 39 42 54 38 40 53
100 51 96 63 26 14 47 96 100 51 97 100 75 10 6 5 0 0 5 6 5 5 4 5 14 21 3 28 100 64 99 100 100 100 100 100 100 97 96 100 100 100 100 89 100 84 73 76 96
54 27 5 84 87 19 4 5 79 84 63 25 67 69 5 5 5 5 5 5 5 5 5 4 0 8 37 17 100 99 89 100 100 100 100 100 100 74 100 100 100 100 100 100 100 100 85 94 100
64 11 58 87 73 5 5 18 16 81 67 61 37 5 5 5 5 5 4 5 32 61 18 5 5 4 34 60 100 98 90 100 100 100 100 100 100 74 96 100 100 100 100 100 100 100 100 96 100
100 100 100 100 100 44 65 100 18 12 10 6 5 5 4 0 4 5 6 31 100 100 92 5 4 3 28 94 100 100 100 100 100 100 100 87 100 100 100 100 100 100 100 100 100 100 100 100 100
28 78 94 93 100 82 88 90 20 32 60 5 3 4 0 3 0 5 45 98 96 13 4 9 5 2 18 7 86 92 100 100 100 100 99 100 100 100 100 100 100 100 100 100 100 100 100 100 100
25 5 7 15 5 3 3 5 5 34 82 99 50 0 0 0 0 4 3 4 0 0 0 12 4 0 0 0 65 100 90 100 100 100 100 100 100 100 100 100 100 100 100 96 100 100 100 100 100
11 44 78 7 5 5 73 1 2 14 100 100 30 4 1 0 0 1 0 0 0 0 8 1 0 35 6 22 66 100 90 47 100 100 100 100 100 100 100 100 100 100 100 100 100 100 100 100 100
9 83 85 46 39 49 84 100 5 16 100 100 33 22 51 45 1 0 0 0 0 3 39 59 44 52 2 64 18 41 53 24 66 100 100 100 100 100 100 100 100 100 96 100 100 100 100 100 100
100 99 100 100 100 32 56 100 8 100 100 100 100 100 61 0 0 0 1 0 11 38 32 60 89 70 72 96 92 94 98 96 33 100 100 100 100 100 100 100 100 100 98 100 100 100 100 100 100
100 100 100 100 100 88 100 100 100 100 100 100 47 0 0 0 0 0 12 38 70 94 96 77 100 100 100 88 95 98 73 88 22 100 100 100 100 100 100 82 100 100 100 81 79 99 100 100 100
100 100 100 100 100 99 96 32 12 14 26 5 0 1 4 5 5 14 100 100 100 100 100 100 100 100 97 100 100 100 100 42 29 100 100 100 100 100 100 100 100 100 100 100 100 68 100 100 100
100 100 100 97 92 100 91 73 29 6 2 29 73 62 47 30 5 32 87 100 100 100 100 100 100 100 100 100 100 100 100 95 98 85 28 100 100 100 100 100 100 100 100 100 90 100 100 100 100
35 47 80 54 12 4 0 0 1 59 100 100 100 100 98 100 82 93 100 100 100 100 100 100 100 100 100 100 100 100 100 100 90 100 100 100 100 100 100 100 98 59 76 54 100 100 100 100 100
56 22 38 43 33 34 5 11 97 100 100 100 100 100 100 100 100 100 100 100 100 100 100 100 100 100 100 100 100 100 100 100 100 100 100 100 100 100 100 100 100 86 88 100 100 100 92 75 88
100 100 69 5 16 79 76 14 61 45 100 100 100 100 100 100 100 100 100 100 100 100 100 100 100 100 100 100 100 100 100 100 100 100 100 100 100 100 100 100 100 100 100 100 100 88 41 82 52

GFSSGP_prec_cloud_105.txt.gz
Cloud_Cover
0 0 0 0 0 0 0 0 0 0 0 0 0 0 0 0 0 0 0 0 0 0 0 2 1 1 82 5 1 0 0 0 0 0 0 0 0 0 0 0 0 0 0 0 0 0 0 0 0
0 0 0 0 0 0 0 0 0 0 0 0 0 0 0 0 0 0 0 0 0 0 0 0 15 0 8 83 3 0 0 0 12 4 0 0 0 0 0 0 0 0 0 0 0 0 0 0 0
0 0 0 0 0 0 0 0 0 0 0 0 0 0 0 0 0 0 0 0 0 0 0 0 19 0 0 42 19 5 5 3 3 15 5 0 0 0 0 0 0 0 0 0 0 0 0 0 0
0 1 0 0 4 0 0 0 0 0 0 0 0 0 0 0 0 0 0 1 5 2 0 34 3 0 0 0 16 5 17 5 4 0 2 0 0 0 0 0 0 0 0 0 0 0 0 0 0
1 1 5 5 3 0 0 0 0 0 0 0 0 0 0 0 0 0 0 0 5 5 5 0 14 0 0 0 0 0 4 33 5 4 0 0 0 0 0 0 0 0 0 0 2 0 0 0 3
5 5 5 5 5 5 0 0 0 0 0 0 0 0 0 0 0 0 2 6 4 1 3 0 40 22 8 0 0 0 0 4 1 2 0 0 0 0 0 0 0 0 0 0 0 2 0 0 0
5 5 28 64 6 5 0 0 0 4 0 0 1 5 0 0 0 0 0 8 47 39 9 24 57 79 36 9 2 0 0 2 84 68 11 45 3 0 5 2 0 0 0 0 4 1 5 4 0
5 20 100 100 66 14 4 0 2 5 5 3 5 0 0 0 0 0 0 1 50 75 47 54 99 100 100 63 10 0 0 1 2 0 0 0 5 18 4 5 0 0 0 2 0 1 5 5 5
27 12 100 100 76 7 5 5 5 5 17 99 29 3 0 0 0 0 0 0 1 71 100 98 95 100 100 81 36 35 14 1 6 2 1 67 0 0 40 91 37 1 3 5 2 12 35 27 8
45 69 100 100 100 100 56 28 6 11 100 96 5 0 3 2 0 0 0 0 0 0 91 100 100 100 100 98 58 61 92 44 28 14 9 2 3 0 0 8 5 5 67 35 100 59 75 27 28
33 9 100 100 100 100 100 100 96 100 92 64 5 6 5 5 5 5 5 5 4 0 0 86 100 100 100 100 100 100 98 100 100 86 51 37 25 21 7 9 16 19 77 60 22 17 60 22 44
6 63 100 100 100 100 100 100 100 100 100 100 21 86 14 25 5 5 3 2 5 5 5 4 90 100 100 100 96 51 100 100 100 45 62 86 98 83 36 23 44 55 18 15 6 0 20 33 92
99 97 100 100 100 100 100 100 100 99 100 100 70 100 100 98 8 9 26 39 7 48 14 5 29 65 100 100 100 89 54 82 99 97 48 59 100 100 98 57 68 50 42 25 6 7 14 13 45
100 99 96 39 100 100 100 100 100 100 100 100 100 100 100 98 12 16 83 64 44 48 5 36 5 18 88 100 100 43 96 80 71 98 19 61 53 100 100 100 100 74 52 35 13 14 5 24 61
100 100 90 100 100 99 45 76 100 100 100 100 100 100 75 96 97 100 100 23 22 59 90 99 76 8 5 14 64 60 100 98 97 90 100 89 37 100 100 100 100 99 76 54 41 52 86 75 88
100 99 100 88 45 10 93 89 100 100 100 100 100 100 100 100 100 100 29 8 99 100 100 99 93 55 26 5 69 100 100 5 14 97 100 100 100 100 100 100 100 100 100 90 78 92 100 100 96
100 88 77 58 89 100 51 12 69 92 66 97 100 100 100 49 5 5 11 31 73 69 95 94 100 53 24 58 100 100 100 15 7 59 100 100 100 100 100 100 100 100 100 100 100 100 92 100 91
5 12 89 96 100 80 27 26 47 100 100 100 100 100 94 20 16 5 5 88 95 81 52 6 10 5 5 6 58 100 100 58 74 82 100 100 100 100 100 100 100 99 100 100 100 100 99 100 100
29 80 10 5 9 2 5 53 84 37 74 100 100 100 99 100 98 97 39 26 46 5 5 1 2 5 2 5 28 65 100 92 100 100 100 100 100 100 100 100 100 100 100 100 100 100 100 100 98
6 99 96 11 14 5 5 12 59 96 100 92 88 92 99 100 93 66 16 9 5 2 4 5 0 0 0 1 2 5 4 96 92 100 100 100 100 100 100 100 100 100 100 100 100 100 100 100 100
5 4 22 39 24 5 1 5 20 72 47 7 7 5 5 5 5 14 10 78 100 100 90 4 3 30 4 0 0 3 9 83 100 100 100 100 100 100 100 100 100 100 100 100 100 100 100 100 100
3 4 2 3 5 2 0 4 5 53 24 5 4 1 0 4 5 8 21 100 92 100 100 96 12 56 29 25 10 38 12 74 95 100 100 100 100 100 100 100 100 100 100 100 100 100 96 87 100
40 68 95 43 5 3 0 0 5 0 31 100 100 22 7 6 5 2 10 100 100 100 100 100 100 100 76 66 21 92 85 25 16 99 84 100 100 100 100 100 100 100 100 100 100 100 100 100 100
100 100 100 99 61 2 4 23 5 6 5 98 100 100 96 66 11 26 95 100 100 100 100 100 100 100 100 100 70 33 92 45 88 88 84 100 100 100 100 100 100 100 100 100 97 100 100 100 100
100 100 99 54 12 4 5 5 52 16 100 96 92 97 64 57 92 95 80 100 58 22 54 100 100 100 100 100 100 31 17 100 96 91 50 99 100 100 100 100 100 100 100 100 100 100 100 100 100
100 100 100 73 26 76 99 57 60 65 96 100 100 100 100 100 32 50 47 26 97 84 98 100 100 100 100 100 100 60 0 98 100 77 71 64 82 88 100 100 100 100 100 100 100 100 78 98 100
100 100 100 86 100 100 100 100 100 100 100 100 100 98 100 100 77 96 50 51 98 89 100 100 100 100 100 100 100 100 86 88 100 100 91 100 100 100 100 100 100 100 100 100 100 100 100 94 69
100 100 100 89 81 99 72 21 5 59 14 39 60 91 100 99 30 53 54 88 100 82 100 100 100 100 100 100 100 99 95 100 100 100 100 100 100 100 100 100 100 100 100 100 100 100 99 90 71
100 100 100 100 79 12 5 4 76 72 100 100 100 91 55 34 39 66 73 100 100 100 100 100 100 100 100 100 100 100 100 100 100 100 100 100 100 100 100 100 100 100 100 100 100 100 99 91 100
100 100 100 87 23 15 5 1 85 100 100 100 94 73 56 54 37 82 100 100 100 100 100 100 100 100 100 100 100 100 100 100 100 100 100 100 100 100 100 100 100 100 100 100 100 100 100 100 100

GFSSGP_prec_cloud_108.txt.gz
Cloud_Cover
0 0 0 0 0 0 0 0 0 0 0 0 0 0 0 0 0 0 0 0 0 0 0 3 0 0 0 0 0 0 0 0 0 0 0 0 0 0 0 0 0 0 0 0 0 0 0 0 0
0 0 0 0 0 0 0 0 0 0 0 0 0 0 0 0 0 0 0 0 0 0 0 0 7 0 0 0 0 0 0 0 5 5 2 0 0 0 0 0 0 0 12 0 0 0 0 0 0
0 4 2 0 0 0 0 0 0 0 0 0 0 0 0 0 0 0 0 0 0 0 0 0 0 0 0 0 0 0 0 0 0 5 13 5 0 0 0 0 0 0 0 0 0 0 0 0 0
5 5 5 5 0 0 0 0 0 0 0 0 0 0 0 0 0 0 0 0 0 0 0 52 1 0 0 0 0 0 0 0 0 0 0 5 4 4 0 0 0 0 0 0 0 0 0 0 0
68 50 33 25 5 0 0 0 0 0 0 0 0 0 0 0 0 0 0 0 0 0 0 3 1 0 0 0 0 0 0 0 0 0 0 5 4 5 0 0 0 0 0 0 0 0 0 0 0
70 91 98 100 27 5 1 0 0 0 0 0 0 0 0 0 0 1 0 0 0 0 8 16 26 0 0 0 0 0 0 0 0 0 0 0 5 100 65 29 5 1 1 5 5 0 0 0 0
60 91 100 100 100 77 5 5 5 4 0 5 0 2 2 4 5 10 2 0 0 0 9 29 24 1 33 0 0 0 0 0 0 0 0 0 4 32 25 5 14 54 5 5 5 3 0 2 0
89 63 100 100 100 100 41 68 26 5 5 0 3 4 3 5 94 5 0 2 18 3 14 19 70 86 7 1 10 0 0 0 0 0 0 0 6 0 6 1 16 5 5 19 5 3 89 7 5
100 100 100 100 100 100 100 100 100 99 14 5 5 5 6 94 96 4 1 0 18 13 36 80 100 100 100 43 9 53 25 1 9 3 2 68 0 5 5 0 0 0 0 2 5 64 100 87 12
100 100 100 100 100 99 100 100 100 100 100 92 7 5 83 100 69 7 1 3 5 0 14 58 100 100 100 100 52 31 15 1 0 0 3 0 0 32 23 5 5 1 0 0 0 58 33 72 42
100 100 100 100 100 98 100 100 100 100 100 100 100 100 100 100 90 61 5 5 5 5 5 5 46 100 100 100 30 74 100 33 29 16 24 34 14 20 45 69 29 8 12 3 20 23 2 30 40
100 100 65 52 100 100 100 100 100 100 100 100 100 100 100 100 100 100 100 100 100 6 6 62 80 13 34 55 5 4 2 73 100 58 50 3 23 27 11 7 62 98 60 84 76 92 88 99 75
73 55 98 77 86 100 89 99 100 100 100 100 100 100 100 100 100 100 100 100 97 5 38 65 89 81 81 99 55 7 12 5 100 100 55 43 87 30 0 0 8 100 100 100 100 100 94 98 86
20 53 40 26 12 65 90 36 37 100 100 100 100 100 100 100 100 100 100 100 100 90 96 74 70 86 99 100 100 30 5 5 11 25 17 59 14 75 99 2 37 72 89 100 100 100 100 100 100
10 8 6 63 95 50 6 30 88 100 100 100 100 100 100 100 100 100 99 99 100 100 100 100 100 100 100 100 68 97 65 28 5 5 14 29 38 6 100 100 100 67 100 48 90 100 96 100 100
5 5 5 25 97 71 58 97 65 100 100 100 100 100 100 100 99 54 97 100 100 100 100 100 100 100 100 91 100 98 99 73 7 5 6 5 5 19 96 100 100 100 100 96 76 98 100 66 80
0 1 3 4 35 100 78 6 5 26 71 95 100 100 96 92 48 100 99 100 100 100 95 89 100 100 90 43 36 15 32 100 100 40 68 74 77 96 44 100 100 100 100 100 100 99 97 100 84
4 0 1 3 3 6 14 100 98 98 99 100 100 98 56 88 82 61 67 100 100 100 100 96 62 100 100 74 47 11 28 6 92 56 12 52 60 95 76 100 100 100 100 100 100 100 100 100 54
0 0 4 5 1 0 5 5 13 100 59 95 63 48 84 5 6 73 100 100 100 100 100 100 100 100 98 83 100 100 68 5 5 5 5 57 98 100 99 100 100 100 100 100 100 100 100 100 100
0 0 0 5 5 0 4 5 5 34 5 14 15 5 5 23 88 99 99 98 100 100 100 100 100 98 47 64 98 89 12 4 5 5 9 99 90 100 98 100 97 100 100 100 100 100 100 100 100
0 0 0 0 0 0 0 27 88 54 10 6 7 5 5 5 5 4 5 10 53 46 38 5 5 5 5 9 4 4 5 5 5 47 57 90 98 46 58 85 96 100 100 100 100 100 100 100 100
4 0 0 0 4 0 0 5 5 28 16 5 5 5 1 1 0 0 2 5 5 11 5 0 2 4 5 29 95 99 35 88 78 88 92 8 100 100 100 100 100 100 100 100 100 100 100 100 100
53 6 5 5 1 0 0 0 5 3 6 5 3 3 0 0 0 0 0 0 0 1 4 74 100 100 100 100 100 99 56 25 69 8 96 100 100 100 100 100 100 100 100 100 100 100 97 100 100
100 100 100 100 100 38 2 2 0 0 0 5 5 79 32 5 4 2 4 22 28 37 79 100 100 100 100 100 100 100 100 100 100 100 100 100 100 100 100 100 100 100 100 99 100 100 100 100 100
100 100 100 99 85 18 2 5 10 0 0 9 65 97 96 84 49 48 9 5 33 97 100 100 85 71 74 97 100 100 100 100 100 100 100 100 100 100 100 100 100 100 85 100 100 100 100 100 100
100 100 100 100 100 100 30 24 72 6 97 28 43 4 5 91 100 99 50 14 5 31 79 92 79 83 92 100 100 100 100 100 56 16 100 100 100 100 100 100 100 100 100 100 100 100 100 100 100
91 100 100 100 100 100 100 100 100 72 100 100 79 9 23 6 6 6 57 20 22 51 91 83 94 100 100 100 100 100 100 100 73 16 40 100 100 100 100 100 100 100 100 100 100 100 100 100 100
100 100 100 100 100 100 100 100 100 97 100 98 92 62 52 28 7 5 5 13 62 75 90 78 100 100 100 100 100 100 100 100 46 97 61 100 100 100 100 100 100 100 100 100 100 100 100 100 100
100 100 100 100 100 100 100 100 100 100 90 68 11 5 7 5 5 5 11 39 76 95 93 100 100 100 100 100 100 100 100 100 99 41 14 100 100 99 100 97 99 100 100 100 100 100 100 100 100
100 100 100 100 100 100 100 100 100 100 100 43 5 5 5 15 28 27 27 39 57 68 100 93 100 100 100 100 100 100 100 100 100 99 100 100 100 100 100 100 100 100 100 100 100 100 100 100 100

GFSSGP_prec_cloud_111.txt.gz
Cloud_Cover
5 1 0 0 0 0 0 0 0 0 0 0 0 0 0 0 0 0 0 0 0 0 0 1 0 0 0 0 0 0 0 0 0 0 0 0 0 0 0 0 0 0 0 0 3 11 2 0 0
5 4 3 0 0 0 0 0 0 0 0 0 0 0 0 0 0 0 0 0 0 0 0 0 0 0 0 0 0 0 0 0 0 0 0 0 0 0 0 0 0 0 0 0 0 0 0 0 0
4 5 4 5 1 0 0 0 0 0 0 0 0 0 0 0 0 0 0 0 0 0 0 0 0 0 0 0 0 0 0 0 0 0 0 0 0 0 4 4 0 4 0 0 0 5 0 0 0
5 38 4 5 30 5 5 2 0 0 0 0 0 0 0 0 0 0 0 0 0 0 0 67 0 0 0 0 0 0 0 0 0 0 0 0 0 1 5 3 0 1 5 3 0 0 0 0 0
5 5 74 71 99 9 1 4 5 1 0 0 1 0 0 0 0 0 0 0 0 0 0 0 0 0 0 0 0 0 0 0 0 0 0 0 0 0 4 5 5 16 78 10 4 5 3 5 3
5 19 44 58 100 100 17 5 37 42 13 5 5 5 1 3 0 0 0 0 0 2 0 0 18 0 0 0 0 0 0 0 0 0 0 0 0 0 0 4 23 32 5 5 9 53 21 5 5
17 6 100 100 100 100 83 18 5 66 13 5 88 8 4 5 6 0 0 0 28 13 0 12 10 0 27 0 0 0 0 0 0 0 0 0 0 0 0 0 5 5 28 5 6 4 14 33 33
100 100 100 100 100 100 95 100 39 42 48 30 81 100 100 53 19 5 3 14 100 50 7 10 23 20 1 0 7 0 0 0 0 0 0 0 6 0 8 1 16 4 3 3 0 0 0 1 74
100 100 100 100 100 100 100 100 100 100 98 65 100 100 100 100 100 76 5 99 100 66 25 13 93 100 43 11 10 53 23 1 10 3 2 68 5 3 3 0 0 0 1 0 1 0 0 0 11
98 100 100 100 100 100 100 100 100 100 100 10 43 100 100 100 100 100 100 98 100 93 46 90 100 100 100 28 27 2 3 0 0 0 0 0 0 7 8 18 0 0 0 0 4 5 2 47 5
100 100 98 26 65 100 100 100 100 100 96 85 59 80 100 100 100 100 100 100 100 100 35 91 100 100 100 68 32 20 16 9 9 26 16 1 1 72 13 63 12 5 18 0 21 19 3 14 6
5 5 5 5 5 98 36 89 97 100 92 88 100 52 70 100 100 100 100 100 100 100 100 100 100 100 75 60 19 8 6 27 6 5 0 2 15 7 69 4 0 2 7 41 46 57 32 100 97
5 0 0 5 5 5 25 66 80 53 99 100 100 100 100 100 100 100 100 100 100 100 100 100 100 100 94 100 52 19 25 50 62 13 5 5 0 2 0 0 7 13 71 99 48 99 97 100 100
5 2 1 5 74 37 5 44 64 100 100 47 100 100 100 100 100 100 100 100 100 100 100 100 100 100 100 85 42 85 45 100 87 42 5 8 11 4 3 0 0 0 0 53 53 24 60 25 100
5 0 0 5 5 8 5 79 100 98 75 100 100 100 97 100 100 47 53 57 100 100 100 100 100 100 100 100 60 98 100 100 100 54 10 96 44 7 5 1 0 0 0 1 55 43 51 22 41
1 4 4 2 1 5 5 18 12 5 79 100 100 100 91 98 100 100 56 100 100 100 100 100 100 100 100 100 100 100 100 100 100 97 38 85 100 72 5 80 6 0 0 6 33 31 20 93 66
3 4 0 0 1 4 5 5 19 7 50 96 100 100 99 92 37 86 100 100 100 100 100 100 100 100 100 100 100 100 100 82 100 86 100 100 100 96 6 41 90 75 47 4 5 50 31 100 64
66 4 3 2 1 4 4 0 5 5 5 8 100 60 11 11 6 20 21 27 74 66 95 95 100 100 100 100 100 100 98 30 87 100 100 100 100 98 55 10 50 100 95 44 5 52 96 82 100
4 6 9 5 5 2 0 0 0 0 5 5 5 96 100 60 19 5 5 5 5 5 31 62 100 100 100 100 100 100 100 100 100 100 100 100 100 100 100 48 24 60 100 58 16 100 100 100 100
0 2 7 5 2 3 0 0 0 0 0 5 5 5 6 46 14 22 5 5 5 5 6 66 23 16 61 58 88 96 100 100 100 100 100 100 100 100 93 80 43 48 100 100 68 100 100 100 100
5 5 4 4 5 89 4 0 0 0 0 0 5 86 6 5 21 50 9 5 18 16 36 5 12 24 11 5 5 10 25 18 38 65 99 100 100 90 100 90 100 29 100 100 71 100 100 100 100
97 33 88 91 80 48 35 18 36 4 0 0 0 5 11 89 88 30 17 37 32 5 5 5 4 4 5 5 24 69 26 16 32 10 3 10 24 15 99 100 100 82 85 100 85 100 100 100 100
100 100 100 100 100 98 5 64 0 22 96 4 78 83 38 3 30 5 5 5 4 3 0 0 0 0 0 0 20 24 11 1 5 4 4 99 100 98 100 100 100 100 98 54 57 100 100 100 100
100 100 100 100 100 100 21 95 32 100 60 90 70 55 46 0 0 0 0 0 0 0 0 0 0 0 4 46 67 96 100 87 41 84 61 85 100 100 100 100 100 100 100 77 69 34 50 99 100
100 100 100 100 100 100 100 100 94 100 97 98 36 95 28 50 6 5 5 1 0 0 0 0 0 7 38 71 78 89 90 100 100 94 100 100 71 96 100 100 100 100 100 100 100 42 80 100 100
100 100 100 100 100 100 100 100 100 44 17 83 67 57 100 96 78 13 5 2 0 0 0 1 26 41 55 89 100 96 100 100 100 98 30 0 5 16 100 100 100 100 100 100 92 75 62 100 100
100 100 100 100 100 100 100 100 91 98 100 100 100 100 100 100 100 84 41 5 1 0 26 83 100 89 100 100 100 100 100 100 100 100 98 15 0 0 65 12 100 100 100 100 100 84 46 100 100
100 100 100 100 100 100 100 100 100 86 100 100 100 100 100 100 100 86 67 20 5 6 62 93 100 100 100 100 96 100 100 100 100 100 100 48 0 0 42 77 66 100 100 100 100 100 48 100 100
100 100 100 100 100 100 100 100 100 100 100 100 100 100 100 99 50 7 5 6 13 26 80 94 78 100 98 100 97 100 100 100 100 100 100 100 84 65 1 45 77 100 100 100 100 100 100 100 100
100 100 100 100 100 100 100 100 100 100 100 100 100 100 100 100 91 26 6 29 40 66 98 100 99 100 96 100 100 100 100 100 100 100 100 100 100 100 95 41 95 100 100 100 100 100 100 100 100

GFSSGP_prec_cloud_114.txt.gz
Cloud_Cover
0 0 2 3 4 1 5 0 0 0 0 0 0 0 0 0 0 0 0 0 0 0 0 0 0 0 0 0 0 0 0 0 0 0 0 0 0 0 0 0 0 0 0 0 0 0 0 0 0
0 0 0 5 5 5 5 2 0 0 0 0 0 0 0 0 0 0 0 0 0 0 0 0 0 0 0 0 0 0 0 0 0 0 0 0 0 0 0 0 0 0 0 0 6 12 0 0 0
0 0 2 1 10 8 5 0 0 2 0 0 0 0 0 0 0 0 0 0 0 0 0 0 0 0 0 0 0 0 0 0 0 0 0 0 0 0 0 0 0 0 4 10 4 4 3 0 4
0 4 5 6 5 5 5 4 0 2 0 1 5 0 0 0 0 0 0 0 0 0 0 43 0 0 0 0 0 0 0 0 0 0 0 0 0 0 0 0 0 0 5 5 5 5 5 4 1
0 4 11 5 42 6 5 4 5 26 5 5 4 4 0 0 3 3 0 0 0 0 0 0 0 0 0 0 0 0 0 0 0 0 0 0 0 0 0 0 0 0 0 0 4 10 5 4 5
4 4 2 24 89 90 30 16 58 14 5 58 44 72 80 0 10 4 1 0 4 1 0 0 4 2 0 0 0 0 0 0 0 0 0 0 0 0 0 0 0 0 0 2 1 0 0 0 0
4 58 74 89 100 100 100 89 100 100 82 93 43 86 77 5 100 100 97 89 2 5 5 1 6 26 0 0 0 0 0 0 0 0 0 0 0 0 0 0 0 0 0 0 5 4 0 0 0
6 100 100 100 100 100 100 100 100 58 100 100 100 100 98 65 80 100 100 100 100 34 5 4 100 86 0 0 3 0 0 0 0 0 0 0 6 0 0 0 0 0 0 0 0 2 5 5 3
53 100 100 100 100 100 100 100 100 100 100 100 100 100 100 100 100 96 100 100 100 99 16 0 32 100 17 0 2 14 0 2 8 2 4 79 0 0 0 0 0 5 0 0 0 0 0 0 0
100 100 100 100 100 100 94 18 32 75 100 100 100 100 100 100 43 96 100 100 100 100 100 65 97 100 100 5 26 27 86 0 5 0 5 0 0 0 0 0 0 3 0 0 0 2 0 36 0
47 99 13 5 5 14 83 5 6 4 43 40 81 100 100 100 99 60 100 100 100 100 99 100 70 100 100 100 100 100 100 0 5 0 0 0 1 4 0 0 0 0 3 5 23 38 0 0 0
5 3 55 76 73 48 19 30 4 0 1 5 5 69 78 11 59 100 78 91 100 100 100 100 100 100 98 94 95 100 100 34 79 0 0 0 0 0 4 27 0 0 0 0 1 2 0 0 0
5 5 15 10 5 8 7 4 35 4 2 5 2 5 20 92 100 100 100 100 100 99 35 99 100 100 100 100 100 52 89 100 100 4 2 4 5 4 2 3 4 0 0 0 4 1 57 36 41
76 97 96 28 6 18 2 3 1 5 5 4 3 6 44 35 95 46 100 100 100 37 31 100 100 100 100 100 100 100 100 100 100 70 60 35 8 5 5 5 5 5 5 3 1 0 35 68 54
100 56 5 5 1 0 0 2 5 5 5 38 17 5 8 6 79 98 47 92 12 88 100 31 100 99 64 100 100 100 100 100 100 100 100 100 98 42 34 5 9 5 30 5 5 1 100 49 0
4 4 3 3 0 0 0 1 4 5 4 7 5 9 5 5 5 82 97 5 17 99 90 100 100 86 81 71 84 100 100 100 100 100 100 100 100 100 100 87 10 17 14 34 5 5 0 32 4
3 1 0 0 5 3 1 0 0 3 2 1 25 53 5 5 4 3 5 58 100 100 42 97 100 100 100 100 100 100 100 100 100 100 100 100 100 100 100 100 100 100 99 40 60 5 3 3 5
0 2 0 0 8 99 92 0 0 0 0 0 5 5 5 1 1 0 3 5 100 30 22 45 91 100 100 100 100 100 100 99 99 100 100 100 100 100 100 100 100 100 100 9 5 4 5 5 5
4 5 1 0 5 21 80 46 36 8 5 0 5 5 3 0 5 0 0 5 43 99 7 5 5 41 76 54 100 93 100 100 100 100 100 100 100 100 100 100 100 100 21 5 5 5 5 5 5
42 25 22 53 5 5 1 58 0 0 0 0 0 4 4 5 1 0 0 0 0 1 88 100 90 5 5 5 5 5 5 5 5 37 87 100 100 100 100 100 91 100 19 16 82 80 55 5 5
24 47 4 15 5 39 94 78 5 0 0 0 0 14 94 99 4 2 1 0 5 4 5 6 100 98 50 3 1 0 5 5 5 4 5 12 59 93 26 91 40 91 100 100 98 52 40 65 31
98 12 82 99 100 88 44 96 96 2 1 11 0 96 19 2 0 0 0 0 0 16 51 8 35 90 100 95 26 35 45 8 12 5 5 24 75 12 7 99 44 36 88 66 86 99 50 100 48
97 99 93 5 9 85 46 93 23 98 78 88 100 8 0 0 0 0 0 0 0 0 83 88 74 68 47 38 24 36 29 5 0 0 0 0 0 16 100 11 9 100 81 39 85 100 98 100 100
94 7 8 46 78 88 12 100 38 100 100 100 100 30 0 0 5 1 0 0 0 0 0 6 83 97 59 12 44 14 78 100 61 17 2 0 0 0 14 91 56 16 34 96 100 100 100 100 100
16 53 87 50 94 84 98 100 84 100 100 100 100 100 54 9 3 5 0 0 0 0 0 0 0 0 3 15 49 93 100 100 100 99 68 30 4 4 3 1 93 100 95 91 100 96 100 100 100
99 100 100 100 100 100 100 100 100 99 100 100 100 100 100 100 77 10 5 5 5 0 0 0 0 7 25 97 99 100 100 100 100 97 94 70 48 1 3 20 7 98 100 100 70 96 100 100 82
100 92 100 100 95 91 100 100 100 100 100 100 100 100 100 100 97 85 76 5 5 8 15 5 6 6 44 100 100 98 100 100 100 100 100 100 91 36 0 3 20 53 100 99 8 5 100 100 98
100 95 92 100 100 97 86 100 100 100 100 100 100 100 100 100 52 31 84 44 88 90 82 8 50 70 61 100 92 99 100 100 100 100 100 100 100 96 63 3 55 57 73 72 44 70 100 100 100
100 100 76 100 100 100 100 100 100 100 100 100 100 100 100 100 100 100 98 72 100 100 100 100 38 39 41 100 100 100 100 100 100 100 100 100 100 100 100 37 7 33 65 97 92 78 100 99 98
100 56 87 100 100 100 100 100 100 100 100 100 100 100 100 100 100 100 100 100 100 100 95 75 39 41 79 100 100 100 100 100 100 100 100 100 100 100 100 91 35 26 98 97 100 100 100 90 100

GFSSGP_prec_cloud_120.txt.gz
Cloud_Cover
0 0 0 0 0 0 0 0 0 0 0 0 0 0 0 0 0 0 0 0 0 0 0 0 0 0 0 0 0 0 0 0 0 0 0 0 0 0 0 0 0 0 0 1 0 0 0 5 5
0 0 0 0 0 0 0 0 0 0 0 0 0 0 0 0 0 0 0 0 0 0 0 0 0 0 0 0 0 0 0 0 0 0 0 0 0 0 0 0 0 0 0 0 0 0 0 0 1
0 0 0 0 0 0 0 0 0 0 0 0 4 0 0 0 0 0 0 0 0 0 0 0 0 0 0 0 0 0 0 0 0 0 0 0 0 0 0 0 0 0 0 0 0 0 0 0 0
0 0 0 0 0 0 0 0 0 0 0 31 62 2 0 36 51 42 5 5 2 0 0 0 0 0 0 0 0 0 0 0 0 0 0 0 0 0 0 0 0 0 0 0 0 0 0 0 0
0 1 0 0 0 0 0 0 0 4 3 4 13 5 51 100 5 2 0 1 82 94 8 0 0 0 37 88 1 2 4 4 1 5 0 0 0 0 0 0 0 0 0 0 0 0 0 0 0
5 5 0 0 0 0 0 0 0 3 70 98 98 24 37 99 100 100 58 5 5 5 12 24 5 0 0 0 60 100 49 2 5 5 5 0 1 1 0 0 0 0 0 0 0 0 0 0 0
8 5 2 0 0 4 0 0 0 1 12 56 89 100 89 93 100 100 66 99 5 100 93 31 8 89 44 7 8 23 55 4 1 5 5 3 5 47 5 2 0 0 0 0 0 0 0 0 0
1 5 3 53 5 96 2 3 3 4 0 5 49 95 100 100 100 100 100 100 96 4 39 98 76 95 100 30 23 21 100 97 0 6 73 5 5 100 93 5 0 0 0 0 0 0 0 0 0
5 81 64 5 71 56 0 4 4 5 5 5 4 4 10 99 100 100 83 51 100 89 98 100 94 42 77 100 67 46 9 100 100 100 100 100 100 100 100 99 42 13 3 0 0 0 0 0 0
7 100 83 5 3 5 59 5 2 4 41 26 5 1 3 5 26 10 5 5 6 75 22 100 100 100 100 100 38 35 36 43 48 88 100 100 100 94 100 100 100 100 86 0 0 0 0 0 19
47 95 33 77 5 31 100 100 65 11 85 58 5 3 0 0 5 9 59 38 0 0 1 17 89 100 100 100 36 67 97 58 91 99 100 100 100 100 100 100 100 100 98 72 19 26 35 30 29
11 65 78 100 100 100 100 99 100 60 24 99 16 5 5 5 5 5 81 40 5 1 0 5 35 76 68 100 100 100 72 46 54 96 100 100 100 100 100 100 100 100 100 100 43 56 45 39 16
18 53 58 100 100 100 100 100 6 81 99 4 5 7 5 5 5 4 4 44 5 0 2 39 42 100 100 100 100 100 100 86 45 100 100 100 100 100 100 100 100 100 100 100 99 76 77 58 20
98 98 100 100 100 100 100 93 11 73 9 40 86 52 4 1 3 0 4 5 4 4 4 6 18 21 97 93 99 100 100 100 100 99 100 99 100 100 100 92 100 100 76 100 100 43 38 49 14
98 100 100 100 100 100 22 5 98 100 100 96 13 4 0 5 5 5 0 0 5 5 5 5 3 5 10 3 85 100 100 100 100 100 100 100 100 100 100 69 99 84 100 100 100 26 5 14 10
100 100 90 96 82 100 100 16 59 65 10 5 5 0 1 8 10 29 3 0 0 3 5 5 4 5 31 27 4 0 5 70 100 100 100 100 100 100 100 100 100 100 100 100 100 5 100 100 82
80 2 6 6 66 65 22 2 0 1 5 5 2 5 5 4 5 5 5 5 4 0 0 2 1 1 6 68 5 5 4 3 13 99 100 100 100 100 100 100 100 100 100 100 86 84 100 100 100
40 14 55 35 15 4 0 0 0 0 2 0 5 5 5 5 52 1 2 3 5 4 0 0 0 0 1 0 6 4 0 5 0 60 100 100 100 100 100 100 100 100 100 100 100 100 100 100 100
5 5 2 5 0 0 0 0 0 0 0 0 5 5 83 100 98 0 0 0 0 0 4 0 3 3 0 0 0 3 0 0 4 4 12 100 100 100 100 100 100 100 100 100 100 100 100 100 100
2 5 5 4 3 3 1 0 0 0 0 2 2 100 100 100 74 5 6 0 0 0 5 37 100 59 1 0 0 0 0 0 0 3 6 86 100 100 100 100 100 100 94 100 100 100 100 100 100
5 10 5 3 3 5 5 1 0 2 0 0 0 11 100 100 65 8 99 16 1 0 3 55 100 100 41 5 0 0 0 0 0 0 1 4 8 86 18 28 61 94 100 100 100 100 100 100 100
5 11 5 5 5 4 2 56 0 0 0 0 0 0 9 87 50 54 30 71 3 0 0 5 25 11 5 5 4 0 0 0 0 0 0 0 0 0 0 0 2 1 8 42 80 100 100 100 100
5 13 97 7 5 23 0 70 0 0 0 0 0 0 0 0 16 0 88 18 24 23 89 99 100 100 100 4 0 2 5 0 0 0 0 0 0 0 0 0 0 6 27 2 14 56 100 100 100
34 93 96 23 31 28 0 17 0 64 38 2 5 81 85 32 11 55 100 100 100 100 100 100 79 16 44 5 1 0 0 0 0 0 14 12 3 2 4 0 0 0 4 14 0 29 7 15 82
86 82 92 65 86 44 0 0 59 100 90 77 80 41 100 100 100 100 100 100 100 100 100 84 99 47 29 5 5 5 5 3 4 39 48 100 93 39 1 5 5 28 6 4 88 11 74 0 0
5 96 96 95 59 1 0 0 34 100 100 94 100 99 90 100 100 100 100 100 100 100 100 99 52 28 100 100 51 6 8 53 93 72 93 99 96 99 74 58 97 99 90 62 20 1 83 64 0
0 4 5 66 24 55 0 62 100 100 97 100 100 100 100 100 100 100 100 100 100 100 100 73 94 55 89 100 100 100 100 100 100 100 97 100 99 100 100 99 100 100 100 100 100 55 2 100 13
1 4 6 78 71 72 4 55 31 100 100 100 100 100 100 100 100 100 100 100 100 100 100 100 12 99 100 100 100 100 100 100 100 100 100 100 100 100 100 100 100 100 100 100 100 100 40 81 99
4 5 5 13 88 72 8 12 42 4 100 100 100 100 100 100 100 100 100 100 100 100 99 78 96 100 100 100 100 100 100 100 100 100 100 100 100 100 100 100 100 100 100 100 100 100 99 24 100
4 7 45 39 45 46 86 5 73 46 5 100 100 96 51 66 100 100 100 100 100 74 100 72 100 100 100 100 100 100 100 100 86 100 100 100 100 100 100 100 100 100 100 100 100 100 100 8 100

GFSSGP_prec_cloud_123.txt.gz
Cloud_Cover
4 0 0 0 0 0 0 0 0 0 0 0 0 0 0 0 0 0 0 0 0 0 10 4 0 0 0 0 0 0 0 0 0 0 0 0 0 0 0 0 0 0 0 4 4 0 0 0 0
5 4 3 0 0 0 0 0 0 0 0 0 0 0 0 0 0 0 0 0 0 0 4 12 0 0 0 0 0 0 0 0 0 0 0 0 0 0 0 0 0 0 0 0 0 0 0 0 0
2 5 3 5 5 0 0 0 0 0 0 0 0 0 0 0 0 1 0 0 0 0 0 5 1 0 0 0 0 0 0 0 0 0 0 0 0 0 0 0 0 0 0 0 0 2 1 0 0
4 4 4 6 7 0 0 0 0 0 0 0 68 0 0 0 0 5 5 5 5 0 0 0 1 5 0 0 0 0 2 0 0 0 0 0 0 0 0 0 0 0 0 0 0 0 0 0 0
7 4 5 84 100 0 0 0 0 0 0 0 34 0 0 0 2 5 29 8 2 0 0 0 4 4 1 4 0 0 53 6 12 26 4 0 0 0 0 0 1 0 0 0 0 0 0 0 0
83 8 58 26 5 0 0 0 0 0 3 1 0 1 10 74 50 100 100 78 8 8 8 1 4 5 4 0 2 5 4 5 100 98 4 0 0 0 0 0 2 4 0 0 0 0 0 0 0
0 2 32 95 25 5 1 1 0 1 2 1 5 0 12 70 60 58 99 100 100 99 7 7 49 90 9 44 79 27 5 5 5 1 5 2 0 1 5 2 66 96 27 1 0 4 0 0 0
0 0 42 18 23 5 0 5 6 0 0 5 4 5 4 25 95 34 46 20 98 99 100 100 70 46 30 57 46 22 16 3 5 7 100 7 1 83 100 100 86 100 24 85 6 37 0 0 0
2 5 5 18 99 58 5 7 5 2 0 5 5 5 7 25 64 78 24 5 5 3 1 6 14 20 22 27 38 36 21 9 5 25 96 55 44 100 100 100 100 100 100 100 100 100 80 0 5
5 19 5 39 18 59 75 75 3 1 2 12 4 3 6 5 33 64 78 5 9 5 3 15 17 22 18 6 95 93 70 55 37 30 60 70 70 100 100 100 100 100 100 100 100 100 99 22 21
5 90 55 100 57 100 100 26 5 0 27 3 1 1 7 9 14 23 78 32 5 1 5 34 18 20 26 9 41 66 100 100 100 86 71 100 100 100 100 100 100 100 100 100 100 100 100 100 53
7 25 84 100 88 100 100 100 8 5 100 77 0 6 85 32 23 4 5 5 5 4 5 63 27 28 27 22 35 40 77 99 100 100 100 100 100 100 100 100 100 100 100 100 100 100 92 86 36
5 5 43 100 100 100 39 47 6 100 100 26 100 41 6 5 4 4 11 3 4 4 44 56 87 41 35 25 29 31 100 100 100 100 100 100 100 100 100 100 100 100 100 100 100 100 100 100 78
5 5 18 95 100 94 45 29 73 100 100 100 100 100 62 33 32 9 18 5 1 0 15 92 100 100 88 75 72 51 36 100 100 100 91 100 100 100 100 100 100 100 100 100 100 100 100 100 100
42 11 100 100 35 12 11 26 100 100 100 100 100 99 100 100 100 17 3 5 5 4 0 49 4 0 11 26 8 9 79 100 100 100 100 100 100 100 100 100 100 100 100 100 100 100 97 100 100
70 100 86 100 98 81 100 100 91 96 32 98 100 100 100 100 10 5 0 2 0 0 4 0 3 2 1 9 5 5 0 22 67 99 100 100 100 100 100 100 100 100 100 100 100 100 100 100 100
100 100 100 100 100 100 95 26 3 81 100 100 100 44 4 4 5 5 5 2 0 0 0 2 1 1 0 0 4 0 0 0 6 98 76 100 100 100 100 100 100 100 100 100 100 100 100 100 100
50 41 100 100 100 58 73 6 80 94 90 87 59 16 5 2 2 3 5 1 0 4 5 0 0 0 0 0 0 0 0 0 0 2 26 13 5 100 100 100 100 100 100 100 100 100 100 100 100
5 5 10 46 12 8 5 10 14 28 27 100 39 5 1 1 4 0 0 0 4 3 0 4 2 0 0 0 0 0 0 0 0 0 0 0 76 100 100 100 100 100 100 100 100 100 100 100 100
100 100 78 5 5 6 19 5 5 12 14 3 1 4 0 0 4 16 8 6 24 32 2 0 0 0 0 44 4 0 0 0 0 0 0 0 1 47 100 100 100 100 100 100 100 100 100 100 100
100 94 98 14 30 5 5 2 5 4 0 0 0 0 0 0 0 2 86 78 41 99 29 5 5 14 23 0 76 47 3 0 1 0 0 0 0 5 93 100 100 100 100 100 100 100 100 100 100
100 100 53 12 9 5 36 18 5 0 0 0 0 0 0 0 0 3 6 5 100 98 89 100 98 69 87 4 5 81 100 92 17 5 4 2 0 0 5 100 100 100 100 100 100 100 100 100 100
92 97 78 14 5 5 15 4 5 0 45 6 1 7 42 57 58 80 88 95 69 100 100 100 93 96 100 98 51 26 74 100 100 97 14 5 4 1 0 6 97 100 100 99 98 100 26 100 100
100 97 15 8 22 86 0 38 0 25 99 70 25 40 95 100 100 100 100 100 100 100 100 100 100 99 91 44 5 9 5 7 60 87 99 67 56 5 0 0 1 1 36 74 98 100 97 100 100
8 35 54 64 20 10 1 5 5 92 100 90 97 58 86 100 100 100 100 100 100 100 100 100 100 100 100 100 100 81 44 68 99 100 100 98 66 92 72 48 48 95 100 100 99 67 32 6 80
13 12 26 14 77 5 4 4 5 90 99 100 79 74 100 100 100 100 100 100 100 96 99 100 100 96 100 100 100 100 100 100 100 100 100 100 100 100 100 100 100 98 99 100 100 100 100 79 9
20 5 5 65 34 17 0 46 72 100 100 76 50 83 98 100 100 100 100 100 100 100 100 100 100 99 100 100 100 100 100 100 100 100 100 100 100 100 100 100 100 100 100 100 100 100 100 100 90
7 5 21 53 83 72 2 3 5 95 100 100 100 96 100 100 100 100 100 100 100 100 99 91 100 100 100 100 100 100 100 100 100 100 100 100 100 100 100 100 100 100 100 100 100 100 100 100 100
9 5 5 55 66 5 15 1 5 14 25 100 65 21 100 100 100 98 100 100 100 100 100 100 100 100 96 100 100 100 100 100 100 100 100 100 100 100 100 100 100 100 100 100 100 100 100 100 100
96 27 12 100 11 40 98 7 96 100 65 94 5 5 100 100 100 100 100 100 100 100 100 100 100 100 100 100 92 100 100 100 100 100 100 100 100 100 100 100 100 100 100 100 100 100 100 100 100

GFSSGP_prec_cloud_126.txt.gz
Cloud_Cover
100 72 2 9 5 2 0 0 0 0 0 0 0 0 0 0 0 0 0 0 0 10 11 0 0 0 0 0 0 0 0 0 0 0 0 0 0 0 0 0 0 0 0 4 24 9 0 0 0
99 15 24 60 5 0 0 0 0 0 0 0 0 0 0 0 0 0 0 0 0 8 12 9 0 0 0 0 0 0 0 0 0 0 0 2 0 0 0 0 0 0 0 47 14 1 6 0 0
5 42 100 100 83 0 0 0 0 0 3 0 0 0 0 0 0 0 0 0 0 0 1 3 33 1 0 0 0 0 0 0 0 0 0 0 0 0 0 0 0 0 0 0 4 2 0 0 0
5 38 94 5 3 0 0 0 5 55 99 5 0 0 0 0 0 0 0 0 5 5 0 0 0 0 0 0 1 4 0 0 0 2 0 2 0 0 0 0 0 0 0 0 0 0 0 0 0
8 1 2 5 0 0 0 0 13 16 5 5 0 0 0 0 0 0 0 0 0 1 7 3 3 1 0 5 1 0 0 1 0 2 3 1 99 4 0 0 0 0 0 0 3 0 0 0 0
2 0 0 1 0 0 0 0 4 68 49 2 3 0 0 0 0 0 0 3 5 2 5 53 88 75 2 3 41 5 0 40 72 59 23 5 7 5 0 0 0 0 0 8 98 5 1 4 2
2 3 4 7 0 0 0 0 4 5 3 3 3 0 0 4 2 4 1 5 2 5 3 5 14 6 39 96 55 12 53 46 87 99 100 16 12 5 5 4 0 2 10 5 100 86 95 38 84
100 100 56 5 17 3 0 0 5 5 5 5 8 4 4 0 5 5 6 5 44 5 5 5 11 20 27 30 32 10 5 7 9 54 100 73 5 5 44 6 1 13 99 98 99 89 98 100 100
6 7 2 2 2 3 1 3 4 5 5 5 0 0 5 5 5 5 24 76 7 5 5 5 11 21 24 80 25 36 20 6 16 9 18 64 93 13 30 25 5 5 48 88 100 9 91 100 100
5 5 2 5 4 5 3 2 3 5 5 3 1 4 0 5 5 6 69 72 98 91 28 19 12 20 23 26 34 44 84 86 64 67 56 63 76 24 26 100 39 31 6 100 23 20 7 19 100
5 5 5 5 5 5 5 5 5 7 95 6 5 0 0 0 0 3 5 15 42 9 6 35 90 67 23 26 37 96 100 100 100 95 70 95 100 98 66 62 100 73 29 78 46 100 99 88 100
14 5 6 12 60 67 67 6 5 20 100 8 0 3 6 5 4 5 6 96 100 100 99 7 6 22 25 30 37 82 100 100 100 100 100 100 100 100 100 100 100 100 100 74 100 100 100 98 61
5 5 10 63 100 48 8 90 18 100 96 16 2 0 2 0 2 75 100 100 100 93 66 61 94 78 90 33 36 50 91 99 100 100 100 100 100 100 100 100 100 100 99 80 100 100 100 100 100
5 5 5 36 5 30 6 100 100 100 100 98 4 5 66 99 100 91 82 75 99 64 8 58 58 84 98 100 96 91 68 62 42 53 94 100 100 100 100 100 100 100 100 100 100 100 100 100 100
5 47 42 5 5 44 38 91 100 100 100 100 99 82 94 98 100 16 5 4 5 6 98 99 61 88 100 100 100 100 100 100 88 100 100 100 100 100 100 100 100 100 99 100 100 100 100 100 100
5 1 5 5 17 100 95 88 100 100 100 100 100 100 100 99 33 10 5 5 5 3 5 5 5 10 48 64 32 0 0 22 72 81 48 56 94 99 100 100 100 100 100 100 100 100 100 100 100
5 2 4 11 100 100 100 93 90 100 100 100 100 100 100 100 100 97 89 32 19 6 4 5 5 5 5 5 17 4 0 0 0 3 10 60 100 21 100 100 100 100 100 100 100 100 100 100 100
35 83 99 98 100 31 13 41 53 100 100 100 100 56 88 60 84 100 100 93 62 16 5 5 5 5 5 5 2 0 4 0 0 0 2 5 4 47 100 100 100 100 83 100 98 100 99 100 100
97 99 100 100 100 100 100 100 100 100 84 5 5 8 72 96 26 14 7 5 5 7 6 1 0 3 0 0 0 0 0 0 0 0 0 0 0 5 48 100 100 59 93 100 100 100 100 100 100
19 87 99 97 61 17 24 82 100 99 42 12 5 5 5 13 11 8 4 0 0 2 5 6 19 67 3 0 0 0 0 0 0 0 0 0 0 0 0 4 52 94 49 100 100 100 100 92 100
100 100 100 100 100 100 90 68 67 100 77 8 45 49 17 26 48 63 78 66 26 2 17 40 56 68 85 10 69 4 0 0 5 4 2 0 0 0 0 0 6 74 100 100 100 100 100 55 100
100 100 100 100 100 94 44 13 28 53 90 88 6 5 38 70 92 99 100 100 98 52 44 3 57 98 100 88 88 11 56 32 1 5 5 4 0 0 0 0 0 1 5 100 100 100 100 100 100
100 100 100 100 100 100 94 49 60 65 69 66 36 28 46 75 92 100 100 100 100 100 100 94 42 5 4 94 97 100 100 71 94 50 37 12 7 28 2 0 0 0 0 1 74 100 95 99 100
100 100 100 100 98 77 100 32 96 17 5 31 36 31 9 8 18 46 86 100 100 100 100 100 100 94 24 100 88 100 100 100 100 100 100 100 100 100 84 65 89 82 100 98 87 100 100 100 100
100 100 100 100 100 100 50 6 67 5 8 4 18 62 18 56 74 80 100 92 100 98 100 100 100 100 100 100 90 100 100 100 100 100 100 100 100 100 100 100 100 100 100 100 100 100 100 100 100
100 59 95 92 82 85 38 21 5 5 2 5 98 99 23 10 65 40 66 100 100 99 98 100 100 100 100 84 96 97 100 100 100 100 100 100 100 100 100 100 100 100 100 100 100 100 100 100 100
58 9 51 78 5 73 6 0 5 98 99 51 97 86 97 100 33 19 50 99 100 100 100 98 100 92 78 93 98 100 100 100 100 100 100 100 100 100 100 100 100 100 100 100 100 100 100 100 100
42 40 8 36 7 64 2 0 2 90 100 62 35 88 94 100 88 4 97 100 100 100 100 100 100 100 98 100 99 100 100 100 100 100 100 100 100 100 100 100 100 100 100 100 100 100 100 100 100
100 87 86 99 93 87 39 1 0 4 0 6 37 76 82 100 98 16 90 100 100 100 98 100 100 100 100 100 100 100 100 100 100 100 100 100 100 100 100 100 100 100 100 100 100 100 100 100 100
100 96 100 100 27 20 71 12 3 5 4 5 54 89 85 99 25 5 20 100 100 100 100 100 100 100 100 100 100 100 100 100 99 100 100 100 100 100 100 100 100 100 100 100 100 100 100 100 100

GFSSGP_prec_cloud_129.txt.gz
Cloud_Cover
36 74 100 100 54 2 10 2 0 0 4 0 1 1 0 0 0 0 0 0 0 0 0 0 0 0 0 0 0 0 0 0 0 0 0 0 0 0 0 0 0 0 0 0 4 4 0 0 0
8 30 66 59 4 0 2 2 0 0 0 0 4 5 0 0 0 0 0 0 0 0 0 0 10 0 0 0 2 0 0 0 0 0 0 0 0 0 0 0 0 0 0 3 19 0 1 0 0
5 38 99 77 1 0 0 0 0 0 3 5 5 44 5 0 0 0 0 0 0 0 0 0 2 0 0 0 34 20 4 5 5 5 1 0 0 0 0 0 0 0 0 20 4 4 0 0 0
38 58 71 5 0 0 0 0 0 0 0 0 0 70 4 0 0 0 0 0 0 0 0 37 0 0 3 4 0 0 0 0 3 5 4 11 0 0 0 0 0 0 0 0 0 0 0 0 0
35 4 2 0 0 0 0 0 0 0 0 0 2 5 1 0 0 0 0 0 0 0 0 0 0 0 1 10 75 61 87 36 71 9 5 5 18 13 1 1 5 1 0 0 0 0 5 0 0
2 3 1 0 0 1 5 28 5 5 0 0 0 0 3 1 5 2 0 0 0 0 0 0 5 0 2 0 3 5 5 5 12 76 73 5 5 8 5 4 4 5 0 0 0 0 4 40 4
5 2 1 1 0 4 48 31 5 4 3 0 2 5 5 5 5 5 3 2 0 0 0 0 2 0 14 2 4 1 2 2 0 2 2 5 16 6 5 5 5 5 0 0 0 5 7 100 45
5 24 2 3 3 5 4 3 3 2 0 0 5 5 5 5 5 14 34 38 5 0 4 4 2 5 2 5 24 1 0 0 0 5 3 2 6 5 5 28 6 5 1 2 0 5 27 58 49
5 5 1 4 5 5 5 2 5 0 2 5 5 20 5 5 7 29 77 17 8 4 10 65 5 0 1 4 5 49 16 1 12 16 9 68 72 22 6 38 96 87 39 12 27 11 100 5 70
12 5 4 3 4 5 5 4 5 5 5 4 5 5 5 5 48 98 100 100 97 61 72 7 5 24 25 4 13 25 34 50 25 43 54 59 43 18 100 75 66 100 100 67 82 34 100 48 23
33 26 18 5 5 4 5 5 3 5 5 75 5 5 11 5 5 6 74 100 100 100 100 96 100 100 91 88 11 39 100 100 100 100 84 83 100 97 43 44 100 100 100 44 93 81 98 47 100
85 82 32 24 6 4 3 0 1 5 5 5 46 97 9 5 5 5 5 49 5 67 86 100 100 100 100 100 58 91 100 100 100 100 100 100 97 100 100 100 100 100 100 99 92 88 96 76 92
96 41 25 5 11 5 5 5 5 5 3 3 5 5 17 73 64 5 5 6 62 51 97 100 100 100 100 100 85 90 95 100 100 100 100 100 100 87 100 100 100 100 99 100 100 100 100 98 100
29 97 67 9 21 18 5 5 5 4 5 5 4 3 4 5 5 5 9 5 15 87 100 100 100 100 100 100 100 100 100 99 100 100 100 100 100 100 94 100 100 100 100 100 100 100 100 100 100
15 37 5 5 17 45 5 5 5 5 5 60 90 5 4 4 5 48 97 4 13 100 100 100 100 100 100 100 100 100 100 100 100 100 100 100 100 82 69 100 100 100 100 100 100 100 100 100 100
5 6 27 6 5 5 5 5 5 49 7 97 100 96 30 97 92 12 74 55 73 100 100 34 38 80 100 100 99 100 23 77 100 100 100 100 100 100 100 98 100 100 100 100 100 100 100 100 100
5 25 100 100 37 22 5 5 5 92 90 100 100 100 100 100 100 100 100 100 100 100 78 98 100 96 65 33 23 18 5 1 0 0 0 0 2 13 31 97 86 99 88 100 100 100 100 100 100
37 29 13 19 33 5 5 6 30 97 100 100 99 66 65 71 74 96 100 100 100 100 100 100 100 75 28 4 9 0 0 0 0 0 0 0 0 0 4 8 70 99 100 99 80 100 100 100 100
5 8 5 59 60 9 36 90 100 100 100 100 100 100 100 100 100 100 100 89 35 32 74 15 5 5 2 0 4 4 0 0 0 0 0 0 0 0 0 0 0 61 88 100 87 100 100 100 100
5 5 5 5 6 10 20 52 51 100 100 100 100 100 100 100 100 100 100 100 93 77 58 27 6 5 5 5 4 5 5 0 1 0 0 0 0 0 0 0 0 6 16 71 81 100 100 100 100
4 4 5 5 13 29 5 15 79 100 100 100 100 100 100 100 100 100 100 100 100 55 22 25 14 3 2 12 82 44 5 2 1 0 2 0 0 0 0 0 4 2 4 6 98 90 100 100 100
5 56 12 5 5 60 100 92 100 100 100 100 100 100 100 100 100 100 100 100 100 99 98 100 98 96 84 38 9 5 14 11 94 25 35 33 8 26 36 35 18 28 26 10 41 91 100 100 100
100 100 100 100 84 33 98 100 98 100 100 100 100 93 66 71 60 27 20 12 15 82 67 5 21 93 100 97 99 28 5 14 88 99 70 66 100 79 69 100 100 98 58 59 75 53 98 56 100
100 100 100 100 74 31 58 5 76 34 35 8 9 16 28 5 5 15 71 29 14 4 4 16 24 44 84 61 54 39 57 65 53 65 70 100 59 85 98 100 100 100 100 100 100 100 100 100 94
97 100 100 100 98 82 57 80 100 22 5 5 5 5 5 16 74 81 36 5 0 4 5 5 13 19 26 92 84 88 90 99 100 100 100 100 98 97 100 100 100 100 100 100 100 100 100 100 100
100 100 100 100 47 37 38 98 100 96 82 10 6 5 5 63 97 60 3 3 5 5 5 30 6 23 100 100 94 84 100 100 100 100 100 100 100 100 96 94 100 100 100 100 100 100 100 100 100
100 100 100 100 100 95 26 25 58 66 77 44 5 12 35 100 99 25 3 5 5 5 9 38 92 100 100 100 100 99 100 100 100 100 100 100 100 99 100 97 100 100 100 100 100 100 100 100 100
100 100 100 100 100 84 82 76 78 32 47 96 39 18 37 94 100 83 5 5 5 17 35 49 100 100 100 100 100 100 100 100 100 100 100 100 100 100 97 95 100 100 100 100 100 100 100 100 100
100 100 100 100 100 100 66 11 23 5 2 4 6 5 34 77 100 95 5 5 8 41 53 83 99 100 100 100 100 100 100 100 100 100 100 100 100 100 100 100 97 100 100 100 100 100 100 100 100
100 100 100 100 100 54 100 11 0 5 5 5 5 12 32 69 100 93 5 5 43 78 96 98 100 100 100 100 100 100 100 100 100 100 100 100 100 100 100 100 100 100 100 100 100 100 100 100 100